<?xml version="1.0" encoding="UTF-8" standalone="no" ?>
<gpx xmlns="http://www.topografix.com/GPX/1/1" xmlns:xsi="http://www.w3.org/2001/XMLSchema-instance" xsi:schemaLocation="http://www.topografix.com/GPX/1/1 http://www.topografix.com/GPX/1/1/gpx.xsd" version="1.1" creator="VisuGPX - https://www.visugpx.com">
  <metadata>
    <name>Sortie_cyclo_rospez_24_11_2013</name>
    <desc><![CDATA[Sortie cyclo depuis Lannion.
Assez vallonné !!!]]></desc>
  </metadata>
  <trk>
    <name><![CDATA[24-NOV-13 11:57:54 AM]]></name>
    <trkseg>
      <trkpt lat="48.74692" lon="-3.45525">
        <ele>-72.92</ele>
        <time>2013-11-24T07:42:51Z</time>
      </trkpt>
      <trkpt lat="48.7469" lon="-3.45522">
        <ele>-72.92</ele>
        <time>2013-11-24T07:42:52Z</time>
      </trkpt>
      <trkpt lat="48.74687" lon="-3.45517">
        <ele>-73.88</ele>
        <time>2013-11-24T07:42:54Z</time>
      </trkpt>
      <trkpt lat="48.74676" lon="-3.45486">
        <ele>-75.81</ele>
        <time>2013-11-24T07:42:58Z</time>
      </trkpt>
      <trkpt lat="48.74671" lon="-3.45493">
        <ele>-76.77</ele>
        <time>2013-11-24T07:42:59Z</time>
      </trkpt>
      <trkpt lat="48.74665" lon="-3.455">
        <ele>-77.25</ele>
        <time>2013-11-24T07:43:00Z</time>
      </trkpt>
      <trkpt lat="48.74653" lon="-3.45511">
        <ele>-79.65</ele>
        <time>2013-11-24T07:43:02Z</time>
      </trkpt>
      <trkpt lat="48.74647" lon="-3.45516">
        <ele>-80.13</ele>
        <time>2013-11-24T07:43:03Z</time>
      </trkpt>
      <trkpt lat="48.74641" lon="-3.45518">
        <ele>-80.13</ele>
        <time>2013-11-24T07:43:04Z</time>
      </trkpt>
      <trkpt lat="48.74635" lon="-3.4552">
        <ele>-80.61</ele>
        <time>2013-11-24T07:43:05Z</time>
      </trkpt>
      <trkpt lat="48.74629" lon="-3.45519">
        <ele>-80.13</ele>
        <time>2013-11-24T07:43:06Z</time>
      </trkpt>
      <trkpt lat="48.74623" lon="-3.45516">
        <ele>-80.61</ele>
        <time>2013-11-24T07:43:07Z</time>
      </trkpt>
      <trkpt lat="48.74617" lon="-3.45513">
        <ele>-80.61</ele>
        <time>2013-11-24T07:43:08Z</time>
      </trkpt>
      <trkpt lat="48.74612" lon="-3.45508">
        <ele>-80.61</ele>
        <time>2013-11-24T07:43:09Z</time>
      </trkpt>
      <trkpt lat="48.74582" lon="-3.4547">
        <ele>-83.5</ele>
        <time>2013-11-24T07:43:14Z</time>
      </trkpt>
      <trkpt lat="48.74559" lon="-3.45419">
        <ele>-80.61</ele>
        <time>2013-11-24T07:43:19Z</time>
      </trkpt>
      <trkpt lat="48.74537" lon="-3.45384">
        <ele>-80.13</ele>
        <time>2013-11-24T07:43:23Z</time>
      </trkpt>
      <trkpt lat="48.74513" lon="-3.45362">
        <ele>-73.4</ele>
        <time>2013-11-24T07:43:27Z</time>
      </trkpt>
      <trkpt lat="48.74509" lon="-3.45358">
        <ele>-68.12</ele>
        <time>2013-11-24T07:43:28Z</time>
      </trkpt>
      <trkpt lat="48.74504" lon="-3.45353">
        <ele>-63.31</ele>
        <time>2013-11-24T07:43:29Z</time>
      </trkpt>
      <trkpt lat="48.745" lon="-3.45349">
        <ele>-58.02</ele>
        <time>2013-11-24T07:43:30Z</time>
      </trkpt>
      <trkpt lat="48.74496" lon="-3.45345">
        <ele>-53.7</ele>
        <time>2013-11-24T07:43:31Z</time>
      </trkpt>
      <trkpt lat="48.74493" lon="-3.4534">
        <ele>-48.89</ele>
        <time>2013-11-24T07:43:32Z</time>
      </trkpt>
      <trkpt lat="48.74489" lon="-3.45336">
        <ele>-44.56</ele>
        <time>2013-11-24T07:43:33Z</time>
      </trkpt>
      <trkpt lat="48.74484" lon="-3.45331">
        <ele>-40.72</ele>
        <time>2013-11-24T07:43:34Z</time>
      </trkpt>
      <trkpt lat="48.7448" lon="-3.45327">
        <ele>-36.87</ele>
        <time>2013-11-24T07:43:35Z</time>
      </trkpt>
      <trkpt lat="48.74475" lon="-3.45322">
        <ele>-32.55</ele>
        <time>2013-11-24T07:43:36Z</time>
      </trkpt>
      <trkpt lat="48.74471" lon="-3.45318">
        <ele>-28.7</ele>
        <time>2013-11-24T07:43:37Z</time>
      </trkpt>
      <trkpt lat="48.74467" lon="-3.45313">
        <ele>-24.86</ele>
        <time>2013-11-24T07:43:38Z</time>
      </trkpt>
      <trkpt lat="48.74463" lon="-3.45308">
        <ele>-21.49</ele>
        <time>2013-11-24T07:43:39Z</time>
      </trkpt>
      <trkpt lat="48.74451" lon="-3.45297">
        <ele>-17.17</ele>
        <time>2013-11-24T07:43:42Z</time>
      </trkpt>
      <trkpt lat="48.74447" lon="-3.45293">
        <ele>-14.28</ele>
        <time>2013-11-24T07:43:43Z</time>
      </trkpt>
      <trkpt lat="48.74443" lon="-3.45289">
        <ele>-11.4</ele>
        <time>2013-11-24T07:43:44Z</time>
      </trkpt>
      <trkpt lat="48.74435" lon="-3.45281">
        <ele>-5.63</ele>
        <time>2013-11-24T07:43:46Z</time>
      </trkpt>
      <trkpt lat="48.74427" lon="-3.45272">
        <ele>-0.34</ele>
        <time>2013-11-24T07:43:48Z</time>
      </trkpt>
      <trkpt lat="48.74419" lon="-3.45264">
        <ele>4.94</ele>
        <time>2013-11-24T07:43:50Z</time>
      </trkpt>
      <trkpt lat="48.74412" lon="-3.45256">
        <ele>9.75</ele>
        <time>2013-11-24T07:43:52Z</time>
      </trkpt>
      <trkpt lat="48.74405" lon="-3.45249">
        <ele>14.08</ele>
        <time>2013-11-24T07:43:54Z</time>
      </trkpt>
      <trkpt lat="48.74398" lon="-3.45243">
        <ele>17.92</ele>
        <time>2013-11-24T07:43:56Z</time>
      </trkpt>
      <trkpt lat="48.74391" lon="-3.45238">
        <ele>20.81</ele>
        <time>2013-11-24T07:43:58Z</time>
      </trkpt>
      <trkpt lat="48.74383" lon="-3.45232">
        <ele>24.17</ele>
        <time>2013-11-24T07:44:00Z</time>
      </trkpt>
      <trkpt lat="48.74373" lon="-3.45228">
        <ele>27.53</ele>
        <time>2013-11-24T07:44:02Z</time>
      </trkpt>
      <trkpt lat="48.74357" lon="-3.45221">
        <ele>31.38</ele>
        <time>2013-11-24T07:44:05Z</time>
      </trkpt>
      <trkpt lat="48.7434" lon="-3.45211">
        <ele>34.74</ele>
        <time>2013-11-24T07:44:08Z</time>
      </trkpt>
      <trkpt lat="48.74323" lon="-3.45196">
        <ele>37.63</ele>
        <time>2013-11-24T07:44:11Z</time>
      </trkpt>
      <trkpt lat="48.74311" lon="-3.45182">
        <ele>39.07</ele>
        <time>2013-11-24T07:44:13Z</time>
      </trkpt>
      <trkpt lat="48.74305" lon="-3.45174">
        <ele>40.03</ele>
        <time>2013-11-24T07:44:14Z</time>
      </trkpt>
      <trkpt lat="48.74301" lon="-3.45164">
        <ele>40.51</ele>
        <time>2013-11-24T07:44:15Z</time>
      </trkpt>
      <trkpt lat="48.7428" lon="-3.45108">
        <ele>43.4</ele>
        <time>2013-11-24T07:44:20Z</time>
      </trkpt>
      <trkpt lat="48.74273" lon="-3.45069">
        <ele>46.28</ele>
        <time>2013-11-24T07:44:23Z</time>
      </trkpt>
      <trkpt lat="48.74271" lon="-3.45055">
        <ele>45.8</ele>
        <time>2013-11-24T07:44:24Z</time>
      </trkpt>
      <trkpt lat="48.74267" lon="-3.44874">
        <ele>46.28</ele>
        <time>2013-11-24T07:44:37Z</time>
      </trkpt>
      <trkpt lat="48.74259" lon="-3.44652">
        <ele>45.8</ele>
        <time>2013-11-24T07:44:53Z</time>
      </trkpt>
      <trkpt lat="48.74256" lon="-3.44642">
        <ele>45.32</ele>
        <time>2013-11-24T07:44:54Z</time>
      </trkpt>
      <trkpt lat="48.74244" lon="-3.44614">
        <ele>45.32</ele>
        <time>2013-11-24T07:44:57Z</time>
      </trkpt>
      <trkpt lat="48.74239" lon="-3.44606">
        <ele>44.84</ele>
        <time>2013-11-24T07:44:58Z</time>
      </trkpt>
      <trkpt lat="48.74233" lon="-3.446">
        <ele>44.84</ele>
        <time>2013-11-24T07:44:59Z</time>
      </trkpt>
      <trkpt lat="48.74227" lon="-3.44595">
        <ele>44.84</ele>
        <time>2013-11-24T07:45:00Z</time>
      </trkpt>
      <trkpt lat="48.74221" lon="-3.4459">
        <ele>44.36</ele>
        <time>2013-11-24T07:45:01Z</time>
      </trkpt>
      <trkpt lat="48.74112" lon="-3.44537">
        <ele>44.84</ele>
        <time>2013-11-24T07:45:14Z</time>
      </trkpt>
      <trkpt lat="48.74023" lon="-3.44499">
        <ele>44.84</ele>
        <time>2013-11-24T07:45:24Z</time>
      </trkpt>
      <trkpt lat="48.74015" lon="-3.44497">
        <ele>44.36</ele>
        <time>2013-11-24T07:45:25Z</time>
      </trkpt>
      <trkpt lat="48.74006" lon="-3.44499">
        <ele>44.36</ele>
        <time>2013-11-24T07:45:26Z</time>
      </trkpt>
      <trkpt lat="48.73997" lon="-3.44503">
        <ele>44.36</ele>
        <time>2013-11-24T07:45:27Z</time>
      </trkpt>
      <trkpt lat="48.73989" lon="-3.44505">
        <ele>44.36</ele>
        <time>2013-11-24T07:45:28Z</time>
      </trkpt>
      <trkpt lat="48.73981" lon="-3.44505">
        <ele>43.88</ele>
        <time>2013-11-24T07:45:29Z</time>
      </trkpt>
      <trkpt lat="48.73973" lon="-3.44501">
        <ele>43.88</ele>
        <time>2013-11-24T07:45:30Z</time>
      </trkpt>
      <trkpt lat="48.73966" lon="-3.44495">
        <ele>43.88</ele>
        <time>2013-11-24T07:45:31Z</time>
      </trkpt>
      <trkpt lat="48.7396" lon="-3.44488">
        <ele>43.88</ele>
        <time>2013-11-24T07:45:32Z</time>
      </trkpt>
      <trkpt lat="48.73953" lon="-3.44481">
        <ele>43.88</ele>
        <time>2013-11-24T07:45:33Z</time>
      </trkpt>
      <trkpt lat="48.73946" lon="-3.44476">
        <ele>43.88</ele>
        <time>2013-11-24T07:45:34Z</time>
      </trkpt>
      <trkpt lat="48.73942" lon="-3.44474">
        <ele>43.4</ele>
        <time>2013-11-24T07:45:35Z</time>
      </trkpt>
      <trkpt lat="48.73885" lon="-3.44451">
        <ele>40.51</ele>
        <time>2013-11-24T07:45:42Z</time>
      </trkpt>
      <trkpt lat="48.73861" lon="-3.44445">
        <ele>39.07</ele>
        <time>2013-11-24T07:45:45Z</time>
      </trkpt>
      <trkpt lat="48.73853" lon="-3.44446">
        <ele>39.55</ele>
        <time>2013-11-24T07:45:46Z</time>
      </trkpt>
      <trkpt lat="48.73844" lon="-3.44448">
        <ele>39.07</ele>
        <time>2013-11-24T07:45:47Z</time>
      </trkpt>
      <trkpt lat="48.73835" lon="-3.44452">
        <ele>38.59</ele>
        <time>2013-11-24T07:45:48Z</time>
      </trkpt>
      <trkpt lat="48.73826" lon="-3.44458">
        <ele>37.63</ele>
        <time>2013-11-24T07:45:49Z</time>
      </trkpt>
      <trkpt lat="48.73791" lon="-3.44488">
        <ele>35.71</ele>
        <time>2013-11-24T07:45:53Z</time>
      </trkpt>
      <trkpt lat="48.73782" lon="-3.44492">
        <ele>35.23</ele>
        <time>2013-11-24T07:45:54Z</time>
      </trkpt>
      <trkpt lat="48.73772" lon="-3.44494">
        <ele>34.26</ele>
        <time>2013-11-24T07:45:55Z</time>
      </trkpt>
      <trkpt lat="48.73763" lon="-3.44493">
        <ele>34.26</ele>
        <time>2013-11-24T07:45:56Z</time>
      </trkpt>
      <trkpt lat="48.73754" lon="-3.44489">
        <ele>32.82</ele>
        <time>2013-11-24T07:45:57Z</time>
      </trkpt>
      <trkpt lat="48.73664" lon="-3.44428">
        <ele>31.38</ele>
        <time>2013-11-24T07:46:08Z</time>
      </trkpt>
      <trkpt lat="48.7364" lon="-3.44416">
        <ele>33.3</ele>
        <time>2013-11-24T07:46:12Z</time>
      </trkpt>
      <trkpt lat="48.7361" lon="-3.44406">
        <ele>35.71</ele>
        <time>2013-11-24T07:46:18Z</time>
      </trkpt>
      <trkpt lat="48.73605" lon="-3.44405">
        <ele>36.19</ele>
        <time>2013-11-24T07:46:19Z</time>
      </trkpt>
      <trkpt lat="48.736" lon="-3.44404">
        <ele>36.19</ele>
        <time>2013-11-24T07:46:20Z</time>
      </trkpt>
      <trkpt lat="48.73591" lon="-3.44404">
        <ele>36.67</ele>
        <time>2013-11-24T07:46:22Z</time>
      </trkpt>
      <trkpt lat="48.73521" lon="-3.44416">
        <ele>40.03</ele>
        <time>2013-11-24T07:46:36Z</time>
      </trkpt>
      <trkpt lat="48.73458" lon="-3.44463">
        <ele>42.92</ele>
        <time>2013-11-24T07:46:50Z</time>
      </trkpt>
      <trkpt lat="48.73446" lon="-3.44478">
        <ele>42.92</ele>
        <time>2013-11-24T07:46:53Z</time>
      </trkpt>
      <trkpt lat="48.73442" lon="-3.44481">
        <ele>43.4</ele>
        <time>2013-11-24T07:46:54Z</time>
      </trkpt>
      <trkpt lat="48.73438" lon="-3.44483">
        <ele>43.4</ele>
        <time>2013-11-24T07:46:55Z</time>
      </trkpt>
      <trkpt lat="48.73433" lon="-3.44483">
        <ele>43.88</ele>
        <time>2013-11-24T07:46:56Z</time>
      </trkpt>
      <trkpt lat="48.73428" lon="-3.44481">
        <ele>44.36</ele>
        <time>2013-11-24T07:46:57Z</time>
      </trkpt>
      <trkpt lat="48.73424" lon="-3.44477">
        <ele>44.36</ele>
        <time>2013-11-24T07:46:58Z</time>
      </trkpt>
      <trkpt lat="48.7342" lon="-3.44472">
        <ele>44.84</ele>
        <time>2013-11-24T07:46:59Z</time>
      </trkpt>
      <trkpt lat="48.73417" lon="-3.44467">
        <ele>44.36</ele>
        <time>2013-11-24T07:47:00Z</time>
      </trkpt>
      <trkpt lat="48.73415" lon="-3.4446">
        <ele>44.84</ele>
        <time>2013-11-24T07:47:01Z</time>
      </trkpt>
      <trkpt lat="48.73413" lon="-3.44453">
        <ele>44.36</ele>
        <time>2013-11-24T07:47:02Z</time>
      </trkpt>
      <trkpt lat="48.73412" lon="-3.44445">
        <ele>44.84</ele>
        <time>2013-11-24T07:47:03Z</time>
      </trkpt>
      <trkpt lat="48.7341" lon="-3.44438">
        <ele>44.84</ele>
        <time>2013-11-24T07:47:04Z</time>
      </trkpt>
      <trkpt lat="48.73396" lon="-3.44305">
        <ele>45.32</ele>
        <time>2013-11-24T07:47:21Z</time>
      </trkpt>
      <trkpt lat="48.73388" lon="-3.44202">
        <ele>45.32</ele>
        <time>2013-11-24T07:47:34Z</time>
      </trkpt>
      <trkpt lat="48.73402" lon="-3.44092">
        <ele>46.76</ele>
        <time>2013-11-24T07:47:49Z</time>
      </trkpt>
      <trkpt lat="48.73407" lon="-3.44037">
        <ele>48.68</ele>
        <time>2013-11-24T07:47:57Z</time>
      </trkpt>
      <trkpt lat="48.73408" lon="-3.4403">
        <ele>48.68</ele>
        <time>2013-11-24T07:47:58Z</time>
      </trkpt>
      <trkpt lat="48.73409" lon="-3.44024">
        <ele>49.16</ele>
        <time>2013-11-24T07:47:59Z</time>
      </trkpt>
      <trkpt lat="48.73411" lon="-3.44018">
        <ele>49.16</ele>
        <time>2013-11-24T07:48:00Z</time>
      </trkpt>
      <trkpt lat="48.73413" lon="-3.44013">
        <ele>49.16</ele>
        <time>2013-11-24T07:48:01Z</time>
      </trkpt>
      <trkpt lat="48.73415" lon="-3.44007">
        <ele>49.65</ele>
        <time>2013-11-24T07:48:02Z</time>
      </trkpt>
      <trkpt lat="48.73418" lon="-3.44001">
        <ele>49.65</ele>
        <time>2013-11-24T07:48:03Z</time>
      </trkpt>
      <trkpt lat="48.73419" lon="-3.43995">
        <ele>50.13</ele>
        <time>2013-11-24T07:48:04Z</time>
      </trkpt>
      <trkpt lat="48.73421" lon="-3.43989">
        <ele>50.13</ele>
        <time>2013-11-24T07:48:05Z</time>
      </trkpt>
      <trkpt lat="48.73435" lon="-3.43892">
        <ele>52.53</ele>
        <time>2013-11-24T07:48:20Z</time>
      </trkpt>
      <trkpt lat="48.73435" lon="-3.43879">
        <ele>52.53</ele>
        <time>2013-11-24T07:48:22Z</time>
      </trkpt>
      <trkpt lat="48.73436" lon="-3.43873">
        <ele>53.01</ele>
        <time>2013-11-24T07:48:23Z</time>
      </trkpt>
      <trkpt lat="48.73438" lon="-3.43867">
        <ele>54.93</ele>
        <time>2013-11-24T07:48:24Z</time>
      </trkpt>
      <trkpt lat="48.7344" lon="-3.43862">
        <ele>53.49</ele>
        <time>2013-11-24T07:48:25Z</time>
      </trkpt>
      <trkpt lat="48.73443" lon="-3.43859">
        <ele>53.49</ele>
        <time>2013-11-24T07:48:26Z</time>
      </trkpt>
      <trkpt lat="48.73446" lon="-3.43856">
        <ele>53.97</ele>
        <time>2013-11-24T07:48:27Z</time>
      </trkpt>
      <trkpt lat="48.73471" lon="-3.43799">
        <ele>56.37</ele>
        <time>2013-11-24T07:48:39Z</time>
      </trkpt>
      <trkpt lat="48.73493" lon="-3.43746">
        <ele>57.34</ele>
        <time>2013-11-24T07:48:49Z</time>
      </trkpt>
      <trkpt lat="48.73494" lon="-3.4374">
        <ele>57.82</ele>
        <time>2013-11-24T07:48:50Z</time>
      </trkpt>
      <trkpt lat="48.73495" lon="-3.43722">
        <ele>57.34</ele>
        <time>2013-11-24T07:48:53Z</time>
      </trkpt>
      <trkpt lat="48.73497" lon="-3.43715">
        <ele>57.34</ele>
        <time>2013-11-24T07:48:54Z</time>
      </trkpt>
      <trkpt lat="48.73498" lon="-3.43701">
        <ele>58.3</ele>
        <time>2013-11-24T07:48:56Z</time>
      </trkpt>
      <trkpt lat="48.73498" lon="-3.43695">
        <ele>58.3</ele>
        <time>2013-11-24T07:48:57Z</time>
      </trkpt>
      <trkpt lat="48.73498" lon="-3.43689">
        <ele>57.82</ele>
        <time>2013-11-24T07:48:58Z</time>
      </trkpt>
      <trkpt lat="48.73499" lon="-3.43683">
        <ele>58.3</ele>
        <time>2013-11-24T07:48:59Z</time>
      </trkpt>
      <trkpt lat="48.73499" lon="-3.43677">
        <ele>58.3</ele>
        <time>2013-11-24T07:49:00Z</time>
      </trkpt>
      <trkpt lat="48.73501" lon="-3.43671">
        <ele>58.3</ele>
        <time>2013-11-24T07:49:01Z</time>
      </trkpt>
      <trkpt lat="48.73503" lon="-3.43665">
        <ele>58.3</ele>
        <time>2013-11-24T07:49:02Z</time>
      </trkpt>
      <trkpt lat="48.73504" lon="-3.43658">
        <ele>57.82</ele>
        <time>2013-11-24T07:49:03Z</time>
      </trkpt>
      <trkpt lat="48.73505" lon="-3.43651">
        <ele>57.82</ele>
        <time>2013-11-24T07:49:04Z</time>
      </trkpt>
      <trkpt lat="48.73505" lon="-3.43632">
        <ele>58.3</ele>
        <time>2013-11-24T07:49:08Z</time>
      </trkpt>
      <trkpt lat="48.73504" lon="-3.43631">
        <ele>58.3</ele>
        <time>2013-11-24T07:49:09Z</time>
      </trkpt>
      <trkpt lat="48.73502" lon="-3.4363">
        <ele>58.78</ele>
        <time>2013-11-24T07:49:10Z</time>
      </trkpt>
      <trkpt lat="48.735" lon="-3.43629">
        <ele>58.78</ele>
        <time>2013-11-24T07:49:11Z</time>
      </trkpt>
      <trkpt lat="48.73498" lon="-3.43628">
        <ele>59.26</ele>
        <time>2013-11-24T07:49:12Z</time>
      </trkpt>
      <trkpt lat="48.73491" lon="-3.43627">
        <ele>58.78</ele>
        <time>2013-11-24T07:49:13Z</time>
      </trkpt>
      <trkpt lat="48.73486" lon="-3.43624">
        <ele>59.26</ele>
        <time>2013-11-24T07:49:14Z</time>
      </trkpt>
      <trkpt lat="48.73481" lon="-3.4362">
        <ele>59.74</ele>
        <time>2013-11-24T07:49:15Z</time>
      </trkpt>
      <trkpt lat="48.73476" lon="-3.43616">
        <ele>59.74</ele>
        <time>2013-11-24T07:49:16Z</time>
      </trkpt>
      <trkpt lat="48.73455" lon="-3.4359">
        <ele>60.7</ele>
        <time>2013-11-24T07:49:21Z</time>
      </trkpt>
      <trkpt lat="48.73436" lon="-3.43551">
        <ele>61.18</ele>
        <time>2013-11-24T07:49:27Z</time>
      </trkpt>
      <trkpt lat="48.73417" lon="-3.43432">
        <ele>64.07</ele>
        <time>2013-11-24T07:49:42Z</time>
      </trkpt>
      <trkpt lat="48.73401" lon="-3.43318">
        <ele>66.95</ele>
        <time>2013-11-24T07:49:57Z</time>
      </trkpt>
      <trkpt lat="48.734" lon="-3.4331">
        <ele>67.43</ele>
        <time>2013-11-24T07:49:58Z</time>
      </trkpt>
      <trkpt lat="48.73399" lon="-3.43302">
        <ele>67.91</ele>
        <time>2013-11-24T07:49:59Z</time>
      </trkpt>
      <trkpt lat="48.73399" lon="-3.43295">
        <ele>68.39</ele>
        <time>2013-11-24T07:50:00Z</time>
      </trkpt>
      <trkpt lat="48.73398" lon="-3.43287">
        <ele>68.39</ele>
        <time>2013-11-24T07:50:01Z</time>
      </trkpt>
      <trkpt lat="48.73397" lon="-3.4328">
        <ele>68.87</ele>
        <time>2013-11-24T07:50:02Z</time>
      </trkpt>
      <trkpt lat="48.73395" lon="-3.43272">
        <ele>68.87</ele>
        <time>2013-11-24T07:50:03Z</time>
      </trkpt>
      <trkpt lat="48.73388" lon="-3.43197">
        <ele>71.27</ele>
        <time>2013-11-24T07:50:14Z</time>
      </trkpt>
      <trkpt lat="48.73384" lon="-3.43165">
        <ele>72.24</ele>
        <time>2013-11-24T07:50:19Z</time>
      </trkpt>
      <trkpt lat="48.73383" lon="-3.4316">
        <ele>72.24</ele>
        <time>2013-11-24T07:50:20Z</time>
      </trkpt>
      <trkpt lat="48.73383" lon="-3.43154">
        <ele>72.24</ele>
        <time>2013-11-24T07:50:21Z</time>
      </trkpt>
      <trkpt lat="48.73382" lon="-3.43148">
        <ele>72.24</ele>
        <time>2013-11-24T07:50:22Z</time>
      </trkpt>
      <trkpt lat="48.73382" lon="-3.43141">
        <ele>72.24</ele>
        <time>2013-11-24T07:50:23Z</time>
      </trkpt>
      <trkpt lat="48.73384" lon="-3.43111">
        <ele>72.72</ele>
        <time>2013-11-24T07:50:27Z</time>
      </trkpt>
      <trkpt lat="48.73384" lon="-3.43104">
        <ele>73.2</ele>
        <time>2013-11-24T07:50:28Z</time>
      </trkpt>
      <trkpt lat="48.73384" lon="-3.43097">
        <ele>72.72</ele>
        <time>2013-11-24T07:50:29Z</time>
      </trkpt>
      <trkpt lat="48.73384" lon="-3.4309">
        <ele>73.2</ele>
        <time>2013-11-24T07:50:30Z</time>
      </trkpt>
      <trkpt lat="48.73384" lon="-3.43082">
        <ele>73.2</ele>
        <time>2013-11-24T07:50:31Z</time>
      </trkpt>
      <trkpt lat="48.73382" lon="-3.4299">
        <ele>73.68</ele>
        <time>2013-11-24T07:50:43Z</time>
      </trkpt>
      <trkpt lat="48.73374" lon="-3.42919">
        <ele>74.64</ele>
        <time>2013-11-24T07:50:52Z</time>
      </trkpt>
      <trkpt lat="48.73363" lon="-3.4281">
        <ele>73.2</ele>
        <time>2013-11-24T07:51:04Z</time>
      </trkpt>
      <trkpt lat="48.73362" lon="-3.4279">
        <ele>73.2</ele>
        <time>2013-11-24T07:51:06Z</time>
      </trkpt>
      <trkpt lat="48.73351" lon="-3.42665">
        <ele>71.76</ele>
        <time>2013-11-24T07:51:18Z</time>
      </trkpt>
      <trkpt lat="48.73334" lon="-3.42515">
        <ele>72.72</ele>
        <time>2013-11-24T07:51:33Z</time>
      </trkpt>
      <trkpt lat="48.73333" lon="-3.4238">
        <ele>74.16</ele>
        <time>2013-11-24T07:51:47Z</time>
      </trkpt>
      <trkpt lat="48.73335" lon="-3.42315">
        <ele>74.16</ele>
        <time>2013-11-24T07:51:54Z</time>
      </trkpt>
      <trkpt lat="48.73342" lon="-3.4216">
        <ele>72.72</ele>
        <time>2013-11-24T07:52:09Z</time>
      </trkpt>
      <trkpt lat="48.73361" lon="-3.42062">
        <ele>70.31</ele>
        <time>2013-11-24T07:52:18Z</time>
      </trkpt>
      <trkpt lat="48.73361" lon="-3.42051">
        <ele>69.83</ele>
        <time>2013-11-24T07:52:19Z</time>
      </trkpt>
      <trkpt lat="48.73354" lon="-3.41997">
        <ele>69.83</ele>
        <time>2013-11-24T07:52:24Z</time>
      </trkpt>
      <trkpt lat="48.73349" lon="-3.41981">
        <ele>69.35</ele>
        <time>2013-11-24T07:52:26Z</time>
      </trkpt>
      <trkpt lat="48.73346" lon="-3.41975">
        <ele>69.35</ele>
        <time>2013-11-24T07:52:27Z</time>
      </trkpt>
      <trkpt lat="48.73343" lon="-3.41969">
        <ele>69.83</ele>
        <time>2013-11-24T07:52:28Z</time>
      </trkpt>
      <trkpt lat="48.73339" lon="-3.41964">
        <ele>70.31</ele>
        <time>2013-11-24T07:52:29Z</time>
      </trkpt>
      <trkpt lat="48.73335" lon="-3.41959">
        <ele>70.31</ele>
        <time>2013-11-24T07:52:30Z</time>
      </trkpt>
      <trkpt lat="48.73323" lon="-3.41946">
        <ele>71.27</ele>
        <time>2013-11-24T07:52:33Z</time>
      </trkpt>
      <trkpt lat="48.73319" lon="-3.41942">
        <ele>71.76</ele>
        <time>2013-11-24T07:52:34Z</time>
      </trkpt>
      <trkpt lat="48.73296" lon="-3.41921">
        <ele>73.2</ele>
        <time>2013-11-24T07:52:39Z</time>
      </trkpt>
      <trkpt lat="48.73291" lon="-3.41915">
        <ele>73.68</ele>
        <time>2013-11-24T07:52:40Z</time>
      </trkpt>
      <trkpt lat="48.73287" lon="-3.41909">
        <ele>73.68</ele>
        <time>2013-11-24T07:52:41Z</time>
      </trkpt>
      <trkpt lat="48.7325" lon="-3.41827">
        <ele>76.08</ele>
        <time>2013-11-24T07:52:54Z</time>
      </trkpt>
      <trkpt lat="48.73228" lon="-3.41716">
        <ele>78</ele>
        <time>2013-11-24T07:53:08Z</time>
      </trkpt>
      <trkpt lat="48.73206" lon="-3.41594">
        <ele>79.93</ele>
        <time>2013-11-24T07:53:23Z</time>
      </trkpt>
      <trkpt lat="48.7321" lon="-3.41515">
        <ele>82.81</ele>
        <time>2013-11-24T07:53:33Z</time>
      </trkpt>
      <trkpt lat="48.73215" lon="-3.41381">
        <ele>84.25</ele>
        <time>2013-11-24T07:53:50Z</time>
      </trkpt>
      <trkpt lat="48.73207" lon="-3.4122">
        <ele>83.29</ele>
        <time>2013-11-24T07:54:07Z</time>
      </trkpt>
      <trkpt lat="48.73194" lon="-3.41092">
        <ele>85.69</ele>
        <time>2013-11-24T07:54:23Z</time>
      </trkpt>
      <trkpt lat="48.73193" lon="-3.41084">
        <ele>85.69</ele>
        <time>2013-11-24T07:54:24Z</time>
      </trkpt>
      <trkpt lat="48.73171" lon="-3.40958">
        <ele>85.69</ele>
        <time>2013-11-24T07:54:40Z</time>
      </trkpt>
      <trkpt lat="48.73147" lon="-3.40847">
        <ele>85.21</ele>
        <time>2013-11-24T07:54:53Z</time>
      </trkpt>
      <trkpt lat="48.73109" lon="-3.40694">
        <ele>86.66</ele>
        <time>2013-11-24T07:55:11Z</time>
      </trkpt>
      <trkpt lat="48.73062" lon="-3.40582">
        <ele>89.06</ele>
        <time>2013-11-24T07:55:27Z</time>
      </trkpt>
      <trkpt lat="48.73055" lon="-3.40475">
        <ele>89.06</ele>
        <time>2013-11-24T07:55:40Z</time>
      </trkpt>
      <trkpt lat="48.73054" lon="-3.40459">
        <ele>89.06</ele>
        <time>2013-11-24T07:55:42Z</time>
      </trkpt>
      <trkpt lat="48.73052" lon="-3.40451">
        <ele>89.06</ele>
        <time>2013-11-24T07:55:43Z</time>
      </trkpt>
      <trkpt lat="48.73019" lon="-3.40322">
        <ele>88.58</ele>
        <time>2013-11-24T07:55:59Z</time>
      </trkpt>
      <trkpt lat="48.73003" lon="-3.40198">
        <ele>88.58</ele>
        <time>2013-11-24T07:56:12Z</time>
      </trkpt>
      <trkpt lat="48.72978" lon="-3.40075">
        <ele>89.54</ele>
        <time>2013-11-24T07:56:27Z</time>
      </trkpt>
      <trkpt lat="48.72954" lon="-3.39953">
        <ele>90.98</ele>
        <time>2013-11-24T07:56:42Z</time>
      </trkpt>
      <trkpt lat="48.72909" lon="-3.39828">
        <ele>91.46</ele>
        <time>2013-11-24T07:56:59Z</time>
      </trkpt>
      <trkpt lat="48.7285" lon="-3.39707">
        <ele>92.42</ele>
        <time>2013-11-24T07:57:17Z</time>
      </trkpt>
      <trkpt lat="48.72826" lon="-3.39573">
        <ele>92.9</ele>
        <time>2013-11-24T07:57:33Z</time>
      </trkpt>
      <trkpt lat="48.72837" lon="-3.39404">
        <ele>91.94</ele>
        <time>2013-11-24T07:57:51Z</time>
      </trkpt>
      <trkpt lat="48.72835" lon="-3.39226">
        <ele>91.46</ele>
        <time>2013-11-24T07:58:10Z</time>
      </trkpt>
      <trkpt lat="48.72844" lon="-3.39107">
        <ele>90.5</ele>
        <time>2013-11-24T07:58:23Z</time>
      </trkpt>
      <trkpt lat="48.72866" lon="-3.38925">
        <ele>88.58</ele>
        <time>2013-11-24T07:58:42Z</time>
      </trkpt>
      <trkpt lat="48.72901" lon="-3.38765">
        <ele>87.14</ele>
        <time>2013-11-24T07:58:59Z</time>
      </trkpt>
      <trkpt lat="48.72919" lon="-3.38715">
        <ele>86.66</ele>
        <time>2013-11-24T07:59:05Z</time>
      </trkpt>
      <trkpt lat="48.72921" lon="-3.38706">
        <ele>86.18</ele>
        <time>2013-11-24T07:59:06Z</time>
      </trkpt>
      <trkpt lat="48.72922" lon="-3.38697">
        <ele>86.18</ele>
        <time>2013-11-24T07:59:07Z</time>
      </trkpt>
      <trkpt lat="48.72923" lon="-3.38679">
        <ele>86.66</ele>
        <time>2013-11-24T07:59:09Z</time>
      </trkpt>
      <trkpt lat="48.72923" lon="-3.3867">
        <ele>86.66</ele>
        <time>2013-11-24T07:59:10Z</time>
      </trkpt>
      <trkpt lat="48.72921" lon="-3.38645">
        <ele>87.62</ele>
        <time>2013-11-24T07:59:13Z</time>
      </trkpt>
      <trkpt lat="48.72918" lon="-3.38622">
        <ele>87.62</ele>
        <time>2013-11-24T07:59:16Z</time>
      </trkpt>
      <trkpt lat="48.72918" lon="-3.386">
        <ele>87.62</ele>
        <time>2013-11-24T07:59:19Z</time>
      </trkpt>
      <trkpt lat="48.72918" lon="-3.38593">
        <ele>88.1</ele>
        <time>2013-11-24T07:59:20Z</time>
      </trkpt>
      <trkpt lat="48.72918" lon="-3.38586">
        <ele>87.14</ele>
        <time>2013-11-24T07:59:21Z</time>
      </trkpt>
      <trkpt lat="48.72916" lon="-3.38573">
        <ele>87.14</ele>
        <time>2013-11-24T07:59:23Z</time>
      </trkpt>
      <trkpt lat="48.72913" lon="-3.38568">
        <ele>87.62</ele>
        <time>2013-11-24T07:59:24Z</time>
      </trkpt>
      <trkpt lat="48.72907" lon="-3.38518">
        <ele>88.1</ele>
        <time>2013-11-24T07:59:34Z</time>
      </trkpt>
      <trkpt lat="48.72923" lon="-3.38469">
        <ele>87.14</ele>
        <time>2013-11-24T07:59:43Z</time>
      </trkpt>
      <trkpt lat="48.72926" lon="-3.38465">
        <ele>87.14</ele>
        <time>2013-11-24T07:59:44Z</time>
      </trkpt>
      <trkpt lat="48.72928" lon="-3.38461">
        <ele>87.14</ele>
        <time>2013-11-24T07:59:45Z</time>
      </trkpt>
      <trkpt lat="48.72931" lon="-3.38458">
        <ele>87.14</ele>
        <time>2013-11-24T07:59:46Z</time>
      </trkpt>
      <trkpt lat="48.72934" lon="-3.38455">
        <ele>86.66</ele>
        <time>2013-11-24T07:59:47Z</time>
      </trkpt>
      <trkpt lat="48.72938" lon="-3.38452">
        <ele>87.14</ele>
        <time>2013-11-24T07:59:48Z</time>
      </trkpt>
      <trkpt lat="48.72943" lon="-3.3845">
        <ele>87.14</ele>
        <time>2013-11-24T07:59:49Z</time>
      </trkpt>
      <trkpt lat="48.72948" lon="-3.38447">
        <ele>86.66</ele>
        <time>2013-11-24T07:59:50Z</time>
      </trkpt>
      <trkpt lat="48.72953" lon="-3.38444">
        <ele>86.66</ele>
        <time>2013-11-24T07:59:51Z</time>
      </trkpt>
      <trkpt lat="48.72958" lon="-3.3844">
        <ele>86.18</ele>
        <time>2013-11-24T07:59:52Z</time>
      </trkpt>
      <trkpt lat="48.72963" lon="-3.38435">
        <ele>86.66</ele>
        <time>2013-11-24T07:59:53Z</time>
      </trkpt>
      <trkpt lat="48.72967" lon="-3.38429">
        <ele>87.14</ele>
        <time>2013-11-24T07:59:54Z</time>
      </trkpt>
      <trkpt lat="48.72972" lon="-3.38424">
        <ele>87.62</ele>
        <time>2013-11-24T07:59:55Z</time>
      </trkpt>
      <trkpt lat="48.72976" lon="-3.38418">
        <ele>87.62</ele>
        <time>2013-11-24T07:59:56Z</time>
      </trkpt>
      <trkpt lat="48.73029" lon="-3.38333">
        <ele>86.18</ele>
        <time>2013-11-24T08:00:11Z</time>
      </trkpt>
      <trkpt lat="48.73042" lon="-3.38328">
        <ele>85.69</ele>
        <time>2013-11-24T08:00:14Z</time>
      </trkpt>
      <trkpt lat="48.73046" lon="-3.38328">
        <ele>85.69</ele>
        <time>2013-11-24T08:00:15Z</time>
      </trkpt>
      <trkpt lat="48.73068" lon="-3.38345">
        <ele>85.21</ele>
        <time>2013-11-24T08:00:24Z</time>
      </trkpt>
      <trkpt lat="48.73092" lon="-3.38339">
        <ele>84.73</ele>
        <time>2013-11-24T08:00:39Z</time>
      </trkpt>
      <trkpt lat="48.73096" lon="-3.38338">
        <ele>84.73</ele>
        <time>2013-11-24T08:00:50Z</time>
      </trkpt>
      <trkpt lat="48.73095" lon="-3.38339">
        <ele>84.73</ele>
        <time>2013-11-24T08:00:51Z</time>
      </trkpt>
      <trkpt lat="48.73091" lon="-3.38337">
        <ele>84.73</ele>
        <time>2013-11-24T08:01:04Z</time>
      </trkpt>
      <trkpt lat="48.73092" lon="-3.38336">
        <ele>84.25</ele>
        <time>2013-11-24T08:01:28Z</time>
      </trkpt>
      <trkpt lat="48.73092" lon="-3.38338">
        <ele>84.73</ele>
        <time>2013-11-24T08:01:42Z</time>
      </trkpt>
      <trkpt lat="48.73092" lon="-3.38338">
        <ele>84.73</ele>
        <time>2013-11-24T08:02:07Z</time>
      </trkpt>
      <trkpt lat="48.73091" lon="-3.38338">
        <ele>84.25</ele>
        <time>2013-11-24T08:02:30Z</time>
      </trkpt>
      <trkpt lat="48.7309" lon="-3.38337">
        <ele>84.25</ele>
        <time>2013-11-24T08:02:54Z</time>
      </trkpt>
      <trkpt lat="48.73089" lon="-3.3834">
        <ele>84.25</ele>
        <time>2013-11-24T08:03:02Z</time>
      </trkpt>
      <trkpt lat="48.73088" lon="-3.38342">
        <ele>84.25</ele>
        <time>2013-11-24T08:03:03Z</time>
      </trkpt>
      <trkpt lat="48.73087" lon="-3.38343">
        <ele>84.25</ele>
        <time>2013-11-24T08:03:04Z</time>
      </trkpt>
      <trkpt lat="48.73082" lon="-3.38348">
        <ele>84.25</ele>
        <time>2013-11-24T08:03:07Z</time>
      </trkpt>
      <trkpt lat="48.7308" lon="-3.38349">
        <ele>84.25</ele>
        <time>2013-11-24T08:03:08Z</time>
      </trkpt>
      <trkpt lat="48.73078" lon="-3.38349">
        <ele>84.25</ele>
        <time>2013-11-24T08:03:09Z</time>
      </trkpt>
      <trkpt lat="48.73077" lon="-3.38347">
        <ele>84.25</ele>
        <time>2013-11-24T08:03:10Z</time>
      </trkpt>
      <trkpt lat="48.73075" lon="-3.38344">
        <ele>84.25</ele>
        <time>2013-11-24T08:03:11Z</time>
      </trkpt>
      <trkpt lat="48.73074" lon="-3.38342">
        <ele>84.25</ele>
        <time>2013-11-24T08:03:12Z</time>
      </trkpt>
      <trkpt lat="48.7306" lon="-3.38328">
        <ele>85.21</ele>
        <time>2013-11-24T08:03:19Z</time>
      </trkpt>
      <trkpt lat="48.73057" lon="-3.38329">
        <ele>84.73</ele>
        <time>2013-11-24T08:03:20Z</time>
      </trkpt>
      <trkpt lat="48.73054" lon="-3.38331">
        <ele>85.21</ele>
        <time>2013-11-24T08:03:21Z</time>
      </trkpt>
      <trkpt lat="48.73051" lon="-3.38333">
        <ele>84.73</ele>
        <time>2013-11-24T08:03:22Z</time>
      </trkpt>
      <trkpt lat="48.73049" lon="-3.38336">
        <ele>84.73</ele>
        <time>2013-11-24T08:03:23Z</time>
      </trkpt>
      <trkpt lat="48.73047" lon="-3.3834">
        <ele>84.73</ele>
        <time>2013-11-24T08:03:24Z</time>
      </trkpt>
      <trkpt lat="48.72997" lon="-3.38414">
        <ele>85.69</ele>
        <time>2013-11-24T08:03:41Z</time>
      </trkpt>
      <trkpt lat="48.72986" lon="-3.3843">
        <ele>86.18</ele>
        <time>2013-11-24T08:03:45Z</time>
      </trkpt>
      <trkpt lat="48.72982" lon="-3.38435">
        <ele>86.18</ele>
        <time>2013-11-24T08:03:46Z</time>
      </trkpt>
      <trkpt lat="48.72973" lon="-3.38442">
        <ele>85.69</ele>
        <time>2013-11-24T08:03:48Z</time>
      </trkpt>
      <trkpt lat="48.72968" lon="-3.38445">
        <ele>85.69</ele>
        <time>2013-11-24T08:03:49Z</time>
      </trkpt>
      <trkpt lat="48.72934" lon="-3.38453">
        <ele>86.66</ele>
        <time>2013-11-24T08:03:58Z</time>
      </trkpt>
      <trkpt lat="48.72932" lon="-3.3845">
        <ele>86.66</ele>
        <time>2013-11-24T08:03:59Z</time>
      </trkpt>
      <trkpt lat="48.72931" lon="-3.38447">
        <ele>86.66</ele>
        <time>2013-11-24T08:04:00Z</time>
      </trkpt>
      <trkpt lat="48.7293" lon="-3.38444">
        <ele>86.66</ele>
        <time>2013-11-24T08:04:01Z</time>
      </trkpt>
      <trkpt lat="48.7293" lon="-3.38441">
        <ele>86.66</ele>
        <time>2013-11-24T08:04:02Z</time>
      </trkpt>
      <trkpt lat="48.72929" lon="-3.38439">
        <ele>86.18</ele>
        <time>2013-11-24T08:04:03Z</time>
      </trkpt>
      <trkpt lat="48.72928" lon="-3.38403">
        <ele>87.14</ele>
        <time>2013-11-24T08:04:13Z</time>
      </trkpt>
      <trkpt lat="48.72928" lon="-3.3838">
        <ele>87.14</ele>
        <time>2013-11-24T08:04:22Z</time>
      </trkpt>
      <trkpt lat="48.72928" lon="-3.38378">
        <ele>87.14</ele>
        <time>2013-11-24T08:04:23Z</time>
      </trkpt>
      <trkpt lat="48.72929" lon="-3.38375">
        <ele>87.14</ele>
        <time>2013-11-24T08:04:24Z</time>
      </trkpt>
      <trkpt lat="48.72929" lon="-3.38372">
        <ele>87.14</ele>
        <time>2013-11-24T08:04:25Z</time>
      </trkpt>
      <trkpt lat="48.7293" lon="-3.3837">
        <ele>88.1</ele>
        <time>2013-11-24T08:04:26Z</time>
      </trkpt>
      <trkpt lat="48.7293" lon="-3.38368">
        <ele>87.14</ele>
        <time>2013-11-24T08:04:27Z</time>
      </trkpt>
      <trkpt lat="48.7293" lon="-3.38359">
        <ele>87.14</ele>
        <time>2013-11-24T08:04:42Z</time>
      </trkpt>
      <trkpt lat="48.72926" lon="-3.38358">
        <ele>86.66</ele>
        <time>2013-11-24T08:05:02Z</time>
      </trkpt>
      <trkpt lat="48.72926" lon="-3.38356">
        <ele>87.14</ele>
        <time>2013-11-24T08:05:03Z</time>
      </trkpt>
      <trkpt lat="48.72926" lon="-3.38354">
        <ele>87.14</ele>
        <time>2013-11-24T08:05:04Z</time>
      </trkpt>
      <trkpt lat="48.72926" lon="-3.38351">
        <ele>87.14</ele>
        <time>2013-11-24T08:05:05Z</time>
      </trkpt>
      <trkpt lat="48.72927" lon="-3.38348">
        <ele>87.14</ele>
        <time>2013-11-24T08:05:06Z</time>
      </trkpt>
      <trkpt lat="48.72927" lon="-3.38344">
        <ele>87.62</ele>
        <time>2013-11-24T08:05:07Z</time>
      </trkpt>
      <trkpt lat="48.7295" lon="-3.38285">
        <ele>87.62</ele>
        <time>2013-11-24T08:05:18Z</time>
      </trkpt>
      <trkpt lat="48.72991" lon="-3.38182">
        <ele>87.14</ele>
        <time>2013-11-24T08:05:34Z</time>
      </trkpt>
      <trkpt lat="48.73023" lon="-3.38123">
        <ele>86.18</ele>
        <time>2013-11-24T08:05:43Z</time>
      </trkpt>
      <trkpt lat="48.73036" lon="-3.38086">
        <ele>85.69</ele>
        <time>2013-11-24T08:05:48Z</time>
      </trkpt>
      <trkpt lat="48.7304" lon="-3.3807">
        <ele>85.69</ele>
        <time>2013-11-24T08:05:50Z</time>
      </trkpt>
      <trkpt lat="48.73034" lon="-3.37954">
        <ele>84.73</ele>
        <time>2013-11-24T08:06:03Z</time>
      </trkpt>
      <trkpt lat="48.73003" lon="-3.37769">
        <ele>83.77</ele>
        <time>2013-11-24T08:06:24Z</time>
      </trkpt>
      <trkpt lat="48.72999" lon="-3.37763">
        <ele>83.77</ele>
        <time>2013-11-24T08:06:25Z</time>
      </trkpt>
      <trkpt lat="48.72949" lon="-3.37681">
        <ele>83.77</ele>
        <time>2013-11-24T08:06:38Z</time>
      </trkpt>
      <trkpt lat="48.72946" lon="-3.37673">
        <ele>83.77</ele>
        <time>2013-11-24T08:06:39Z</time>
      </trkpt>
      <trkpt lat="48.72943" lon="-3.37665">
        <ele>83.77</ele>
        <time>2013-11-24T08:06:40Z</time>
      </trkpt>
      <trkpt lat="48.7294" lon="-3.37656">
        <ele>83.77</ele>
        <time>2013-11-24T08:06:41Z</time>
      </trkpt>
      <trkpt lat="48.72938" lon="-3.37647">
        <ele>83.77</ele>
        <time>2013-11-24T08:06:42Z</time>
      </trkpt>
      <trkpt lat="48.72932" lon="-3.3762">
        <ele>83.29</ele>
        <time>2013-11-24T08:06:45Z</time>
      </trkpt>
      <trkpt lat="48.72931" lon="-3.3761">
        <ele>83.29</ele>
        <time>2013-11-24T08:06:46Z</time>
      </trkpt>
      <trkpt lat="48.72931" lon="-3.37601">
        <ele>83.29</ele>
        <time>2013-11-24T08:06:47Z</time>
      </trkpt>
      <trkpt lat="48.72931" lon="-3.37591">
        <ele>82.81</ele>
        <time>2013-11-24T08:06:48Z</time>
      </trkpt>
      <trkpt lat="48.72932" lon="-3.37581">
        <ele>82.81</ele>
        <time>2013-11-24T08:06:49Z</time>
      </trkpt>
      <trkpt lat="48.72933" lon="-3.37571">
        <ele>82.81</ele>
        <time>2013-11-24T08:06:50Z</time>
      </trkpt>
      <trkpt lat="48.72966" lon="-3.37428">
        <ele>80.89</ele>
        <time>2013-11-24T08:07:05Z</time>
      </trkpt>
      <trkpt lat="48.72972" lon="-3.37359">
        <ele>79.93</ele>
        <time>2013-11-24T08:07:12Z</time>
      </trkpt>
      <trkpt lat="48.72971" lon="-3.37349">
        <ele>79.93</ele>
        <time>2013-11-24T08:07:13Z</time>
      </trkpt>
      <trkpt lat="48.7297" lon="-3.37339">
        <ele>79.45</ele>
        <time>2013-11-24T08:07:14Z</time>
      </trkpt>
      <trkpt lat="48.72967" lon="-3.3733">
        <ele>79.45</ele>
        <time>2013-11-24T08:07:15Z</time>
      </trkpt>
      <trkpt lat="48.72964" lon="-3.37321">
        <ele>79.45</ele>
        <time>2013-11-24T08:07:16Z</time>
      </trkpt>
      <trkpt lat="48.72959" lon="-3.37314">
        <ele>79.45</ele>
        <time>2013-11-24T08:07:17Z</time>
      </trkpt>
      <trkpt lat="48.72954" lon="-3.37308">
        <ele>79.45</ele>
        <time>2013-11-24T08:07:18Z</time>
      </trkpt>
      <trkpt lat="48.72949" lon="-3.37302">
        <ele>79.45</ele>
        <time>2013-11-24T08:07:19Z</time>
      </trkpt>
      <trkpt lat="48.72944" lon="-3.37297">
        <ele>79.45</ele>
        <time>2013-11-24T08:07:20Z</time>
      </trkpt>
      <trkpt lat="48.72939" lon="-3.37292">
        <ele>79.45</ele>
        <time>2013-11-24T08:07:21Z</time>
      </trkpt>
      <trkpt lat="48.72844" lon="-3.37217">
        <ele>77.52</ele>
        <time>2013-11-24T08:07:37Z</time>
      </trkpt>
      <trkpt lat="48.7274" lon="-3.37179">
        <ele>76.08</ele>
        <time>2013-11-24T08:07:52Z</time>
      </trkpt>
      <trkpt lat="48.72679" lon="-3.37101">
        <ele>75.6</ele>
        <time>2013-11-24T08:08:04Z</time>
      </trkpt>
      <trkpt lat="48.72642" lon="-3.37033">
        <ele>74.16</ele>
        <time>2013-11-24T08:08:12Z</time>
      </trkpt>
      <trkpt lat="48.72639" lon="-3.37022">
        <ele>74.16</ele>
        <time>2013-11-24T08:08:13Z</time>
      </trkpt>
      <trkpt lat="48.72637" lon="-3.37011">
        <ele>73.68</ele>
        <time>2013-11-24T08:08:14Z</time>
      </trkpt>
      <trkpt lat="48.72635" lon="-3.37">
        <ele>73.68</ele>
        <time>2013-11-24T08:08:15Z</time>
      </trkpt>
      <trkpt lat="48.72633" lon="-3.36988">
        <ele>72.72</ele>
        <time>2013-11-24T08:08:16Z</time>
      </trkpt>
      <trkpt lat="48.72632" lon="-3.36977">
        <ele>72.72</ele>
        <time>2013-11-24T08:08:17Z</time>
      </trkpt>
      <trkpt lat="48.72631" lon="-3.36952">
        <ele>71.76</ele>
        <time>2013-11-24T08:08:19Z</time>
      </trkpt>
      <trkpt lat="48.72641" lon="-3.36823">
        <ele>68.39</ele>
        <time>2013-11-24T08:08:30Z</time>
      </trkpt>
      <trkpt lat="48.72653" lon="-3.36657">
        <ele>67.43</ele>
        <time>2013-11-24T08:08:45Z</time>
      </trkpt>
      <trkpt lat="48.72644" lon="-3.36604">
        <ele>67.43</ele>
        <time>2013-11-24T08:08:50Z</time>
      </trkpt>
      <trkpt lat="48.72641" lon="-3.36594">
        <ele>67.91</ele>
        <time>2013-11-24T08:08:51Z</time>
      </trkpt>
      <trkpt lat="48.72637" lon="-3.36585">
        <ele>67.91</ele>
        <time>2013-11-24T08:08:52Z</time>
      </trkpt>
      <trkpt lat="48.72586" lon="-3.36449">
        <ele>67.43</ele>
        <time>2013-11-24T08:09:07Z</time>
      </trkpt>
      <trkpt lat="48.72586" lon="-3.36438">
        <ele>67.43</ele>
        <time>2013-11-24T08:09:08Z</time>
      </trkpt>
      <trkpt lat="48.72587" lon="-3.36405">
        <ele>66.95</ele>
        <time>2013-11-24T08:09:11Z</time>
      </trkpt>
      <trkpt lat="48.72589" lon="-3.36394">
        <ele>66.95</ele>
        <time>2013-11-24T08:09:12Z</time>
      </trkpt>
      <trkpt lat="48.726" lon="-3.36353">
        <ele>65.51</ele>
        <time>2013-11-24T08:09:16Z</time>
      </trkpt>
      <trkpt lat="48.72604" lon="-3.36343">
        <ele>65.03</ele>
        <time>2013-11-24T08:09:17Z</time>
      </trkpt>
      <trkpt lat="48.72608" lon="-3.36334">
        <ele>65.03</ele>
        <time>2013-11-24T08:09:18Z</time>
      </trkpt>
      <trkpt lat="48.72661" lon="-3.36224">
        <ele>62.14</ele>
        <time>2013-11-24T08:09:30Z</time>
      </trkpt>
      <trkpt lat="48.72672" lon="-3.36177">
        <ele>58.78</ele>
        <time>2013-11-24T08:09:34Z</time>
      </trkpt>
      <trkpt lat="48.72686" lon="-3.36119">
        <ele>54.93</ele>
        <time>2013-11-24T08:09:38Z</time>
      </trkpt>
      <trkpt lat="48.72697" lon="-3.36052">
        <ele>51.57</ele>
        <time>2013-11-24T08:09:42Z</time>
      </trkpt>
      <trkpt lat="48.72698" lon="-3.35995">
        <ele>48.2</ele>
        <time>2013-11-24T08:09:45Z</time>
      </trkpt>
      <trkpt lat="48.72694" lon="-3.35935">
        <ele>45.32</ele>
        <time>2013-11-24T08:09:48Z</time>
      </trkpt>
      <trkpt lat="48.7269" lon="-3.35878">
        <ele>45.32</ele>
        <time>2013-11-24T08:09:51Z</time>
      </trkpt>
      <trkpt lat="48.72694" lon="-3.35807">
        <ele>47.24</ele>
        <time>2013-11-24T08:09:56Z</time>
      </trkpt>
      <trkpt lat="48.72702" lon="-3.35752">
        <ele>50.13</ele>
        <time>2013-11-24T08:10:02Z</time>
      </trkpt>
      <trkpt lat="48.72725" lon="-3.35642">
        <ele>53.01</ele>
        <time>2013-11-24T08:10:17Z</time>
      </trkpt>
      <trkpt lat="48.72736" lon="-3.35571">
        <ele>56.37</ele>
        <time>2013-11-24T08:10:26Z</time>
      </trkpt>
      <trkpt lat="48.72741" lon="-3.35555">
        <ele>55.41</ele>
        <time>2013-11-24T08:10:28Z</time>
      </trkpt>
      <trkpt lat="48.72786" lon="-3.35451">
        <ele>52.05</ele>
        <time>2013-11-24T08:10:40Z</time>
      </trkpt>
      <trkpt lat="48.72838" lon="-3.35305">
        <ele>49.16</ele>
        <time>2013-11-24T08:10:53Z</time>
      </trkpt>
      <trkpt lat="48.72863" lon="-3.35187">
        <ele>49.16</ele>
        <time>2013-11-24T08:11:04Z</time>
      </trkpt>
      <trkpt lat="48.72863" lon="-3.35177">
        <ele>49.65</ele>
        <time>2013-11-24T08:11:05Z</time>
      </trkpt>
      <trkpt lat="48.72863" lon="-3.35166">
        <ele>49.65</ele>
        <time>2013-11-24T08:11:06Z</time>
      </trkpt>
      <trkpt lat="48.72862" lon="-3.35157">
        <ele>50.13</ele>
        <time>2013-11-24T08:11:07Z</time>
      </trkpt>
      <trkpt lat="48.7286" lon="-3.35148">
        <ele>50.13</ele>
        <time>2013-11-24T08:11:08Z</time>
      </trkpt>
      <trkpt lat="48.72846" lon="-3.351">
        <ele>52.53</ele>
        <time>2013-11-24T08:11:14Z</time>
      </trkpt>
      <trkpt lat="48.72845" lon="-3.35092">
        <ele>53.49</ele>
        <time>2013-11-24T08:11:15Z</time>
      </trkpt>
      <trkpt lat="48.72844" lon="-3.35085">
        <ele>53.97</ele>
        <time>2013-11-24T08:11:16Z</time>
      </trkpt>
      <trkpt lat="48.72843" lon="-3.35026">
        <ele>56.86</ele>
        <time>2013-11-24T08:11:25Z</time>
      </trkpt>
      <trkpt lat="48.72843" lon="-3.35007">
        <ele>58.3</ele>
        <time>2013-11-24T08:11:28Z</time>
      </trkpt>
      <trkpt lat="48.72842" lon="-3.35001">
        <ele>58.3</ele>
        <time>2013-11-24T08:11:29Z</time>
      </trkpt>
      <trkpt lat="48.72842" lon="-3.34996">
        <ele>58.78</ele>
        <time>2013-11-24T08:11:30Z</time>
      </trkpt>
      <trkpt lat="48.72842" lon="-3.3499">
        <ele>59.26</ele>
        <time>2013-11-24T08:11:31Z</time>
      </trkpt>
      <trkpt lat="48.72842" lon="-3.34984">
        <ele>59.74</ele>
        <time>2013-11-24T08:11:32Z</time>
      </trkpt>
      <trkpt lat="48.72844" lon="-3.34942">
        <ele>63.1</ele>
        <time>2013-11-24T08:11:39Z</time>
      </trkpt>
      <trkpt lat="48.72843" lon="-3.3493">
        <ele>63.58</ele>
        <time>2013-11-24T08:11:41Z</time>
      </trkpt>
      <trkpt lat="48.72841" lon="-3.3488">
        <ele>66.95</ele>
        <time>2013-11-24T08:11:49Z</time>
      </trkpt>
      <trkpt lat="48.7284" lon="-3.34846">
        <ele>68.39</ele>
        <time>2013-11-24T08:11:54Z</time>
      </trkpt>
      <trkpt lat="48.72834" lon="-3.34769">
        <ele>71.27</ele>
        <time>2013-11-24T08:12:05Z</time>
      </trkpt>
      <trkpt lat="48.72809" lon="-3.34695">
        <ele>74.64</ele>
        <time>2013-11-24T08:12:17Z</time>
      </trkpt>
      <trkpt lat="48.72786" lon="-3.3464">
        <ele>77.52</ele>
        <time>2013-11-24T08:12:27Z</time>
      </trkpt>
      <trkpt lat="48.72758" lon="-3.34572">
        <ele>80.89</ele>
        <time>2013-11-24T08:12:39Z</time>
      </trkpt>
      <trkpt lat="48.72726" lon="-3.34501">
        <ele>84.25</ele>
        <time>2013-11-24T08:12:51Z</time>
      </trkpt>
      <trkpt lat="48.72677" lon="-3.34398">
        <ele>87.14</ele>
        <time>2013-11-24T08:13:08Z</time>
      </trkpt>
      <trkpt lat="48.72621" lon="-3.34291">
        <ele>90.5</ele>
        <time>2013-11-24T08:13:25Z</time>
      </trkpt>
      <trkpt lat="48.72568" lon="-3.3418">
        <ele>92.9</ele>
        <time>2013-11-24T08:13:41Z</time>
      </trkpt>
      <trkpt lat="48.72519" lon="-3.34048">
        <ele>94.35</ele>
        <time>2013-11-24T08:13:58Z</time>
      </trkpt>
      <trkpt lat="48.7247" lon="-3.33911">
        <ele>95.31</ele>
        <time>2013-11-24T08:14:14Z</time>
      </trkpt>
      <trkpt lat="48.72441" lon="-3.33834">
        <ele>96.27</ele>
        <time>2013-11-24T08:14:23Z</time>
      </trkpt>
      <trkpt lat="48.72437" lon="-3.33825">
        <ele>96.27</ele>
        <time>2013-11-24T08:14:24Z</time>
      </trkpt>
      <trkpt lat="48.72389" lon="-3.3369">
        <ele>97.23</ele>
        <time>2013-11-24T08:14:39Z</time>
      </trkpt>
      <trkpt lat="48.72366" lon="-3.33624">
        <ele>96.27</ele>
        <time>2013-11-24T08:14:46Z</time>
      </trkpt>
      <trkpt lat="48.72335" lon="-3.33486">
        <ele>96.27</ele>
        <time>2013-11-24T08:14:59Z</time>
      </trkpt>
      <trkpt lat="48.72319" lon="-3.33346">
        <ele>95.31</ele>
        <time>2013-11-24T08:15:12Z</time>
      </trkpt>
      <trkpt lat="48.72305" lon="-3.33208">
        <ele>91.94</ele>
        <time>2013-11-24T08:15:23Z</time>
      </trkpt>
      <trkpt lat="48.72292" lon="-3.33156">
        <ele>90.5</ele>
        <time>2013-11-24T08:15:27Z</time>
      </trkpt>
      <trkpt lat="48.7228" lon="-3.33084">
        <ele>88.58</ele>
        <time>2013-11-24T08:15:32Z</time>
      </trkpt>
      <trkpt lat="48.72259" lon="-3.32962">
        <ele>87.14</ele>
        <time>2013-11-24T08:15:40Z</time>
      </trkpt>
      <trkpt lat="48.72257" lon="-3.32947">
        <ele>86.66</ele>
        <time>2013-11-24T08:15:41Z</time>
      </trkpt>
      <trkpt lat="48.72237" lon="-3.32774">
        <ele>83.29</ele>
        <time>2013-11-24T08:15:53Z</time>
      </trkpt>
      <trkpt lat="48.7221" lon="-3.3264">
        <ele>82.33</ele>
        <time>2013-11-24T08:16:03Z</time>
      </trkpt>
      <trkpt lat="48.72203" lon="-3.32476">
        <ele>81.37</ele>
        <time>2013-11-24T08:16:15Z</time>
      </trkpt>
      <trkpt lat="48.72205" lon="-3.32282">
        <ele>80.41</ele>
        <time>2013-11-24T08:16:30Z</time>
      </trkpt>
      <trkpt lat="48.72205" lon="-3.32112">
        <ele>79.45</ele>
        <time>2013-11-24T08:16:43Z</time>
      </trkpt>
      <trkpt lat="48.72196" lon="-3.31943">
        <ele>76.56</ele>
        <time>2013-11-24T08:16:56Z</time>
      </trkpt>
      <trkpt lat="48.72195" lon="-3.31809">
        <ele>73.68</ele>
        <time>2013-11-24T08:17:06Z</time>
      </trkpt>
      <trkpt lat="48.72187" lon="-3.31669">
        <ele>70.31</ele>
        <time>2013-11-24T08:17:16Z</time>
      </trkpt>
      <trkpt lat="48.72187" lon="-3.31485">
        <ele>67.91</ele>
        <time>2013-11-24T08:17:30Z</time>
      </trkpt>
      <trkpt lat="48.72196" lon="-3.31415">
        <ele>65.03</ele>
        <time>2013-11-24T08:17:35Z</time>
      </trkpt>
      <trkpt lat="48.72201" lon="-3.31369">
        <ele>61.66</ele>
        <time>2013-11-24T08:17:38Z</time>
      </trkpt>
      <trkpt lat="48.72206" lon="-3.313">
        <ele>57.82</ele>
        <time>2013-11-24T08:17:42Z</time>
      </trkpt>
      <trkpt lat="48.72209" lon="-3.31264">
        <ele>56.37</ele>
        <time>2013-11-24T08:17:44Z</time>
      </trkpt>
      <trkpt lat="48.72208" lon="-3.31245">
        <ele>55.89</ele>
        <time>2013-11-24T08:17:45Z</time>
      </trkpt>
      <trkpt lat="48.72207" lon="-3.31226">
        <ele>55.89</ele>
        <time>2013-11-24T08:17:46Z</time>
      </trkpt>
      <trkpt lat="48.72197" lon="-3.31177">
        <ele>56.37</ele>
        <time>2013-11-24T08:17:49Z</time>
      </trkpt>
      <trkpt lat="48.72192" lon="-3.31164">
        <ele>56.86</ele>
        <time>2013-11-24T08:17:50Z</time>
      </trkpt>
      <trkpt lat="48.72188" lon="-3.31152">
        <ele>57.34</ele>
        <time>2013-11-24T08:17:51Z</time>
      </trkpt>
      <trkpt lat="48.72168" lon="-3.3109">
        <ele>61.18</ele>
        <time>2013-11-24T08:17:57Z</time>
      </trkpt>
      <trkpt lat="48.72163" lon="-3.31074">
        <ele>62.14</ele>
        <time>2013-11-24T08:17:59Z</time>
      </trkpt>
      <trkpt lat="48.72127" lon="-3.30983">
        <ele>65.03</ele>
        <time>2013-11-24T08:18:11Z</time>
      </trkpt>
      <trkpt lat="48.72094" lon="-3.30918">
        <ele>68.39</ele>
        <time>2013-11-24T08:18:21Z</time>
      </trkpt>
      <trkpt lat="48.7207" lon="-3.30874">
        <ele>70.79</ele>
        <time>2013-11-24T08:18:28Z</time>
      </trkpt>
      <trkpt lat="48.7205" lon="-3.30844">
        <ele>71.76</ele>
        <time>2013-11-24T08:18:33Z</time>
      </trkpt>
      <trkpt lat="48.71997" lon="-3.30767">
        <ele>74.64</ele>
        <time>2013-11-24T08:18:46Z</time>
      </trkpt>
      <trkpt lat="48.71944" lon="-3.30667">
        <ele>76.56</ele>
        <time>2013-11-24T08:19:01Z</time>
      </trkpt>
      <trkpt lat="48.7189" lon="-3.30557">
        <ele>76.56</ele>
        <time>2013-11-24T08:19:15Z</time>
      </trkpt>
      <trkpt lat="48.71836" lon="-3.30423">
        <ele>77.52</ele>
        <time>2013-11-24T08:19:31Z</time>
      </trkpt>
      <trkpt lat="48.71788" lon="-3.30281">
        <ele>79.45</ele>
        <time>2013-11-24T08:19:48Z</time>
      </trkpt>
      <trkpt lat="48.71746" lon="-3.30127">
        <ele>81.85</ele>
        <time>2013-11-24T08:20:06Z</time>
      </trkpt>
      <trkpt lat="48.7171" lon="-3.29975">
        <ele>85.21</ele>
        <time>2013-11-24T08:20:23Z</time>
      </trkpt>
      <trkpt lat="48.71682" lon="-3.29813">
        <ele>88.1</ele>
        <time>2013-11-24T08:20:40Z</time>
      </trkpt>
      <trkpt lat="48.7164" lon="-3.29638">
        <ele>89.06</ele>
        <time>2013-11-24T08:20:58Z</time>
      </trkpt>
      <trkpt lat="48.71599" lon="-3.29509">
        <ele>90.02</ele>
        <time>2013-11-24T08:21:13Z</time>
      </trkpt>
      <trkpt lat="48.7156" lon="-3.29389">
        <ele>90.02</ele>
        <time>2013-11-24T08:21:30Z</time>
      </trkpt>
      <trkpt lat="48.71551" lon="-3.29366">
        <ele>90.02</ele>
        <time>2013-11-24T08:21:35Z</time>
      </trkpt>
      <trkpt lat="48.71548" lon="-3.29362">
        <ele>90.02</ele>
        <time>2013-11-24T08:21:36Z</time>
      </trkpt>
      <trkpt lat="48.71544" lon="-3.2936">
        <ele>90.02</ele>
        <time>2013-11-24T08:21:37Z</time>
      </trkpt>
      <trkpt lat="48.71539" lon="-3.29361">
        <ele>90.02</ele>
        <time>2013-11-24T08:21:38Z</time>
      </trkpt>
      <trkpt lat="48.71535" lon="-3.29363">
        <ele>90.02</ele>
        <time>2013-11-24T08:21:39Z</time>
      </trkpt>
      <trkpt lat="48.71531" lon="-3.29369">
        <ele>90.02</ele>
        <time>2013-11-24T08:21:40Z</time>
      </trkpt>
      <trkpt lat="48.71526" lon="-3.29374">
        <ele>90.02</ele>
        <time>2013-11-24T08:21:41Z</time>
      </trkpt>
      <trkpt lat="48.71452" lon="-3.29481">
        <ele>90.5</ele>
        <time>2013-11-24T08:21:57Z</time>
      </trkpt>
      <trkpt lat="48.7137" lon="-3.296">
        <ele>90.02</ele>
        <time>2013-11-24T08:22:13Z</time>
      </trkpt>
      <trkpt lat="48.71266" lon="-3.2975">
        <ele>89.06</ele>
        <time>2013-11-24T08:22:31Z</time>
      </trkpt>
      <trkpt lat="48.71158" lon="-3.2988">
        <ele>87.62</ele>
        <time>2013-11-24T08:22:47Z</time>
      </trkpt>
      <trkpt lat="48.71065" lon="-3.29999">
        <ele>87.14</ele>
        <time>2013-11-24T08:23:01Z</time>
      </trkpt>
      <trkpt lat="48.70974" lon="-3.30122">
        <ele>88.1</ele>
        <time>2013-11-24T08:23:15Z</time>
      </trkpt>
      <trkpt lat="48.70857" lon="-3.30207">
        <ele>85.69</ele>
        <time>2013-11-24T08:23:29Z</time>
      </trkpt>
      <trkpt lat="48.70755" lon="-3.3026">
        <ele>82.33</ele>
        <time>2013-11-24T08:23:40Z</time>
      </trkpt>
      <trkpt lat="48.70666" lon="-3.30325">
        <ele>78.97</ele>
        <time>2013-11-24T08:23:50Z</time>
      </trkpt>
      <trkpt lat="48.70574" lon="-3.30397">
        <ele>75.6</ele>
        <time>2013-11-24T08:24:00Z</time>
      </trkpt>
      <trkpt lat="48.70556" lon="-3.30413">
        <ele>74.64</ele>
        <time>2013-11-24T08:24:02Z</time>
      </trkpt>
      <trkpt lat="48.70462" lon="-3.30507">
        <ele>77.04</ele>
        <time>2013-11-24T08:24:14Z</time>
      </trkpt>
      <trkpt lat="48.70367" lon="-3.306">
        <ele>81.37</ele>
        <time>2013-11-24T08:24:28Z</time>
      </trkpt>
      <trkpt lat="48.70265" lon="-3.30723">
        <ele>81.85</ele>
        <time>2013-11-24T08:24:44Z</time>
      </trkpt>
      <trkpt lat="48.70162" lon="-3.30863">
        <ele>83.77</ele>
        <time>2013-11-24T08:25:02Z</time>
      </trkpt>
      <trkpt lat="48.70083" lon="-3.30996">
        <ele>84.73</ele>
        <time>2013-11-24T08:25:17Z</time>
      </trkpt>
      <trkpt lat="48.70001" lon="-3.31121">
        <ele>84.25</ele>
        <time>2013-11-24T08:25:32Z</time>
      </trkpt>
      <trkpt lat="48.6999" lon="-3.31137">
        <ele>83.77</ele>
        <time>2013-11-24T08:25:34Z</time>
      </trkpt>
      <trkpt lat="48.69913" lon="-3.31242">
        <ele>85.21</ele>
        <time>2013-11-24T08:25:47Z</time>
      </trkpt>
      <trkpt lat="48.69812" lon="-3.31356">
        <ele>87.14</ele>
        <time>2013-11-24T08:26:03Z</time>
      </trkpt>
      <trkpt lat="48.69712" lon="-3.31458">
        <ele>87.14</ele>
        <time>2013-11-24T08:26:19Z</time>
      </trkpt>
      <trkpt lat="48.69625" lon="-3.31566">
        <ele>88.58</ele>
        <time>2013-11-24T08:26:34Z</time>
      </trkpt>
      <trkpt lat="48.69548" lon="-3.31657">
        <ele>90.98</ele>
        <time>2013-11-24T08:26:47Z</time>
      </trkpt>
      <trkpt lat="48.69531" lon="-3.31675">
        <ele>92.42</ele>
        <time>2013-11-24T08:26:50Z</time>
      </trkpt>
      <trkpt lat="48.69525" lon="-3.3168">
        <ele>92.42</ele>
        <time>2013-11-24T08:26:51Z</time>
      </trkpt>
      <trkpt lat="48.69473" lon="-3.31719">
        <ele>95.79</ele>
        <time>2013-11-24T08:27:00Z</time>
      </trkpt>
      <trkpt lat="48.69461" lon="-3.31726">
        <ele>96.27</ele>
        <time>2013-11-24T08:27:02Z</time>
      </trkpt>
      <trkpt lat="48.69367" lon="-3.31737">
        <ele>96.75</ele>
        <time>2013-11-24T08:27:15Z</time>
      </trkpt>
      <trkpt lat="48.69244" lon="-3.31765">
        <ele>98.67</ele>
        <time>2013-11-24T08:27:31Z</time>
      </trkpt>
      <trkpt lat="48.69127" lon="-3.31785">
        <ele>99.63</ele>
        <time>2013-11-24T08:27:46Z</time>
      </trkpt>
      <trkpt lat="48.6901" lon="-3.31772">
        <ele>100.6</ele>
        <time>2013-11-24T08:28:02Z</time>
      </trkpt>
      <trkpt lat="48.68911" lon="-3.31754">
        <ele>101.08</ele>
        <time>2013-11-24T08:28:15Z</time>
      </trkpt>
      <trkpt lat="48.68777" lon="-3.31742">
        <ele>102.52</ele>
        <time>2013-11-24T08:28:32Z</time>
      </trkpt>
      <trkpt lat="48.68692" lon="-3.3174">
        <ele>104.92</ele>
        <time>2013-11-24T08:28:43Z</time>
      </trkpt>
      <trkpt lat="48.68685" lon="-3.31742">
        <ele>105.4</ele>
        <time>2013-11-24T08:28:44Z</time>
      </trkpt>
      <trkpt lat="48.68584" lon="-3.31797">
        <ele>108.29</ele>
        <time>2013-11-24T08:28:59Z</time>
      </trkpt>
      <trkpt lat="48.68477" lon="-3.31813">
        <ele>107.81</ele>
        <time>2013-11-24T08:29:13Z</time>
      </trkpt>
      <trkpt lat="48.68347" lon="-3.31826">
        <ele>110.21</ele>
        <time>2013-11-24T08:29:30Z</time>
      </trkpt>
      <trkpt lat="48.6823" lon="-3.31864">
        <ele>110.69</ele>
        <time>2013-11-24T08:29:45Z</time>
      </trkpt>
      <trkpt lat="48.68107" lon="-3.31887">
        <ele>111.65</ele>
        <time>2013-11-24T08:30:00Z</time>
      </trkpt>
      <trkpt lat="48.67981" lon="-3.31879">
        <ele>111.65</ele>
        <time>2013-11-24T08:30:15Z</time>
      </trkpt>
      <trkpt lat="48.67859" lon="-3.31887">
        <ele>111.65</ele>
        <time>2013-11-24T08:30:29Z</time>
      </trkpt>
      <trkpt lat="48.67758" lon="-3.31978">
        <ele>111.17</ele>
        <time>2013-11-24T08:30:42Z</time>
      </trkpt>
      <trkpt lat="48.6766" lon="-3.32093">
        <ele>111.17</ele>
        <time>2013-11-24T08:30:56Z</time>
      </trkpt>
      <trkpt lat="48.67529" lon="-3.32219">
        <ele>111.17</ele>
        <time>2013-11-24T08:31:14Z</time>
      </trkpt>
      <trkpt lat="48.67406" lon="-3.32333">
        <ele>111.17</ele>
        <time>2013-11-24T08:31:31Z</time>
      </trkpt>
      <trkpt lat="48.67324" lon="-3.32459">
        <ele>112.13</ele>
        <time>2013-11-24T08:31:45Z</time>
      </trkpt>
      <trkpt lat="48.67212" lon="-3.3265">
        <ele>111.17</ele>
        <time>2013-11-24T08:32:04Z</time>
      </trkpt>
      <trkpt lat="48.67106" lon="-3.32809">
        <ele>110.21</ele>
        <time>2013-11-24T08:32:21Z</time>
      </trkpt>
      <trkpt lat="48.67006" lon="-3.32976">
        <ele>110.69</ele>
        <time>2013-11-24T08:32:37Z</time>
      </trkpt>
      <trkpt lat="48.66907" lon="-3.33115">
        <ele>110.21</ele>
        <time>2013-11-24T08:32:52Z</time>
      </trkpt>
      <trkpt lat="48.66762" lon="-3.33265">
        <ele>109.73</ele>
        <time>2013-11-24T08:33:11Z</time>
      </trkpt>
      <trkpt lat="48.66638" lon="-3.33395">
        <ele>108.29</ele>
        <time>2013-11-24T08:33:28Z</time>
      </trkpt>
      <trkpt lat="48.66534" lon="-3.33511">
        <ele>107.32</ele>
        <time>2013-11-24T08:33:43Z</time>
      </trkpt>
      <trkpt lat="48.66428" lon="-3.33628">
        <ele>108.29</ele>
        <time>2013-11-24T08:33:59Z</time>
      </trkpt>
      <trkpt lat="48.6633" lon="-3.3371">
        <ele>108.77</ele>
        <time>2013-11-24T08:34:14Z</time>
      </trkpt>
      <trkpt lat="48.66276" lon="-3.33775">
        <ele>109.25</ele>
        <time>2013-11-24T08:34:24Z</time>
      </trkpt>
      <trkpt lat="48.66273" lon="-3.33781">
        <ele>109.25</ele>
        <time>2013-11-24T08:34:25Z</time>
      </trkpt>
      <trkpt lat="48.66271" lon="-3.33787">
        <ele>109.25</ele>
        <time>2013-11-24T08:34:26Z</time>
      </trkpt>
      <trkpt lat="48.6627" lon="-3.33792">
        <ele>109.25</ele>
        <time>2013-11-24T08:34:27Z</time>
      </trkpt>
      <trkpt lat="48.66269" lon="-3.33796">
        <ele>109.25</ele>
        <time>2013-11-24T08:34:28Z</time>
      </trkpt>
      <trkpt lat="48.66269" lon="-3.33801">
        <ele>110.21</ele>
        <time>2013-11-24T08:34:29Z</time>
      </trkpt>
      <trkpt lat="48.66269" lon="-3.33805">
        <ele>109.73</ele>
        <time>2013-11-24T08:34:30Z</time>
      </trkpt>
      <trkpt lat="48.66268" lon="-3.3381">
        <ele>109.73</ele>
        <time>2013-11-24T08:34:31Z</time>
      </trkpt>
      <trkpt lat="48.66266" lon="-3.33816">
        <ele>109.73</ele>
        <time>2013-11-24T08:34:32Z</time>
      </trkpt>
      <trkpt lat="48.66264" lon="-3.33822">
        <ele>109.73</ele>
        <time>2013-11-24T08:34:33Z</time>
      </trkpt>
      <trkpt lat="48.6626" lon="-3.33826">
        <ele>109.73</ele>
        <time>2013-11-24T08:34:34Z</time>
      </trkpt>
      <trkpt lat="48.66254" lon="-3.33829">
        <ele>109.73</ele>
        <time>2013-11-24T08:34:35Z</time>
      </trkpt>
      <trkpt lat="48.66249" lon="-3.3383">
        <ele>109.73</ele>
        <time>2013-11-24T08:34:36Z</time>
      </trkpt>
      <trkpt lat="48.66243" lon="-3.3383">
        <ele>109.73</ele>
        <time>2013-11-24T08:34:37Z</time>
      </trkpt>
      <trkpt lat="48.66146" lon="-3.33837">
        <ele>110.69</ele>
        <time>2013-11-24T08:34:51Z</time>
      </trkpt>
      <trkpt lat="48.66022" lon="-3.33826">
        <ele>111.65</ele>
        <time>2013-11-24T08:35:07Z</time>
      </trkpt>
      <trkpt lat="48.65951" lon="-3.33764">
        <ele>113.57</ele>
        <time>2013-11-24T08:35:18Z</time>
      </trkpt>
      <trkpt lat="48.65911" lon="-3.33719">
        <ele>115.5</ele>
        <time>2013-11-24T08:35:26Z</time>
      </trkpt>
      <trkpt lat="48.65906" lon="-3.33715">
        <ele>115.98</ele>
        <time>2013-11-24T08:35:27Z</time>
      </trkpt>
      <trkpt lat="48.659" lon="-3.33712">
        <ele>115.98</ele>
        <time>2013-11-24T08:35:28Z</time>
      </trkpt>
      <trkpt lat="48.65894" lon="-3.3371">
        <ele>116.46</ele>
        <time>2013-11-24T08:35:29Z</time>
      </trkpt>
      <trkpt lat="48.65888" lon="-3.33708">
        <ele>116.94</ele>
        <time>2013-11-24T08:35:30Z</time>
      </trkpt>
      <trkpt lat="48.65882" lon="-3.33708">
        <ele>116.94</ele>
        <time>2013-11-24T08:35:31Z</time>
      </trkpt>
      <trkpt lat="48.65876" lon="-3.33708">
        <ele>116.94</ele>
        <time>2013-11-24T08:35:32Z</time>
      </trkpt>
      <trkpt lat="48.6587" lon="-3.33709">
        <ele>116.94</ele>
        <time>2013-11-24T08:35:33Z</time>
      </trkpt>
      <trkpt lat="48.65863" lon="-3.33711">
        <ele>117.42</ele>
        <time>2013-11-24T08:35:34Z</time>
      </trkpt>
      <trkpt lat="48.65857" lon="-3.33714">
        <ele>117.42</ele>
        <time>2013-11-24T08:35:35Z</time>
      </trkpt>
      <trkpt lat="48.65851" lon="-3.33718">
        <ele>117.42</ele>
        <time>2013-11-24T08:35:36Z</time>
      </trkpt>
      <trkpt lat="48.65846" lon="-3.33723">
        <ele>117.42</ele>
        <time>2013-11-24T08:35:37Z</time>
      </trkpt>
      <trkpt lat="48.6584" lon="-3.3373">
        <ele>117.42</ele>
        <time>2013-11-24T08:35:38Z</time>
      </trkpt>
      <trkpt lat="48.65835" lon="-3.33736">
        <ele>117.42</ele>
        <time>2013-11-24T08:35:39Z</time>
      </trkpt>
      <trkpt lat="48.65831" lon="-3.33744">
        <ele>117.42</ele>
        <time>2013-11-24T08:35:40Z</time>
      </trkpt>
      <trkpt lat="48.6578" lon="-3.33819">
        <ele>116.46</ele>
        <time>2013-11-24T08:35:51Z</time>
      </trkpt>
      <trkpt lat="48.65776" lon="-3.33828">
        <ele>116.46</ele>
        <time>2013-11-24T08:35:52Z</time>
      </trkpt>
      <trkpt lat="48.65774" lon="-3.33837">
        <ele>116.46</ele>
        <time>2013-11-24T08:35:53Z</time>
      </trkpt>
      <trkpt lat="48.65772" lon="-3.33846">
        <ele>116.46</ele>
        <time>2013-11-24T08:35:54Z</time>
      </trkpt>
      <trkpt lat="48.65771" lon="-3.33855">
        <ele>116.46</ele>
        <time>2013-11-24T08:35:55Z</time>
      </trkpt>
      <trkpt lat="48.65769" lon="-3.33864">
        <ele>116.46</ele>
        <time>2013-11-24T08:35:56Z</time>
      </trkpt>
      <trkpt lat="48.65765" lon="-3.33872">
        <ele>115.98</ele>
        <time>2013-11-24T08:35:57Z</time>
      </trkpt>
      <trkpt lat="48.65759" lon="-3.33878">
        <ele>115.98</ele>
        <time>2013-11-24T08:35:58Z</time>
      </trkpt>
      <trkpt lat="48.65752" lon="-3.3388">
        <ele>115.5</ele>
        <time>2013-11-24T08:35:59Z</time>
      </trkpt>
      <trkpt lat="48.65745" lon="-3.3388">
        <ele>115.98</ele>
        <time>2013-11-24T08:36:00Z</time>
      </trkpt>
      <trkpt lat="48.65738" lon="-3.33881">
        <ele>115.5</ele>
        <time>2013-11-24T08:36:01Z</time>
      </trkpt>
      <trkpt lat="48.6573" lon="-3.33885">
        <ele>115.01</ele>
        <time>2013-11-24T08:36:02Z</time>
      </trkpt>
      <trkpt lat="48.65722" lon="-3.3389">
        <ele>115.01</ele>
        <time>2013-11-24T08:36:03Z</time>
      </trkpt>
      <trkpt lat="48.65715" lon="-3.33895">
        <ele>115.01</ele>
        <time>2013-11-24T08:36:04Z</time>
      </trkpt>
      <trkpt lat="48.65623" lon="-3.33935">
        <ele>114.53</ele>
        <time>2013-11-24T08:36:16Z</time>
      </trkpt>
      <trkpt lat="48.65543" lon="-3.33991">
        <ele>115.5</ele>
        <time>2013-11-24T08:36:27Z</time>
      </trkpt>
      <trkpt lat="48.6551" lon="-3.34038">
        <ele>115.98</ele>
        <time>2013-11-24T08:36:33Z</time>
      </trkpt>
      <trkpt lat="48.65506" lon="-3.34048">
        <ele>116.46</ele>
        <time>2013-11-24T08:36:34Z</time>
      </trkpt>
      <trkpt lat="48.65503" lon="-3.34058">
        <ele>116.46</ele>
        <time>2013-11-24T08:36:35Z</time>
      </trkpt>
      <trkpt lat="48.65461" lon="-3.34195">
        <ele>116.94</ele>
        <time>2013-11-24T08:36:48Z</time>
      </trkpt>
      <trkpt lat="48.65393" lon="-3.34346">
        <ele>118.86</ele>
        <time>2013-11-24T08:37:03Z</time>
      </trkpt>
      <trkpt lat="48.65354" lon="-3.34411">
        <ele>117.9</ele>
        <time>2013-11-24T08:37:10Z</time>
      </trkpt>
      <trkpt lat="48.65347" lon="-3.34418">
        <ele>118.38</ele>
        <time>2013-11-24T08:37:11Z</time>
      </trkpt>
      <trkpt lat="48.65258" lon="-3.34503">
        <ele>117.42</ele>
        <time>2013-11-24T08:37:24Z</time>
      </trkpt>
      <trkpt lat="48.65229" lon="-3.34541">
        <ele>117.42</ele>
        <time>2013-11-24T08:37:29Z</time>
      </trkpt>
      <trkpt lat="48.65223" lon="-3.3455">
        <ele>117.42</ele>
        <time>2013-11-24T08:37:30Z</time>
      </trkpt>
      <trkpt lat="48.65217" lon="-3.34557">
        <ele>116.94</ele>
        <time>2013-11-24T08:37:31Z</time>
      </trkpt>
      <trkpt lat="48.65133" lon="-3.34635">
        <ele>117.42</ele>
        <time>2013-11-24T08:37:43Z</time>
      </trkpt>
      <trkpt lat="48.65018" lon="-3.347">
        <ele>117.9</ele>
        <time>2013-11-24T08:37:59Z</time>
      </trkpt>
      <trkpt lat="48.64898" lon="-3.34766">
        <ele>117.42</ele>
        <time>2013-11-24T08:38:15Z</time>
      </trkpt>
      <trkpt lat="48.64809" lon="-3.34825">
        <ele>116.94</ele>
        <time>2013-11-24T08:38:27Z</time>
      </trkpt>
      <trkpt lat="48.64795" lon="-3.34842">
        <ele>116.46</ele>
        <time>2013-11-24T08:38:29Z</time>
      </trkpt>
      <trkpt lat="48.6479" lon="-3.34851">
        <ele>117.9</ele>
        <time>2013-11-24T08:38:30Z</time>
      </trkpt>
      <trkpt lat="48.64785" lon="-3.34862">
        <ele>116.94</ele>
        <time>2013-11-24T08:38:31Z</time>
      </trkpt>
      <trkpt lat="48.64742" lon="-3.35009">
        <ele>114.05</ele>
        <time>2013-11-24T08:38:43Z</time>
      </trkpt>
      <trkpt lat="48.64692" lon="-3.35223">
        <ele>112.61</ele>
        <time>2013-11-24T08:38:59Z</time>
      </trkpt>
      <trkpt lat="48.64658" lon="-3.35392">
        <ele>113.09</ele>
        <time>2013-11-24T08:39:12Z</time>
      </trkpt>
      <trkpt lat="48.64596" lon="-3.35564">
        <ele>111.17</ele>
        <time>2013-11-24T08:39:26Z</time>
      </trkpt>
      <trkpt lat="48.64542" lon="-3.35687">
        <ele>111.17</ele>
        <time>2013-11-24T08:39:37Z</time>
      </trkpt>
      <trkpt lat="48.64497" lon="-3.35833">
        <ele>112.13</ele>
        <time>2013-11-24T08:39:49Z</time>
      </trkpt>
      <trkpt lat="48.64433" lon="-3.35977">
        <ele>109.25</ele>
        <time>2013-11-24T08:40:02Z</time>
      </trkpt>
      <trkpt lat="48.64401" lon="-3.36117">
        <ele>108.29</ele>
        <time>2013-11-24T08:40:13Z</time>
      </trkpt>
      <trkpt lat="48.64383" lon="-3.36165">
        <ele>107.32</ele>
        <time>2013-11-24T08:40:17Z</time>
      </trkpt>
      <trkpt lat="48.6438" lon="-3.36178">
        <ele>106.84</ele>
        <time>2013-11-24T08:40:18Z</time>
      </trkpt>
      <trkpt lat="48.64377" lon="-3.36191">
        <ele>105.4</ele>
        <time>2013-11-24T08:40:19Z</time>
      </trkpt>
      <trkpt lat="48.64375" lon="-3.36206">
        <ele>104.92</ele>
        <time>2013-11-24T08:40:20Z</time>
      </trkpt>
      <trkpt lat="48.64373" lon="-3.36221">
        <ele>103.96</ele>
        <time>2013-11-24T08:40:21Z</time>
      </trkpt>
      <trkpt lat="48.64368" lon="-3.3627">
        <ele>100.6</ele>
        <time>2013-11-24T08:40:24Z</time>
      </trkpt>
      <trkpt lat="48.64358" lon="-3.36342">
        <ele>97.23</ele>
        <time>2013-11-24T08:40:28Z</time>
      </trkpt>
      <trkpt lat="48.64326" lon="-3.36481">
        <ele>96.75</ele>
        <time>2013-11-24T08:40:37Z</time>
      </trkpt>
      <trkpt lat="48.64307" lon="-3.36564">
        <ele>99.63</ele>
        <time>2013-11-24T08:40:46Z</time>
      </trkpt>
      <trkpt lat="48.64303" lon="-3.36584">
        <ele>101.56</ele>
        <time>2013-11-24T08:40:49Z</time>
      </trkpt>
      <trkpt lat="48.64291" lon="-3.36639">
        <ele>104.44</ele>
        <time>2013-11-24T08:40:57Z</time>
      </trkpt>
      <trkpt lat="48.64279" lon="-3.3668">
        <ele>106.84</ele>
        <time>2013-11-24T08:41:03Z</time>
      </trkpt>
      <trkpt lat="48.64259" lon="-3.36742">
        <ele>110.21</ele>
        <time>2013-11-24T08:41:12Z</time>
      </trkpt>
      <trkpt lat="48.64241" lon="-3.36796">
        <ele>112.13</ele>
        <time>2013-11-24T08:41:19Z</time>
      </trkpt>
      <trkpt lat="48.6424" lon="-3.36803">
        <ele>113.09</ele>
        <time>2013-11-24T08:41:20Z</time>
      </trkpt>
      <trkpt lat="48.64226" lon="-3.36878">
        <ele>115.98</ele>
        <time>2013-11-24T08:41:30Z</time>
      </trkpt>
      <trkpt lat="48.64207" lon="-3.3698">
        <ele>119.34</ele>
        <time>2013-11-24T08:41:44Z</time>
      </trkpt>
      <trkpt lat="48.64198" lon="-3.37061">
        <ele>122.71</ele>
        <time>2013-11-24T08:41:55Z</time>
      </trkpt>
      <trkpt lat="48.64194" lon="-3.37094">
        <ele>124.63</ele>
        <time>2013-11-24T08:42:00Z</time>
      </trkpt>
      <trkpt lat="48.64191" lon="-3.37106">
        <ele>125.11</ele>
        <time>2013-11-24T08:42:02Z</time>
      </trkpt>
      <trkpt lat="48.6419" lon="-3.37112">
        <ele>125.59</ele>
        <time>2013-11-24T08:42:03Z</time>
      </trkpt>
      <trkpt lat="48.64185" lon="-3.37122">
        <ele>125.59</ele>
        <time>2013-11-24T08:42:05Z</time>
      </trkpt>
      <trkpt lat="48.64182" lon="-3.37126">
        <ele>126.07</ele>
        <time>2013-11-24T08:42:06Z</time>
      </trkpt>
      <trkpt lat="48.6416" lon="-3.37151">
        <ele>126.07</ele>
        <time>2013-11-24T08:42:12Z</time>
      </trkpt>
      <trkpt lat="48.64157" lon="-3.37155">
        <ele>126.07</ele>
        <time>2013-11-24T08:42:13Z</time>
      </trkpt>
      <trkpt lat="48.64118" lon="-3.37195">
        <ele>125.59</ele>
        <time>2013-11-24T08:42:22Z</time>
      </trkpt>
      <trkpt lat="48.64114" lon="-3.37198">
        <ele>125.11</ele>
        <time>2013-11-24T08:42:23Z</time>
      </trkpt>
      <trkpt lat="48.64108" lon="-3.372">
        <ele>125.11</ele>
        <time>2013-11-24T08:42:24Z</time>
      </trkpt>
      <trkpt lat="48.64103" lon="-3.372">
        <ele>124.63</ele>
        <time>2013-11-24T08:42:25Z</time>
      </trkpt>
      <trkpt lat="48.64099" lon="-3.37198">
        <ele>124.63</ele>
        <time>2013-11-24T08:42:26Z</time>
      </trkpt>
      <trkpt lat="48.64095" lon="-3.37195">
        <ele>124.63</ele>
        <time>2013-11-24T08:42:27Z</time>
      </trkpt>
      <trkpt lat="48.64091" lon="-3.37191">
        <ele>125.11</ele>
        <time>2013-11-24T08:42:28Z</time>
      </trkpt>
      <trkpt lat="48.64088" lon="-3.37188">
        <ele>125.11</ele>
        <time>2013-11-24T08:42:29Z</time>
      </trkpt>
      <trkpt lat="48.64075" lon="-3.37179">
        <ele>125.59</ele>
        <time>2013-11-24T08:42:33Z</time>
      </trkpt>
      <trkpt lat="48.64072" lon="-3.37181">
        <ele>125.59</ele>
        <time>2013-11-24T08:42:34Z</time>
      </trkpt>
      <trkpt lat="48.64069" lon="-3.37184">
        <ele>125.11</ele>
        <time>2013-11-24T08:42:35Z</time>
      </trkpt>
      <trkpt lat="48.64023" lon="-3.37264">
        <ele>122.22</ele>
        <time>2013-11-24T08:42:43Z</time>
      </trkpt>
      <trkpt lat="48.63982" lon="-3.37356">
        <ele>118.38</ele>
        <time>2013-11-24T08:42:51Z</time>
      </trkpt>
      <trkpt lat="48.63974" lon="-3.37382">
        <ele>117.42</ele>
        <time>2013-11-24T08:42:53Z</time>
      </trkpt>
      <trkpt lat="48.63951" lon="-3.37471">
        <ele>114.05</ele>
        <time>2013-11-24T08:43:00Z</time>
      </trkpt>
      <trkpt lat="48.63941" lon="-3.37505">
        <ele>112.61</ele>
        <time>2013-11-24T08:43:03Z</time>
      </trkpt>
      <trkpt lat="48.63919" lon="-3.3757">
        <ele>109.25</ele>
        <time>2013-11-24T08:43:08Z</time>
      </trkpt>
      <trkpt lat="48.63916" lon="-3.37585">
        <ele>108.77</ele>
        <time>2013-11-24T08:43:09Z</time>
      </trkpt>
      <trkpt lat="48.63914" lon="-3.376">
        <ele>108.29</ele>
        <time>2013-11-24T08:43:10Z</time>
      </trkpt>
      <trkpt lat="48.63898" lon="-3.37727">
        <ele>111.17</ele>
        <time>2013-11-24T08:43:20Z</time>
      </trkpt>
      <trkpt lat="48.6386" lon="-3.37885">
        <ele>114.05</ele>
        <time>2013-11-24T08:43:34Z</time>
      </trkpt>
      <trkpt lat="48.63831" lon="-3.38016">
        <ele>115.01</ele>
        <time>2013-11-24T08:43:46Z</time>
      </trkpt>
      <trkpt lat="48.63792" lon="-3.38143">
        <ele>116.46</ele>
        <time>2013-11-24T08:43:59Z</time>
      </trkpt>
      <trkpt lat="48.63754" lon="-3.38251">
        <ele>116.94</ele>
        <time>2013-11-24T08:44:11Z</time>
      </trkpt>
      <trkpt lat="48.63752" lon="-3.38259">
        <ele>116.94</ele>
        <time>2013-11-24T08:44:12Z</time>
      </trkpt>
      <trkpt lat="48.6375" lon="-3.38268">
        <ele>117.42</ele>
        <time>2013-11-24T08:44:13Z</time>
      </trkpt>
      <trkpt lat="48.63741" lon="-3.38308">
        <ele>117.42</ele>
        <time>2013-11-24T08:44:17Z</time>
      </trkpt>
      <trkpt lat="48.63727" lon="-3.38476">
        <ele>117.9</ele>
        <time>2013-11-24T08:44:33Z</time>
      </trkpt>
      <trkpt lat="48.63718" lon="-3.38558">
        <ele>117.42</ele>
        <time>2013-11-24T08:44:40Z</time>
      </trkpt>
      <trkpt lat="48.63681" lon="-3.38731">
        <ele>118.86</ele>
        <time>2013-11-24T08:44:55Z</time>
      </trkpt>
      <trkpt lat="48.63675" lon="-3.3892">
        <ele>116.94</ele>
        <time>2013-11-24T08:45:10Z</time>
      </trkpt>
      <trkpt lat="48.63649" lon="-3.39066">
        <ele>114.53</ele>
        <time>2013-11-24T08:45:22Z</time>
      </trkpt>
      <trkpt lat="48.63624" lon="-3.39188">
        <ele>110.69</ele>
        <time>2013-11-24T08:45:31Z</time>
      </trkpt>
      <trkpt lat="48.6362" lon="-3.39218">
        <ele>109.73</ele>
        <time>2013-11-24T08:45:33Z</time>
      </trkpt>
      <trkpt lat="48.63593" lon="-3.39407">
        <ele>108.29</ele>
        <time>2013-11-24T08:45:47Z</time>
      </trkpt>
      <trkpt lat="48.63593" lon="-3.39496">
        <ele>106.84</ele>
        <time>2013-11-24T08:45:54Z</time>
      </trkpt>
      <trkpt lat="48.63603" lon="-3.39581">
        <ele>106.84</ele>
        <time>2013-11-24T08:46:01Z</time>
      </trkpt>
      <trkpt lat="48.63603" lon="-3.39593">
        <ele>106.84</ele>
        <time>2013-11-24T08:46:02Z</time>
      </trkpt>
      <trkpt lat="48.63602" lon="-3.39605">
        <ele>106.84</ele>
        <time>2013-11-24T08:46:03Z</time>
      </trkpt>
      <trkpt lat="48.63584" lon="-3.39733">
        <ele>106.36</ele>
        <time>2013-11-24T08:46:14Z</time>
      </trkpt>
      <trkpt lat="48.63585" lon="-3.39745">
        <ele>105.88</ele>
        <time>2013-11-24T08:46:15Z</time>
      </trkpt>
      <trkpt lat="48.63586" lon="-3.39756">
        <ele>105.4</ele>
        <time>2013-11-24T08:46:16Z</time>
      </trkpt>
      <trkpt lat="48.63589" lon="-3.39767">
        <ele>104.92</ele>
        <time>2013-11-24T08:46:17Z</time>
      </trkpt>
      <trkpt lat="48.63592" lon="-3.39778">
        <ele>104.92</ele>
        <time>2013-11-24T08:46:18Z</time>
      </trkpt>
      <trkpt lat="48.63596" lon="-3.3979">
        <ele>104.44</ele>
        <time>2013-11-24T08:46:19Z</time>
      </trkpt>
      <trkpt lat="48.63644" lon="-3.39881">
        <ele>102.04</ele>
        <time>2013-11-24T08:46:28Z</time>
      </trkpt>
      <trkpt lat="48.63651" lon="-3.39889">
        <ele>101.56</ele>
        <time>2013-11-24T08:46:29Z</time>
      </trkpt>
      <trkpt lat="48.6366" lon="-3.39895">
        <ele>101.08</ele>
        <time>2013-11-24T08:46:30Z</time>
      </trkpt>
      <trkpt lat="48.63669" lon="-3.39901">
        <ele>101.08</ele>
        <time>2013-11-24T08:46:31Z</time>
      </trkpt>
      <trkpt lat="48.63679" lon="-3.39905">
        <ele>99.63</ele>
        <time>2013-11-24T08:46:32Z</time>
      </trkpt>
      <trkpt lat="48.63787" lon="-3.39953">
        <ele>96.75</ele>
        <time>2013-11-24T08:46:44Z</time>
      </trkpt>
      <trkpt lat="48.63794" lon="-3.39961">
        <ele>96.27</ele>
        <time>2013-11-24T08:46:45Z</time>
      </trkpt>
      <trkpt lat="48.638" lon="-3.39972">
        <ele>95.79</ele>
        <time>2013-11-24T08:46:46Z</time>
      </trkpt>
      <trkpt lat="48.63806" lon="-3.39983">
        <ele>95.31</ele>
        <time>2013-11-24T08:46:47Z</time>
      </trkpt>
      <trkpt lat="48.63811" lon="-3.39995">
        <ele>94.83</ele>
        <time>2013-11-24T08:46:48Z</time>
      </trkpt>
      <trkpt lat="48.63814" lon="-3.40008">
        <ele>94.35</ele>
        <time>2013-11-24T08:46:49Z</time>
      </trkpt>
      <trkpt lat="48.63817" lon="-3.40021">
        <ele>94.35</ele>
        <time>2013-11-24T08:46:50Z</time>
      </trkpt>
      <trkpt lat="48.6382" lon="-3.40035">
        <ele>94.35</ele>
        <time>2013-11-24T08:46:51Z</time>
      </trkpt>
      <trkpt lat="48.63821" lon="-3.40048">
        <ele>93.87</ele>
        <time>2013-11-24T08:46:52Z</time>
      </trkpt>
      <trkpt lat="48.63822" lon="-3.40062">
        <ele>93.87</ele>
        <time>2013-11-24T08:46:53Z</time>
      </trkpt>
      <trkpt lat="48.63827" lon="-3.40201">
        <ele>92.9</ele>
        <time>2013-11-24T08:47:04Z</time>
      </trkpt>
      <trkpt lat="48.63828" lon="-3.40288">
        <ele>89.54</ele>
        <time>2013-11-24T08:47:10Z</time>
      </trkpt>
      <trkpt lat="48.63828" lon="-3.40369">
        <ele>85.69</ele>
        <time>2013-11-24T08:47:15Z</time>
      </trkpt>
      <trkpt lat="48.63825" lon="-3.40386">
        <ele>85.69</ele>
        <time>2013-11-24T08:47:16Z</time>
      </trkpt>
      <trkpt lat="48.63822" lon="-3.40402">
        <ele>85.21</ele>
        <time>2013-11-24T08:47:17Z</time>
      </trkpt>
      <trkpt lat="48.63817" lon="-3.40416">
        <ele>85.21</ele>
        <time>2013-11-24T08:47:18Z</time>
      </trkpt>
      <trkpt lat="48.63811" lon="-3.40429">
        <ele>84.73</ele>
        <time>2013-11-24T08:47:19Z</time>
      </trkpt>
      <trkpt lat="48.63804" lon="-3.40441">
        <ele>84.73</ele>
        <time>2013-11-24T08:47:20Z</time>
      </trkpt>
      <trkpt lat="48.63797" lon="-3.40451">
        <ele>84.73</ele>
        <time>2013-11-24T08:47:21Z</time>
      </trkpt>
      <trkpt lat="48.63758" lon="-3.40516">
        <ele>84.73</ele>
        <time>2013-11-24T08:47:27Z</time>
      </trkpt>
      <trkpt lat="48.63705" lon="-3.40666">
        <ele>81.85</ele>
        <time>2013-11-24T08:47:39Z</time>
      </trkpt>
      <trkpt lat="48.63673" lon="-3.40733">
        <ele>78.48</ele>
        <time>2013-11-24T08:47:45Z</time>
      </trkpt>
      <trkpt lat="48.63625" lon="-3.40795">
        <ele>75.6</ele>
        <time>2013-11-24T08:47:51Z</time>
      </trkpt>
      <trkpt lat="48.63618" lon="-3.40808">
        <ele>74.64</ele>
        <time>2013-11-24T08:47:52Z</time>
      </trkpt>
      <trkpt lat="48.63613" lon="-3.40821">
        <ele>74.64</ele>
        <time>2013-11-24T08:47:53Z</time>
      </trkpt>
      <trkpt lat="48.63609" lon="-3.40836">
        <ele>74.64</ele>
        <time>2013-11-24T08:47:54Z</time>
      </trkpt>
      <trkpt lat="48.63605" lon="-3.40851">
        <ele>73.68</ele>
        <time>2013-11-24T08:47:55Z</time>
      </trkpt>
      <trkpt lat="48.63603" lon="-3.40866">
        <ele>73.2</ele>
        <time>2013-11-24T08:47:56Z</time>
      </trkpt>
      <trkpt lat="48.63601" lon="-3.40882">
        <ele>72.72</ele>
        <time>2013-11-24T08:47:57Z</time>
      </trkpt>
      <trkpt lat="48.63597" lon="-3.40943">
        <ele>69.35</ele>
        <time>2013-11-24T08:48:01Z</time>
      </trkpt>
      <trkpt lat="48.63594" lon="-3.40973">
        <ele>68.39</ele>
        <time>2013-11-24T08:48:03Z</time>
      </trkpt>
      <trkpt lat="48.6359" lon="-3.40988">
        <ele>67.91</ele>
        <time>2013-11-24T08:48:04Z</time>
      </trkpt>
      <trkpt lat="48.63574" lon="-3.41046">
        <ele>65.51</ele>
        <time>2013-11-24T08:48:08Z</time>
      </trkpt>
      <trkpt lat="48.63569" lon="-3.41075">
        <ele>65.03</ele>
        <time>2013-11-24T08:48:10Z</time>
      </trkpt>
      <trkpt lat="48.63568" lon="-3.41091">
        <ele>64.55</ele>
        <time>2013-11-24T08:48:11Z</time>
      </trkpt>
      <trkpt lat="48.6357" lon="-3.41106">
        <ele>64.07</ele>
        <time>2013-11-24T08:48:12Z</time>
      </trkpt>
      <trkpt lat="48.63574" lon="-3.4112">
        <ele>63.58</ele>
        <time>2013-11-24T08:48:13Z</time>
      </trkpt>
      <trkpt lat="48.63579" lon="-3.41133">
        <ele>62.62</ele>
        <time>2013-11-24T08:48:14Z</time>
      </trkpt>
      <trkpt lat="48.63587" lon="-3.41143">
        <ele>61.66</ele>
        <time>2013-11-24T08:48:15Z</time>
      </trkpt>
      <trkpt lat="48.63596" lon="-3.41152">
        <ele>60.22</ele>
        <time>2013-11-24T08:48:16Z</time>
      </trkpt>
      <trkpt lat="48.63605" lon="-3.41157">
        <ele>59.26</ele>
        <time>2013-11-24T08:48:17Z</time>
      </trkpt>
      <trkpt lat="48.63614" lon="-3.4116">
        <ele>58.3</ele>
        <time>2013-11-24T08:48:18Z</time>
      </trkpt>
      <trkpt lat="48.63624" lon="-3.41162">
        <ele>57.34</ele>
        <time>2013-11-24T08:48:19Z</time>
      </trkpt>
      <trkpt lat="48.63634" lon="-3.41164">
        <ele>56.37</ele>
        <time>2013-11-24T08:48:20Z</time>
      </trkpt>
      <trkpt lat="48.63644" lon="-3.41167">
        <ele>56.37</ele>
        <time>2013-11-24T08:48:21Z</time>
      </trkpt>
      <trkpt lat="48.63652" lon="-3.41173">
        <ele>55.89</ele>
        <time>2013-11-24T08:48:22Z</time>
      </trkpt>
      <trkpt lat="48.6366" lon="-3.41181">
        <ele>54.93</ele>
        <time>2013-11-24T08:48:23Z</time>
      </trkpt>
      <trkpt lat="48.63666" lon="-3.41191">
        <ele>54.45</ele>
        <time>2013-11-24T08:48:24Z</time>
      </trkpt>
      <trkpt lat="48.63669" lon="-3.41205">
        <ele>53.97</ele>
        <time>2013-11-24T08:48:25Z</time>
      </trkpt>
      <trkpt lat="48.6367" lon="-3.41221">
        <ele>53.49</ele>
        <time>2013-11-24T08:48:26Z</time>
      </trkpt>
      <trkpt lat="48.6367" lon="-3.41237">
        <ele>53.01</ele>
        <time>2013-11-24T08:48:27Z</time>
      </trkpt>
      <trkpt lat="48.63671" lon="-3.41253">
        <ele>52.53</ele>
        <time>2013-11-24T08:48:28Z</time>
      </trkpt>
      <trkpt lat="48.63671" lon="-3.41269">
        <ele>51.57</ele>
        <time>2013-11-24T08:48:29Z</time>
      </trkpt>
      <trkpt lat="48.6367" lon="-3.41285">
        <ele>50.61</ele>
        <time>2013-11-24T08:48:30Z</time>
      </trkpt>
      <trkpt lat="48.63666" lon="-3.41302">
        <ele>51.09</ele>
        <time>2013-11-24T08:48:31Z</time>
      </trkpt>
      <trkpt lat="48.63661" lon="-3.41318">
        <ele>49.16</ele>
        <time>2013-11-24T08:48:32Z</time>
      </trkpt>
      <trkpt lat="48.63655" lon="-3.41332">
        <ele>48.68</ele>
        <time>2013-11-24T08:48:33Z</time>
      </trkpt>
      <trkpt lat="48.63647" lon="-3.41344">
        <ele>47.72</ele>
        <time>2013-11-24T08:48:34Z</time>
      </trkpt>
      <trkpt lat="48.63638" lon="-3.41354">
        <ele>47.24</ele>
        <time>2013-11-24T08:48:35Z</time>
      </trkpt>
      <trkpt lat="48.63629" lon="-3.41364">
        <ele>47.24</ele>
        <time>2013-11-24T08:48:36Z</time>
      </trkpt>
      <trkpt lat="48.6362" lon="-3.41373">
        <ele>47.24</ele>
        <time>2013-11-24T08:48:37Z</time>
      </trkpt>
      <trkpt lat="48.63603" lon="-3.41393">
        <ele>47.24</ele>
        <time>2013-11-24T08:48:39Z</time>
      </trkpt>
      <trkpt lat="48.63596" lon="-3.41405">
        <ele>47.24</ele>
        <time>2013-11-24T08:48:40Z</time>
      </trkpt>
      <trkpt lat="48.63576" lon="-3.41442">
        <ele>46.76</ele>
        <time>2013-11-24T08:48:43Z</time>
      </trkpt>
      <trkpt lat="48.6355" lon="-3.41518">
        <ele>47.72</ele>
        <time>2013-11-24T08:48:49Z</time>
      </trkpt>
      <trkpt lat="48.63531" lon="-3.41556">
        <ele>49.16</ele>
        <time>2013-11-24T08:48:53Z</time>
      </trkpt>
      <trkpt lat="48.63526" lon="-3.41562">
        <ele>49.65</ele>
        <time>2013-11-24T08:48:54Z</time>
      </trkpt>
      <trkpt lat="48.6352" lon="-3.41568">
        <ele>50.13</ele>
        <time>2013-11-24T08:48:55Z</time>
      </trkpt>
      <trkpt lat="48.63514" lon="-3.41572">
        <ele>50.61</ele>
        <time>2013-11-24T08:48:56Z</time>
      </trkpt>
      <trkpt lat="48.63508" lon="-3.41576">
        <ele>51.09</ele>
        <time>2013-11-24T08:48:57Z</time>
      </trkpt>
      <trkpt lat="48.63473" lon="-3.41586">
        <ele>53.01</ele>
        <time>2013-11-24T08:49:03Z</time>
      </trkpt>
      <trkpt lat="48.63467" lon="-3.41585">
        <ele>53.01</ele>
        <time>2013-11-24T08:49:04Z</time>
      </trkpt>
      <trkpt lat="48.63417" lon="-3.41564">
        <ele>56.37</ele>
        <time>2013-11-24T08:49:14Z</time>
      </trkpt>
      <trkpt lat="48.63373" lon="-3.41545">
        <ele>59.26</ele>
        <time>2013-11-24T08:49:24Z</time>
      </trkpt>
      <trkpt lat="48.63368" lon="-3.41544">
        <ele>59.26</ele>
        <time>2013-11-24T08:49:25Z</time>
      </trkpt>
      <trkpt lat="48.63363" lon="-3.41543">
        <ele>59.74</ele>
        <time>2013-11-24T08:49:26Z</time>
      </trkpt>
      <trkpt lat="48.6334" lon="-3.41531">
        <ele>61.66</ele>
        <time>2013-11-24T08:49:32Z</time>
      </trkpt>
      <trkpt lat="48.63336" lon="-3.41529">
        <ele>62.14</ele>
        <time>2013-11-24T08:49:33Z</time>
      </trkpt>
      <trkpt lat="48.63332" lon="-3.41527">
        <ele>62.62</ele>
        <time>2013-11-24T08:49:34Z</time>
      </trkpt>
      <trkpt lat="48.63281" lon="-3.41517">
        <ele>65.51</ele>
        <time>2013-11-24T08:49:46Z</time>
      </trkpt>
      <trkpt lat="48.63271" lon="-3.4152">
        <ele>65.99</ele>
        <time>2013-11-24T08:49:48Z</time>
      </trkpt>
      <trkpt lat="48.6323" lon="-3.41535">
        <ele>68.39</ele>
        <time>2013-11-24T08:49:57Z</time>
      </trkpt>
      <trkpt lat="48.63183" lon="-3.41557">
        <ele>71.27</ele>
        <time>2013-11-24T08:50:07Z</time>
      </trkpt>
      <trkpt lat="48.63141" lon="-3.41563">
        <ele>73.68</ele>
        <time>2013-11-24T08:50:17Z</time>
      </trkpt>
      <trkpt lat="48.63083" lon="-3.41561">
        <ele>77.52</ele>
        <time>2013-11-24T08:50:31Z</time>
      </trkpt>
      <trkpt lat="48.63074" lon="-3.4156">
        <ele>77.04</ele>
        <time>2013-11-24T08:50:33Z</time>
      </trkpt>
      <trkpt lat="48.63017" lon="-3.41558">
        <ele>78.97</ele>
        <time>2013-11-24T08:50:45Z</time>
      </trkpt>
      <trkpt lat="48.62951" lon="-3.41563">
        <ele>82.33</ele>
        <time>2013-11-24T08:50:59Z</time>
      </trkpt>
      <trkpt lat="48.62915" lon="-3.41569">
        <ele>83.29</ele>
        <time>2013-11-24T08:51:06Z</time>
      </trkpt>
      <trkpt lat="48.62909" lon="-3.41573">
        <ele>83.29</ele>
        <time>2013-11-24T08:51:07Z</time>
      </trkpt>
      <trkpt lat="48.62894" lon="-3.41586">
        <ele>84.25</ele>
        <time>2013-11-24T08:51:10Z</time>
      </trkpt>
      <trkpt lat="48.6289" lon="-3.41592">
        <ele>84.25</ele>
        <time>2013-11-24T08:51:11Z</time>
      </trkpt>
      <trkpt lat="48.62886" lon="-3.41598">
        <ele>84.25</ele>
        <time>2013-11-24T08:51:12Z</time>
      </trkpt>
      <trkpt lat="48.62858" lon="-3.41697">
        <ele>85.69</ele>
        <time>2013-11-24T08:51:24Z</time>
      </trkpt>
      <trkpt lat="48.62833" lon="-3.41857">
        <ele>89.06</ele>
        <time>2013-11-24T08:51:42Z</time>
      </trkpt>
      <trkpt lat="48.62819" lon="-3.41904">
        <ele>90.02</ele>
        <time>2013-11-24T08:51:48Z</time>
      </trkpt>
      <trkpt lat="48.62807" lon="-3.41924">
        <ele>90.5</ele>
        <time>2013-11-24T08:51:51Z</time>
      </trkpt>
      <trkpt lat="48.62798" lon="-3.41936">
        <ele>90.98</ele>
        <time>2013-11-24T08:51:53Z</time>
      </trkpt>
      <trkpt lat="48.62793" lon="-3.41941">
        <ele>90.98</ele>
        <time>2013-11-24T08:51:54Z</time>
      </trkpt>
      <trkpt lat="48.62787" lon="-3.41946">
        <ele>90.98</ele>
        <time>2013-11-24T08:51:55Z</time>
      </trkpt>
      <trkpt lat="48.62701" lon="-3.41986">
        <ele>92.9</ele>
        <time>2013-11-24T08:52:10Z</time>
      </trkpt>
      <trkpt lat="48.62621" lon="-3.42006">
        <ele>95.31</ele>
        <time>2013-11-24T08:52:25Z</time>
      </trkpt>
      <trkpt lat="48.62537" lon="-3.42002">
        <ele>98.19</ele>
        <time>2013-11-24T08:52:39Z</time>
      </trkpt>
      <trkpt lat="48.62477" lon="-3.41997">
        <ele>101.08</ele>
        <time>2013-11-24T08:52:50Z</time>
      </trkpt>
      <trkpt lat="48.62442" lon="-3.42003">
        <ele>103.96</ele>
        <time>2013-11-24T08:52:57Z</time>
      </trkpt>
      <trkpt lat="48.62438" lon="-3.42006">
        <ele>104.92</ele>
        <time>2013-11-24T08:52:58Z</time>
      </trkpt>
      <trkpt lat="48.62433" lon="-3.42009">
        <ele>105.4</ele>
        <time>2013-11-24T08:52:59Z</time>
      </trkpt>
      <trkpt lat="48.62391" lon="-3.42032">
        <ele>108.29</ele>
        <time>2013-11-24T08:53:08Z</time>
      </trkpt>
      <trkpt lat="48.62349" lon="-3.42053">
        <ele>111.65</ele>
        <time>2013-11-24T08:53:18Z</time>
      </trkpt>
      <trkpt lat="48.62345" lon="-3.42056">
        <ele>111.65</ele>
        <time>2013-11-24T08:53:19Z</time>
      </trkpt>
      <trkpt lat="48.62279" lon="-3.42111">
        <ele>112.61</ele>
        <time>2013-11-24T08:53:33Z</time>
      </trkpt>
      <trkpt lat="48.62203" lon="-3.42198">
        <ele>112.13</ele>
        <time>2013-11-24T08:53:46Z</time>
      </trkpt>
      <trkpt lat="48.62141" lon="-3.42307">
        <ele>109.73</ele>
        <time>2013-11-24T08:53:57Z</time>
      </trkpt>
      <trkpt lat="48.62111" lon="-3.42351">
        <ele>109.25</ele>
        <time>2013-11-24T08:54:02Z</time>
      </trkpt>
      <trkpt lat="48.62103" lon="-3.42357">
        <ele>109.25</ele>
        <time>2013-11-24T08:54:03Z</time>
      </trkpt>
      <trkpt lat="48.62095" lon="-3.42363">
        <ele>108.77</ele>
        <time>2013-11-24T08:54:04Z</time>
      </trkpt>
      <trkpt lat="48.62087" lon="-3.42367">
        <ele>108.77</ele>
        <time>2013-11-24T08:54:05Z</time>
      </trkpt>
      <trkpt lat="48.62079" lon="-3.4237">
        <ele>108.77</ele>
        <time>2013-11-24T08:54:06Z</time>
      </trkpt>
      <trkpt lat="48.6207" lon="-3.42372">
        <ele>108.29</ele>
        <time>2013-11-24T08:54:07Z</time>
      </trkpt>
      <trkpt lat="48.62061" lon="-3.42373">
        <ele>108.29</ele>
        <time>2013-11-24T08:54:08Z</time>
      </trkpt>
      <trkpt lat="48.62053" lon="-3.42374">
        <ele>108.29</ele>
        <time>2013-11-24T08:54:09Z</time>
      </trkpt>
      <trkpt lat="48.62044" lon="-3.42373">
        <ele>107.81</ele>
        <time>2013-11-24T08:54:10Z</time>
      </trkpt>
      <trkpt lat="48.62009" lon="-3.42376">
        <ele>106.84</ele>
        <time>2013-11-24T08:54:14Z</time>
      </trkpt>
      <trkpt lat="48.62" lon="-3.42379">
        <ele>106.84</ele>
        <time>2013-11-24T08:54:15Z</time>
      </trkpt>
      <trkpt lat="48.61991" lon="-3.42383">
        <ele>106.84</ele>
        <time>2013-11-24T08:54:16Z</time>
      </trkpt>
      <trkpt lat="48.61983" lon="-3.4239">
        <ele>106.36</ele>
        <time>2013-11-24T08:54:17Z</time>
      </trkpt>
      <trkpt lat="48.61974" lon="-3.42397">
        <ele>106.36</ele>
        <time>2013-11-24T08:54:18Z</time>
      </trkpt>
      <trkpt lat="48.61966" lon="-3.42406">
        <ele>105.88</ele>
        <time>2013-11-24T08:54:19Z</time>
      </trkpt>
      <trkpt lat="48.61959" lon="-3.42414">
        <ele>105.88</ele>
        <time>2013-11-24T08:54:20Z</time>
      </trkpt>
      <trkpt lat="48.61903" lon="-3.42491">
        <ele>106.84</ele>
        <time>2013-11-24T08:54:29Z</time>
      </trkpt>
      <trkpt lat="48.61895" lon="-3.4251">
        <ele>107.81</ele>
        <time>2013-11-24T08:54:31Z</time>
      </trkpt>
      <trkpt lat="48.61864" lon="-3.42593">
        <ele>110.69</ele>
        <time>2013-11-24T08:54:40Z</time>
      </trkpt>
      <trkpt lat="48.61793" lon="-3.42731">
        <ele>110.69</ele>
        <time>2013-11-24T08:54:57Z</time>
      </trkpt>
      <trkpt lat="48.61721" lon="-3.42861">
        <ele>110.21</ele>
        <time>2013-11-24T08:55:13Z</time>
      </trkpt>
      <trkpt lat="48.61666" lon="-3.42981">
        <ele>109.73</ele>
        <time>2013-11-24T08:55:25Z</time>
      </trkpt>
      <trkpt lat="48.61653" lon="-3.4301">
        <ele>109.25</ele>
        <time>2013-11-24T08:55:28Z</time>
      </trkpt>
      <trkpt lat="48.61651" lon="-3.43021">
        <ele>108.77</ele>
        <time>2013-11-24T08:55:29Z</time>
      </trkpt>
      <trkpt lat="48.61649" lon="-3.43032">
        <ele>108.77</ele>
        <time>2013-11-24T08:55:30Z</time>
      </trkpt>
      <trkpt lat="48.61649" lon="-3.43044">
        <ele>108.77</ele>
        <time>2013-11-24T08:55:31Z</time>
      </trkpt>
      <trkpt lat="48.6165" lon="-3.43055">
        <ele>108.29</ele>
        <time>2013-11-24T08:55:32Z</time>
      </trkpt>
      <trkpt lat="48.61652" lon="-3.43067">
        <ele>107.81</ele>
        <time>2013-11-24T08:55:33Z</time>
      </trkpt>
      <trkpt lat="48.61654" lon="-3.43079">
        <ele>107.81</ele>
        <time>2013-11-24T08:55:34Z</time>
      </trkpt>
      <trkpt lat="48.61659" lon="-3.4313">
        <ele>106.84</ele>
        <time>2013-11-24T08:55:38Z</time>
      </trkpt>
      <trkpt lat="48.61659" lon="-3.43143">
        <ele>106.84</ele>
        <time>2013-11-24T08:55:39Z</time>
      </trkpt>
      <trkpt lat="48.61657" lon="-3.43156">
        <ele>106.84</ele>
        <time>2013-11-24T08:55:40Z</time>
      </trkpt>
      <trkpt lat="48.61654" lon="-3.43169">
        <ele>106.36</ele>
        <time>2013-11-24T08:55:41Z</time>
      </trkpt>
      <trkpt lat="48.6165" lon="-3.43182">
        <ele>105.88</ele>
        <time>2013-11-24T08:55:42Z</time>
      </trkpt>
      <trkpt lat="48.61646" lon="-3.43194">
        <ele>105.88</ele>
        <time>2013-11-24T08:55:43Z</time>
      </trkpt>
      <trkpt lat="48.61642" lon="-3.43205">
        <ele>105.88</ele>
        <time>2013-11-24T08:55:44Z</time>
      </trkpt>
      <trkpt lat="48.61637" lon="-3.43216">
        <ele>105.4</ele>
        <time>2013-11-24T08:55:45Z</time>
      </trkpt>
      <trkpt lat="48.61631" lon="-3.43227">
        <ele>105.4</ele>
        <time>2013-11-24T08:55:46Z</time>
      </trkpt>
      <trkpt lat="48.61625" lon="-3.43235">
        <ele>104.92</ele>
        <time>2013-11-24T08:55:47Z</time>
      </trkpt>
      <trkpt lat="48.61618" lon="-3.43242">
        <ele>104.92</ele>
        <time>2013-11-24T08:55:48Z</time>
      </trkpt>
      <trkpt lat="48.6161" lon="-3.43247">
        <ele>104.44</ele>
        <time>2013-11-24T08:55:49Z</time>
      </trkpt>
      <trkpt lat="48.61601" lon="-3.43249">
        <ele>104.44</ele>
        <time>2013-11-24T08:55:50Z</time>
      </trkpt>
      <trkpt lat="48.61593" lon="-3.43249">
        <ele>104.44</ele>
        <time>2013-11-24T08:55:51Z</time>
      </trkpt>
      <trkpt lat="48.61584" lon="-3.43246">
        <ele>104.44</ele>
        <time>2013-11-24T08:55:52Z</time>
      </trkpt>
      <trkpt lat="48.61576" lon="-3.43241">
        <ele>103.96</ele>
        <time>2013-11-24T08:55:53Z</time>
      </trkpt>
      <trkpt lat="48.61569" lon="-3.43236">
        <ele>103.96</ele>
        <time>2013-11-24T08:55:54Z</time>
      </trkpt>
      <trkpt lat="48.61561" lon="-3.43229">
        <ele>103.48</ele>
        <time>2013-11-24T08:55:55Z</time>
      </trkpt>
      <trkpt lat="48.61524" lon="-3.432">
        <ele>102.04</ele>
        <time>2013-11-24T08:56:00Z</time>
      </trkpt>
      <trkpt lat="48.61516" lon="-3.43197">
        <ele>102.04</ele>
        <time>2013-11-24T08:56:01Z</time>
      </trkpt>
      <trkpt lat="48.61509" lon="-3.43196">
        <ele>101.56</ele>
        <time>2013-11-24T08:56:02Z</time>
      </trkpt>
      <trkpt lat="48.61502" lon="-3.43197">
        <ele>101.08</ele>
        <time>2013-11-24T08:56:03Z</time>
      </trkpt>
      <trkpt lat="48.61493" lon="-3.432">
        <ele>100.6</ele>
        <time>2013-11-24T08:56:04Z</time>
      </trkpt>
      <trkpt lat="48.61485" lon="-3.43205">
        <ele>100.11</ele>
        <time>2013-11-24T08:56:05Z</time>
      </trkpt>
      <trkpt lat="48.61476" lon="-3.43213">
        <ele>99.63</ele>
        <time>2013-11-24T08:56:06Z</time>
      </trkpt>
      <trkpt lat="48.61468" lon="-3.4322">
        <ele>99.63</ele>
        <time>2013-11-24T08:56:07Z</time>
      </trkpt>
      <trkpt lat="48.6141" lon="-3.43282">
        <ele>96.27</ele>
        <time>2013-11-24T08:56:14Z</time>
      </trkpt>
      <trkpt lat="48.61366" lon="-3.43327">
        <ele>92.9</ele>
        <time>2013-11-24T08:56:19Z</time>
      </trkpt>
      <trkpt lat="48.61316" lon="-3.43393">
        <ele>89.54</ele>
        <time>2013-11-24T08:56:25Z</time>
      </trkpt>
      <trkpt lat="48.61272" lon="-3.4347">
        <ele>86.18</ele>
        <time>2013-11-24T08:56:31Z</time>
      </trkpt>
      <trkpt lat="48.61266" lon="-3.43482">
        <ele>86.18</ele>
        <time>2013-11-24T08:56:32Z</time>
      </trkpt>
      <trkpt lat="48.6125" lon="-3.4352">
        <ele>83.29</ele>
        <time>2013-11-24T08:56:35Z</time>
      </trkpt>
      <trkpt lat="48.61246" lon="-3.43533">
        <ele>82.33</ele>
        <time>2013-11-24T08:56:36Z</time>
      </trkpt>
      <trkpt lat="48.61243" lon="-3.43547">
        <ele>82.33</ele>
        <time>2013-11-24T08:56:37Z</time>
      </trkpt>
      <trkpt lat="48.61234" lon="-3.4359">
        <ele>80.41</ele>
        <time>2013-11-24T08:56:40Z</time>
      </trkpt>
      <trkpt lat="48.61229" lon="-3.43602">
        <ele>79.93</ele>
        <time>2013-11-24T08:56:41Z</time>
      </trkpt>
      <trkpt lat="48.61223" lon="-3.43613">
        <ele>79.93</ele>
        <time>2013-11-24T08:56:42Z</time>
      </trkpt>
      <trkpt lat="48.61216" lon="-3.43623">
        <ele>79.45</ele>
        <time>2013-11-24T08:56:43Z</time>
      </trkpt>
      <trkpt lat="48.61208" lon="-3.4363">
        <ele>79.45</ele>
        <time>2013-11-24T08:56:44Z</time>
      </trkpt>
      <trkpt lat="48.61201" lon="-3.43635">
        <ele>79.93</ele>
        <time>2013-11-24T08:56:45Z</time>
      </trkpt>
      <trkpt lat="48.61186" lon="-3.43643">
        <ele>79.93</ele>
        <time>2013-11-24T08:56:47Z</time>
      </trkpt>
      <trkpt lat="48.61127" lon="-3.43662">
        <ele>82.81</ele>
        <time>2013-11-24T08:56:55Z</time>
      </trkpt>
      <trkpt lat="48.6112" lon="-3.43666">
        <ele>82.81</ele>
        <time>2013-11-24T08:56:56Z</time>
      </trkpt>
      <trkpt lat="48.61113" lon="-3.43671">
        <ele>83.29</ele>
        <time>2013-11-24T08:56:57Z</time>
      </trkpt>
      <trkpt lat="48.61107" lon="-3.43676">
        <ele>83.77</ele>
        <time>2013-11-24T08:56:58Z</time>
      </trkpt>
      <trkpt lat="48.61103" lon="-3.43682">
        <ele>83.77</ele>
        <time>2013-11-24T08:56:59Z</time>
      </trkpt>
      <trkpt lat="48.61102" lon="-3.43689">
        <ele>84.25</ele>
        <time>2013-11-24T08:57:00Z</time>
      </trkpt>
      <trkpt lat="48.61101" lon="-3.43697">
        <ele>84.73</ele>
        <time>2013-11-24T08:57:01Z</time>
      </trkpt>
      <trkpt lat="48.61101" lon="-3.43704">
        <ele>84.73</ele>
        <time>2013-11-24T08:57:02Z</time>
      </trkpt>
      <trkpt lat="48.61101" lon="-3.43711">
        <ele>85.21</ele>
        <time>2013-11-24T08:57:03Z</time>
      </trkpt>
      <trkpt lat="48.61101" lon="-3.43717">
        <ele>85.69</ele>
        <time>2013-11-24T08:57:04Z</time>
      </trkpt>
      <trkpt lat="48.61102" lon="-3.43723">
        <ele>85.69</ele>
        <time>2013-11-24T08:57:05Z</time>
      </trkpt>
      <trkpt lat="48.61107" lon="-3.43792">
        <ele>89.06</ele>
        <time>2013-11-24T08:57:16Z</time>
      </trkpt>
      <trkpt lat="48.61108" lon="-3.43799">
        <ele>89.54</ele>
        <time>2013-11-24T08:57:17Z</time>
      </trkpt>
      <trkpt lat="48.61115" lon="-3.43867">
        <ele>91.94</ele>
        <time>2013-11-24T08:57:26Z</time>
      </trkpt>
      <trkpt lat="48.61118" lon="-3.43924">
        <ele>94.83</ele>
        <time>2013-11-24T08:57:35Z</time>
      </trkpt>
      <trkpt lat="48.61125" lon="-3.44007">
        <ele>98.19</ele>
        <time>2013-11-24T08:57:47Z</time>
      </trkpt>
      <trkpt lat="48.61126" lon="-3.44022">
        <ele>98.67</ele>
        <time>2013-11-24T08:57:49Z</time>
      </trkpt>
      <trkpt lat="48.61127" lon="-3.44029">
        <ele>98.67</ele>
        <time>2013-11-24T08:57:50Z</time>
      </trkpt>
      <trkpt lat="48.61127" lon="-3.44036">
        <ele>99.15</ele>
        <time>2013-11-24T08:57:51Z</time>
      </trkpt>
      <trkpt lat="48.61127" lon="-3.44043">
        <ele>99.63</ele>
        <time>2013-11-24T08:57:52Z</time>
      </trkpt>
      <trkpt lat="48.61125" lon="-3.4405">
        <ele>99.63</ele>
        <time>2013-11-24T08:57:53Z</time>
      </trkpt>
      <trkpt lat="48.61124" lon="-3.44056">
        <ele>100.11</ele>
        <time>2013-11-24T08:57:54Z</time>
      </trkpt>
      <trkpt lat="48.61122" lon="-3.44062">
        <ele>100.6</ele>
        <time>2013-11-24T08:57:55Z</time>
      </trkpt>
      <trkpt lat="48.6112" lon="-3.44068">
        <ele>100.6</ele>
        <time>2013-11-24T08:57:56Z</time>
      </trkpt>
      <trkpt lat="48.61117" lon="-3.44073">
        <ele>101.08</ele>
        <time>2013-11-24T08:57:57Z</time>
      </trkpt>
      <trkpt lat="48.61114" lon="-3.4408">
        <ele>101.56</ele>
        <time>2013-11-24T08:57:58Z</time>
      </trkpt>
      <trkpt lat="48.61111" lon="-3.44086">
        <ele>101.56</ele>
        <time>2013-11-24T08:57:59Z</time>
      </trkpt>
      <trkpt lat="48.61084" lon="-3.44136">
        <ele>104.44</ele>
        <time>2013-11-24T08:58:08Z</time>
      </trkpt>
      <trkpt lat="48.61079" lon="-3.44138">
        <ele>104.92</ele>
        <time>2013-11-24T08:58:09Z</time>
      </trkpt>
      <trkpt lat="48.61075" lon="-3.44139">
        <ele>104.92</ele>
        <time>2013-11-24T08:58:10Z</time>
      </trkpt>
      <trkpt lat="48.61046" lon="-3.44147">
        <ele>106.36</ele>
        <time>2013-11-24T08:58:17Z</time>
      </trkpt>
      <trkpt lat="48.61042" lon="-3.4415">
        <ele>106.84</ele>
        <time>2013-11-24T08:58:18Z</time>
      </trkpt>
      <trkpt lat="48.61037" lon="-3.44153">
        <ele>106.84</ele>
        <time>2013-11-24T08:58:19Z</time>
      </trkpt>
      <trkpt lat="48.61028" lon="-3.4416">
        <ele>107.81</ele>
        <time>2013-11-24T08:58:21Z</time>
      </trkpt>
      <trkpt lat="48.61022" lon="-3.44163">
        <ele>108.29</ele>
        <time>2013-11-24T08:58:22Z</time>
      </trkpt>
      <trkpt lat="48.61017" lon="-3.44168">
        <ele>108.29</ele>
        <time>2013-11-24T08:58:23Z</time>
      </trkpt>
      <trkpt lat="48.61012" lon="-3.44173">
        <ele>108.77</ele>
        <time>2013-11-24T08:58:24Z</time>
      </trkpt>
      <trkpt lat="48.61009" lon="-3.44178">
        <ele>108.77</ele>
        <time>2013-11-24T08:58:25Z</time>
      </trkpt>
      <trkpt lat="48.61005" lon="-3.44184">
        <ele>109.25</ele>
        <time>2013-11-24T08:58:26Z</time>
      </trkpt>
      <trkpt lat="48.61002" lon="-3.4419">
        <ele>109.73</ele>
        <time>2013-11-24T08:58:27Z</time>
      </trkpt>
      <trkpt lat="48.61001" lon="-3.44196">
        <ele>109.73</ele>
        <time>2013-11-24T08:58:28Z</time>
      </trkpt>
      <trkpt lat="48.60999" lon="-3.44203">
        <ele>110.21</ele>
        <time>2013-11-24T08:58:29Z</time>
      </trkpt>
      <trkpt lat="48.60998" lon="-3.44209">
        <ele>110.69</ele>
        <time>2013-11-24T08:58:30Z</time>
      </trkpt>
      <trkpt lat="48.60991" lon="-3.44242">
        <ele>112.13</ele>
        <time>2013-11-24T08:58:35Z</time>
      </trkpt>
      <trkpt lat="48.60989" lon="-3.44249">
        <ele>112.61</ele>
        <time>2013-11-24T08:58:36Z</time>
      </trkpt>
      <trkpt lat="48.60986" lon="-3.44256">
        <ele>112.61</ele>
        <time>2013-11-24T08:58:37Z</time>
      </trkpt>
      <trkpt lat="48.60981" lon="-3.44268">
        <ele>113.09</ele>
        <time>2013-11-24T08:58:39Z</time>
      </trkpt>
      <trkpt lat="48.60978" lon="-3.44274">
        <ele>113.09</ele>
        <time>2013-11-24T08:58:40Z</time>
      </trkpt>
      <trkpt lat="48.60974" lon="-3.44281">
        <ele>113.57</ele>
        <time>2013-11-24T08:58:41Z</time>
      </trkpt>
      <trkpt lat="48.60971" lon="-3.44286">
        <ele>113.57</ele>
        <time>2013-11-24T08:58:42Z</time>
      </trkpt>
      <trkpt lat="48.60968" lon="-3.4429">
        <ele>113.57</ele>
        <time>2013-11-24T08:58:43Z</time>
      </trkpt>
      <trkpt lat="48.60964" lon="-3.44294">
        <ele>114.05</ele>
        <time>2013-11-24T08:58:44Z</time>
      </trkpt>
      <trkpt lat="48.6096" lon="-3.44297">
        <ele>114.05</ele>
        <time>2013-11-24T08:58:45Z</time>
      </trkpt>
      <trkpt lat="48.60955" lon="-3.44299">
        <ele>114.05</ele>
        <time>2013-11-24T08:58:46Z</time>
      </trkpt>
      <trkpt lat="48.60951" lon="-3.443">
        <ele>114.05</ele>
        <time>2013-11-24T08:58:47Z</time>
      </trkpt>
      <trkpt lat="48.60946" lon="-3.443">
        <ele>114.53</ele>
        <time>2013-11-24T08:58:48Z</time>
      </trkpt>
      <trkpt lat="48.60942" lon="-3.443">
        <ele>114.53</ele>
        <time>2013-11-24T08:58:49Z</time>
      </trkpt>
      <trkpt lat="48.60938" lon="-3.44299">
        <ele>115.01</ele>
        <time>2013-11-24T08:58:50Z</time>
      </trkpt>
      <trkpt lat="48.60934" lon="-3.44299">
        <ele>115.5</ele>
        <time>2013-11-24T08:58:51Z</time>
      </trkpt>
      <trkpt lat="48.6093" lon="-3.443">
        <ele>115.98</ele>
        <time>2013-11-24T08:58:52Z</time>
      </trkpt>
      <trkpt lat="48.60925" lon="-3.44303">
        <ele>115.98</ele>
        <time>2013-11-24T08:58:53Z</time>
      </trkpt>
      <trkpt lat="48.6092" lon="-3.44305">
        <ele>116.46</ele>
        <time>2013-11-24T08:58:54Z</time>
      </trkpt>
      <trkpt lat="48.60917" lon="-3.4431">
        <ele>116.46</ele>
        <time>2013-11-24T08:58:55Z</time>
      </trkpt>
      <trkpt lat="48.60914" lon="-3.44314">
        <ele>116.94</ele>
        <time>2013-11-24T08:58:56Z</time>
      </trkpt>
      <trkpt lat="48.6091" lon="-3.4432">
        <ele>116.94</ele>
        <time>2013-11-24T08:58:57Z</time>
      </trkpt>
      <trkpt lat="48.60907" lon="-3.44325">
        <ele>116.94</ele>
        <time>2013-11-24T08:58:58Z</time>
      </trkpt>
      <trkpt lat="48.60898" lon="-3.44335">
        <ele>117.42</ele>
        <time>2013-11-24T08:59:00Z</time>
      </trkpt>
      <trkpt lat="48.60893" lon="-3.44339">
        <ele>117.9</ele>
        <time>2013-11-24T08:59:01Z</time>
      </trkpt>
      <trkpt lat="48.60889" lon="-3.44343">
        <ele>117.9</ele>
        <time>2013-11-24T08:59:02Z</time>
      </trkpt>
      <trkpt lat="48.60831" lon="-3.44381">
        <ele>121.26</ele>
        <time>2013-11-24T08:59:14Z</time>
      </trkpt>
      <trkpt lat="48.60781" lon="-3.44411">
        <ele>124.15</ele>
        <time>2013-11-24T08:59:25Z</time>
      </trkpt>
      <trkpt lat="48.60761" lon="-3.44424">
        <ele>125.11</ele>
        <time>2013-11-24T08:59:30Z</time>
      </trkpt>
      <trkpt lat="48.60757" lon="-3.44426">
        <ele>125.11</ele>
        <time>2013-11-24T08:59:31Z</time>
      </trkpt>
      <trkpt lat="48.60744" lon="-3.44434">
        <ele>125.59</ele>
        <time>2013-11-24T08:59:34Z</time>
      </trkpt>
      <trkpt lat="48.6074" lon="-3.44437">
        <ele>125.59</ele>
        <time>2013-11-24T08:59:35Z</time>
      </trkpt>
      <trkpt lat="48.60736" lon="-3.44441">
        <ele>125.59</ele>
        <time>2013-11-24T08:59:36Z</time>
      </trkpt>
      <trkpt lat="48.60731" lon="-3.44446">
        <ele>125.59</ele>
        <time>2013-11-24T08:59:37Z</time>
      </trkpt>
      <trkpt lat="48.60728" lon="-3.44452">
        <ele>125.59</ele>
        <time>2013-11-24T08:59:38Z</time>
      </trkpt>
      <trkpt lat="48.60725" lon="-3.44459">
        <ele>125.11</ele>
        <time>2013-11-24T08:59:39Z</time>
      </trkpt>
      <trkpt lat="48.60723" lon="-3.44467">
        <ele>125.11</ele>
        <time>2013-11-24T08:59:40Z</time>
      </trkpt>
      <trkpt lat="48.60722" lon="-3.44476">
        <ele>125.11</ele>
        <time>2013-11-24T08:59:41Z</time>
      </trkpt>
      <trkpt lat="48.60722" lon="-3.44485">
        <ele>125.11</ele>
        <time>2013-11-24T08:59:42Z</time>
      </trkpt>
      <trkpt lat="48.60739" lon="-3.4458">
        <ele>127.03</ele>
        <time>2013-11-24T08:59:55Z</time>
      </trkpt>
      <trkpt lat="48.60764" lon="-3.4466">
        <ele>130.4</ele>
        <time>2013-11-24T09:00:08Z</time>
      </trkpt>
      <trkpt lat="48.60766" lon="-3.44666">
        <ele>130.4</ele>
        <time>2013-11-24T09:00:09Z</time>
      </trkpt>
      <trkpt lat="48.60768" lon="-3.44672">
        <ele>130.88</ele>
        <time>2013-11-24T09:00:10Z</time>
      </trkpt>
      <trkpt lat="48.60769" lon="-3.44679">
        <ele>130.88</ele>
        <time>2013-11-24T09:00:11Z</time>
      </trkpt>
      <trkpt lat="48.60769" lon="-3.44686">
        <ele>131.36</ele>
        <time>2013-11-24T09:00:12Z</time>
      </trkpt>
      <trkpt lat="48.6077" lon="-3.44693">
        <ele>131.36</ele>
        <time>2013-11-24T09:00:13Z</time>
      </trkpt>
      <trkpt lat="48.6077" lon="-3.44699">
        <ele>131.36</ele>
        <time>2013-11-24T09:00:14Z</time>
      </trkpt>
      <trkpt lat="48.60761" lon="-3.44814">
        <ele>134.24</ele>
        <time>2013-11-24T09:00:31Z</time>
      </trkpt>
      <trkpt lat="48.60761" lon="-3.44821">
        <ele>135.2</ele>
        <time>2013-11-24T09:00:32Z</time>
      </trkpt>
      <trkpt lat="48.60761" lon="-3.44828">
        <ele>134.72</ele>
        <time>2013-11-24T09:00:33Z</time>
      </trkpt>
      <trkpt lat="48.60768" lon="-3.44946">
        <ele>133.76</ele>
        <time>2013-11-24T09:00:48Z</time>
      </trkpt>
      <trkpt lat="48.60769" lon="-3.45074">
        <ele>130.88</ele>
        <time>2013-11-24T09:01:00Z</time>
      </trkpt>
      <trkpt lat="48.6077" lon="-3.451">
        <ele>129.92</ele>
        <time>2013-11-24T09:01:02Z</time>
      </trkpt>
      <trkpt lat="48.60773" lon="-3.4517">
        <ele>128.47</ele>
        <time>2013-11-24T09:01:07Z</time>
      </trkpt>
      <trkpt lat="48.60774" lon="-3.45185">
        <ele>127.51</ele>
        <time>2013-11-24T09:01:08Z</time>
      </trkpt>
      <trkpt lat="48.60778" lon="-3.45198">
        <ele>127.03</ele>
        <time>2013-11-24T09:01:09Z</time>
      </trkpt>
      <trkpt lat="48.60783" lon="-3.4521">
        <ele>126.07</ele>
        <time>2013-11-24T09:01:10Z</time>
      </trkpt>
      <trkpt lat="48.60796" lon="-3.45242">
        <ele>126.07</ele>
        <time>2013-11-24T09:01:13Z</time>
      </trkpt>
      <trkpt lat="48.60796" lon="-3.45255">
        <ele>125.59</ele>
        <time>2013-11-24T09:01:14Z</time>
      </trkpt>
      <trkpt lat="48.60794" lon="-3.45266">
        <ele>125.11</ele>
        <time>2013-11-24T09:01:15Z</time>
      </trkpt>
      <trkpt lat="48.60791" lon="-3.45277">
        <ele>126.07</ele>
        <time>2013-11-24T09:01:16Z</time>
      </trkpt>
      <trkpt lat="48.60788" lon="-3.45286">
        <ele>126.07</ele>
        <time>2013-11-24T09:01:17Z</time>
      </trkpt>
      <trkpt lat="48.60772" lon="-3.45336">
        <ele>129.43</ele>
        <time>2013-11-24T09:01:23Z</time>
      </trkpt>
      <trkpt lat="48.6077" lon="-3.45345">
        <ele>129.43</ele>
        <time>2013-11-24T09:01:24Z</time>
      </trkpt>
      <trkpt lat="48.60767" lon="-3.45362">
        <ele>129.92</ele>
        <time>2013-11-24T09:01:26Z</time>
      </trkpt>
      <trkpt lat="48.60761" lon="-3.45473">
        <ele>129.92</ele>
        <time>2013-11-24T09:01:37Z</time>
      </trkpt>
      <trkpt lat="48.60762" lon="-3.45485">
        <ele>129.43</ele>
        <time>2013-11-24T09:01:38Z</time>
      </trkpt>
      <trkpt lat="48.60763" lon="-3.45497">
        <ele>129.43</ele>
        <time>2013-11-24T09:01:39Z</time>
      </trkpt>
      <trkpt lat="48.60766" lon="-3.45509">
        <ele>129.43</ele>
        <time>2013-11-24T09:01:40Z</time>
      </trkpt>
      <trkpt lat="48.60769" lon="-3.45521">
        <ele>129.43</ele>
        <time>2013-11-24T09:01:41Z</time>
      </trkpt>
      <trkpt lat="48.60772" lon="-3.45531">
        <ele>129.43</ele>
        <time>2013-11-24T09:01:42Z</time>
      </trkpt>
      <trkpt lat="48.60791" lon="-3.45595">
        <ele>131.36</ele>
        <time>2013-11-24T09:01:49Z</time>
      </trkpt>
      <trkpt lat="48.60799" lon="-3.4571">
        <ele>133.76</ele>
        <time>2013-11-24T09:02:02Z</time>
      </trkpt>
      <trkpt lat="48.60785" lon="-3.45783">
        <ele>136.64</ele>
        <time>2013-11-24T09:02:11Z</time>
      </trkpt>
      <trkpt lat="48.60782" lon="-3.4579">
        <ele>136.64</ele>
        <time>2013-11-24T09:02:12Z</time>
      </trkpt>
      <trkpt lat="48.60752" lon="-3.459">
        <ele>137.61</ele>
        <time>2013-11-24T09:02:26Z</time>
      </trkpt>
      <trkpt lat="48.60748" lon="-3.45908">
        <ele>137.61</ele>
        <time>2013-11-24T09:02:27Z</time>
      </trkpt>
      <trkpt lat="48.60743" lon="-3.45915">
        <ele>137.61</ele>
        <time>2013-11-24T09:02:28Z</time>
      </trkpt>
      <trkpt lat="48.60738" lon="-3.45922">
        <ele>137.61</ele>
        <time>2013-11-24T09:02:29Z</time>
      </trkpt>
      <trkpt lat="48.60732" lon="-3.45928">
        <ele>137.13</ele>
        <time>2013-11-24T09:02:30Z</time>
      </trkpt>
      <trkpt lat="48.60725" lon="-3.45933">
        <ele>137.13</ele>
        <time>2013-11-24T09:02:31Z</time>
      </trkpt>
      <trkpt lat="48.60718" lon="-3.45936">
        <ele>137.13</ele>
        <time>2013-11-24T09:02:32Z</time>
      </trkpt>
      <trkpt lat="48.60711" lon="-3.45938">
        <ele>137.61</ele>
        <time>2013-11-24T09:02:33Z</time>
      </trkpt>
      <trkpt lat="48.60689" lon="-3.45945">
        <ele>136.16</ele>
        <time>2013-11-24T09:02:36Z</time>
      </trkpt>
      <trkpt lat="48.60659" lon="-3.45956">
        <ele>135.68</ele>
        <time>2013-11-24T09:02:40Z</time>
      </trkpt>
      <trkpt lat="48.60652" lon="-3.45961">
        <ele>135.2</ele>
        <time>2013-11-24T09:02:41Z</time>
      </trkpt>
      <trkpt lat="48.60646" lon="-3.45968">
        <ele>134.72</ele>
        <time>2013-11-24T09:02:42Z</time>
      </trkpt>
      <trkpt lat="48.60639" lon="-3.45975">
        <ele>134.72</ele>
        <time>2013-11-24T09:02:43Z</time>
      </trkpt>
      <trkpt lat="48.60634" lon="-3.45983">
        <ele>134.24</ele>
        <time>2013-11-24T09:02:44Z</time>
      </trkpt>
      <trkpt lat="48.60628" lon="-3.45993">
        <ele>134.24</ele>
        <time>2013-11-24T09:02:45Z</time>
      </trkpt>
      <trkpt lat="48.60624" lon="-3.46003">
        <ele>133.76</ele>
        <time>2013-11-24T09:02:46Z</time>
      </trkpt>
      <trkpt lat="48.60621" lon="-3.46015">
        <ele>133.76</ele>
        <time>2013-11-24T09:02:47Z</time>
      </trkpt>
      <trkpt lat="48.60619" lon="-3.46027">
        <ele>133.76</ele>
        <time>2013-11-24T09:02:48Z</time>
      </trkpt>
      <trkpt lat="48.60617" lon="-3.46039">
        <ele>133.28</ele>
        <time>2013-11-24T09:02:49Z</time>
      </trkpt>
      <trkpt lat="48.60612" lon="-3.46197">
        <ele>130.88</ele>
        <time>2013-11-24T09:03:03Z</time>
      </trkpt>
      <trkpt lat="48.60613" lon="-3.46266">
        <ele>129.92</ele>
        <time>2013-11-24T09:03:09Z</time>
      </trkpt>
      <trkpt lat="48.60615" lon="-3.46277">
        <ele>129.92</ele>
        <time>2013-11-24T09:03:10Z</time>
      </trkpt>
      <trkpt lat="48.60618" lon="-3.46288">
        <ele>129.92</ele>
        <time>2013-11-24T09:03:11Z</time>
      </trkpt>
      <trkpt lat="48.60648" lon="-3.46388">
        <ele>130.88</ele>
        <time>2013-11-24T09:03:22Z</time>
      </trkpt>
      <trkpt lat="48.60667" lon="-3.46572">
        <ele>133.76</ele>
        <time>2013-11-24T09:03:42Z</time>
      </trkpt>
      <trkpt lat="48.60683" lon="-3.4674">
        <ele>134.72</ele>
        <time>2013-11-24T09:04:00Z</time>
      </trkpt>
      <trkpt lat="48.60706" lon="-3.46878">
        <ele>132.32</ele>
        <time>2013-11-24T09:04:13Z</time>
      </trkpt>
      <trkpt lat="48.6071" lon="-3.46888">
        <ele>131.84</ele>
        <time>2013-11-24T09:04:14Z</time>
      </trkpt>
      <trkpt lat="48.60715" lon="-3.46896">
        <ele>131.84</ele>
        <time>2013-11-24T09:04:15Z</time>
      </trkpt>
      <trkpt lat="48.6072" lon="-3.46904">
        <ele>131.84</ele>
        <time>2013-11-24T09:04:16Z</time>
      </trkpt>
      <trkpt lat="48.60726" lon="-3.46912">
        <ele>131.84</ele>
        <time>2013-11-24T09:04:17Z</time>
      </trkpt>
      <trkpt lat="48.60803" lon="-3.46976">
        <ele>128.47</ele>
        <time>2013-11-24T09:04:28Z</time>
      </trkpt>
      <trkpt lat="48.60876" lon="-3.47031">
        <ele>125.11</ele>
        <time>2013-11-24T09:04:37Z</time>
      </trkpt>
      <trkpt lat="48.60985" lon="-3.47115">
        <ele>124.63</ele>
        <time>2013-11-24T09:04:51Z</time>
      </trkpt>
      <trkpt lat="48.61053" lon="-3.47169">
        <ele>127.51</ele>
        <time>2013-11-24T09:05:04Z</time>
      </trkpt>
      <trkpt lat="48.61113" lon="-3.47213">
        <ele>130.4</ele>
        <time>2013-11-24T09:05:16Z</time>
      </trkpt>
      <trkpt lat="48.61146" lon="-3.47237">
        <ele>132.32</ele>
        <time>2013-11-24T09:05:23Z</time>
      </trkpt>
      <trkpt lat="48.61159" lon="-3.47245">
        <ele>132.8</ele>
        <time>2013-11-24T09:05:26Z</time>
      </trkpt>
      <trkpt lat="48.61168" lon="-3.47253">
        <ele>133.28</ele>
        <time>2013-11-24T09:05:28Z</time>
      </trkpt>
      <trkpt lat="48.61171" lon="-3.47256">
        <ele>133.28</ele>
        <time>2013-11-24T09:05:29Z</time>
      </trkpt>
      <trkpt lat="48.61174" lon="-3.4726">
        <ele>133.76</ele>
        <time>2013-11-24T09:05:30Z</time>
      </trkpt>
      <trkpt lat="48.61175" lon="-3.47266">
        <ele>133.76</ele>
        <time>2013-11-24T09:05:31Z</time>
      </trkpt>
      <trkpt lat="48.61176" lon="-3.47272">
        <ele>133.76</ele>
        <time>2013-11-24T09:05:32Z</time>
      </trkpt>
      <trkpt lat="48.61175" lon="-3.47279">
        <ele>133.76</ele>
        <time>2013-11-24T09:05:33Z</time>
      </trkpt>
      <trkpt lat="48.61175" lon="-3.47287">
        <ele>133.76</ele>
        <time>2013-11-24T09:05:34Z</time>
      </trkpt>
      <trkpt lat="48.61175" lon="-3.47294">
        <ele>133.76</ele>
        <time>2013-11-24T09:05:35Z</time>
      </trkpt>
      <trkpt lat="48.61175" lon="-3.47302">
        <ele>133.76</ele>
        <time>2013-11-24T09:05:36Z</time>
      </trkpt>
      <trkpt lat="48.61175" lon="-3.4731">
        <ele>133.76</ele>
        <time>2013-11-24T09:05:37Z</time>
      </trkpt>
      <trkpt lat="48.61174" lon="-3.47318">
        <ele>134.24</ele>
        <time>2013-11-24T09:05:38Z</time>
      </trkpt>
      <trkpt lat="48.61174" lon="-3.47327">
        <ele>133.76</ele>
        <time>2013-11-24T09:05:39Z</time>
      </trkpt>
      <trkpt lat="48.61172" lon="-3.47336">
        <ele>133.28</ele>
        <time>2013-11-24T09:05:40Z</time>
      </trkpt>
      <trkpt lat="48.6117" lon="-3.47345">
        <ele>133.76</ele>
        <time>2013-11-24T09:05:41Z</time>
      </trkpt>
      <trkpt lat="48.61148" lon="-3.47436">
        <ele>131.84</ele>
        <time>2013-11-24T09:05:50Z</time>
      </trkpt>
      <trkpt lat="48.61136" lon="-3.47462">
        <ele>131.84</ele>
        <time>2013-11-24T09:05:53Z</time>
      </trkpt>
      <trkpt lat="48.61131" lon="-3.4747">
        <ele>131.84</ele>
        <time>2013-11-24T09:05:54Z</time>
      </trkpt>
      <trkpt lat="48.61126" lon="-3.47476">
        <ele>131.84</ele>
        <time>2013-11-24T09:05:55Z</time>
      </trkpt>
      <trkpt lat="48.61027" lon="-3.47572">
        <ele>131.36</ele>
        <time>2013-11-24T09:06:12Z</time>
      </trkpt>
      <trkpt lat="48.60919" lon="-3.47693">
        <ele>131.36</ele>
        <time>2013-11-24T09:06:31Z</time>
      </trkpt>
      <trkpt lat="48.60836" lon="-3.47796">
        <ele>134.72</ele>
        <time>2013-11-24T09:06:48Z</time>
      </trkpt>
      <trkpt lat="48.60745" lon="-3.47871">
        <ele>136.64</ele>
        <time>2013-11-24T09:07:06Z</time>
      </trkpt>
      <trkpt lat="48.6074" lon="-3.47876">
        <ele>136.64</ele>
        <time>2013-11-24T09:07:07Z</time>
      </trkpt>
      <trkpt lat="48.60736" lon="-3.47881">
        <ele>137.13</ele>
        <time>2013-11-24T09:07:08Z</time>
      </trkpt>
      <trkpt lat="48.60732" lon="-3.47887">
        <ele>137.13</ele>
        <time>2013-11-24T09:07:09Z</time>
      </trkpt>
      <trkpt lat="48.60729" lon="-3.47894">
        <ele>137.13</ele>
        <time>2013-11-24T09:07:10Z</time>
      </trkpt>
      <trkpt lat="48.60726" lon="-3.479">
        <ele>137.13</ele>
        <time>2013-11-24T09:07:11Z</time>
      </trkpt>
      <trkpt lat="48.60724" lon="-3.47907">
        <ele>138.09</ele>
        <time>2013-11-24T09:07:12Z</time>
      </trkpt>
      <trkpt lat="48.60705" lon="-3.47963">
        <ele>140.97</ele>
        <time>2013-11-24T09:07:21Z</time>
      </trkpt>
      <trkpt lat="48.60675" lon="-3.48049">
        <ele>144.34</ele>
        <time>2013-11-24T09:07:35Z</time>
      </trkpt>
      <trkpt lat="48.60642" lon="-3.48144">
        <ele>147.22</ele>
        <time>2013-11-24T09:07:50Z</time>
      </trkpt>
      <trkpt lat="48.60604" lon="-3.4823">
        <ele>150.58</ele>
        <time>2013-11-24T09:08:05Z</time>
      </trkpt>
      <trkpt lat="48.60548" lon="-3.48335">
        <ele>153.95</ele>
        <time>2013-11-24T09:08:24Z</time>
      </trkpt>
      <trkpt lat="48.60512" lon="-3.48416">
        <ele>156.83</ele>
        <time>2013-11-24T09:08:38Z</time>
      </trkpt>
      <trkpt lat="48.6048" lon="-3.48499">
        <ele>159.72</ele>
        <time>2013-11-24T09:08:52Z</time>
      </trkpt>
      <trkpt lat="48.6044" lon="-3.48556">
        <ele>162.6</ele>
        <time>2013-11-24T09:09:04Z</time>
      </trkpt>
      <trkpt lat="48.60368" lon="-3.48625">
        <ele>165.96</ele>
        <time>2013-11-24T09:09:22Z</time>
      </trkpt>
      <trkpt lat="48.60296" lon="-3.48689">
        <ele>169.33</ele>
        <time>2013-11-24T09:09:39Z</time>
      </trkpt>
      <trkpt lat="48.60245" lon="-3.48775">
        <ele>172.69</ele>
        <time>2013-11-24T09:09:55Z</time>
      </trkpt>
      <trkpt lat="48.6018" lon="-3.48864">
        <ele>175.58</ele>
        <time>2013-11-24T09:10:12Z</time>
      </trkpt>
      <trkpt lat="48.60084" lon="-3.48952">
        <ele>177.02</ele>
        <time>2013-11-24T09:10:31Z</time>
      </trkpt>
      <trkpt lat="48.59977" lon="-3.49043">
        <ele>177.98</ele>
        <time>2013-11-24T09:10:50Z</time>
      </trkpt>
      <trkpt lat="48.59857" lon="-3.4914">
        <ele>180.38</ele>
        <time>2013-11-24T09:11:09Z</time>
      </trkpt>
      <trkpt lat="48.5975" lon="-3.49187">
        <ele>180.87</ele>
        <time>2013-11-24T09:11:25Z</time>
      </trkpt>
      <trkpt lat="48.5964" lon="-3.49242">
        <ele>180.87</ele>
        <time>2013-11-24T09:11:39Z</time>
      </trkpt>
      <trkpt lat="48.59521" lon="-3.49335">
        <ele>180.38</ele>
        <time>2013-11-24T09:11:55Z</time>
      </trkpt>
      <trkpt lat="48.59379" lon="-3.49473">
        <ele>179.9</ele>
        <time>2013-11-24T09:12:15Z</time>
      </trkpt>
      <trkpt lat="48.59255" lon="-3.49532">
        <ele>178.94</ele>
        <time>2013-11-24T09:12:29Z</time>
      </trkpt>
      <trkpt lat="48.59107" lon="-3.49589">
        <ele>177.5</ele>
        <time>2013-11-24T09:12:46Z</time>
      </trkpt>
      <trkpt lat="48.58974" lon="-3.49588">
        <ele>178.46</ele>
        <time>2013-11-24T09:13:02Z</time>
      </trkpt>
      <trkpt lat="48.58865" lon="-3.49562">
        <ele>178.46</ele>
        <time>2013-11-24T09:13:17Z</time>
      </trkpt>
      <trkpt lat="48.58859" lon="-3.49563">
        <ele>178.46</ele>
        <time>2013-11-24T09:13:18Z</time>
      </trkpt>
      <trkpt lat="48.58852" lon="-3.49567">
        <ele>177.98</ele>
        <time>2013-11-24T09:13:19Z</time>
      </trkpt>
      <trkpt lat="48.58846" lon="-3.49573">
        <ele>178.46</ele>
        <time>2013-11-24T09:13:20Z</time>
      </trkpt>
      <trkpt lat="48.5884" lon="-3.49581">
        <ele>178.46</ele>
        <time>2013-11-24T09:13:21Z</time>
      </trkpt>
      <trkpt lat="48.58835" lon="-3.49589">
        <ele>177.98</ele>
        <time>2013-11-24T09:13:22Z</time>
      </trkpt>
      <trkpt lat="48.58775" lon="-3.49702">
        <ele>176.54</ele>
        <time>2013-11-24T09:13:34Z</time>
      </trkpt>
      <trkpt lat="48.58727" lon="-3.49864">
        <ele>176.06</ele>
        <time>2013-11-24T09:13:49Z</time>
      </trkpt>
      <trkpt lat="48.58714" lon="-3.49923">
        <ele>175.1</ele>
        <time>2013-11-24T09:13:54Z</time>
      </trkpt>
      <trkpt lat="48.58712" lon="-3.49948">
        <ele>174.62</ele>
        <time>2013-11-24T09:13:56Z</time>
      </trkpt>
      <trkpt lat="48.58707" lon="-3.50113">
        <ele>173.66</ele>
        <time>2013-11-24T09:14:09Z</time>
      </trkpt>
      <trkpt lat="48.58678" lon="-3.50261">
        <ele>174.62</ele>
        <time>2013-11-24T09:14:22Z</time>
      </trkpt>
      <trkpt lat="48.58667" lon="-3.50296">
        <ele>175.58</ele>
        <time>2013-11-24T09:14:26Z</time>
      </trkpt>
      <trkpt lat="48.58666" lon="-3.50305">
        <ele>175.58</ele>
        <time>2013-11-24T09:14:27Z</time>
      </trkpt>
      <trkpt lat="48.58665" lon="-3.50314">
        <ele>175.58</ele>
        <time>2013-11-24T09:14:28Z</time>
      </trkpt>
      <trkpt lat="48.58666" lon="-3.50323">
        <ele>176.06</ele>
        <time>2013-11-24T09:14:29Z</time>
      </trkpt>
      <trkpt lat="48.58667" lon="-3.50333">
        <ele>176.06</ele>
        <time>2013-11-24T09:14:30Z</time>
      </trkpt>
      <trkpt lat="48.58668" lon="-3.50342">
        <ele>176.54</ele>
        <time>2013-11-24T09:14:31Z</time>
      </trkpt>
      <trkpt lat="48.58678" lon="-3.50433">
        <ele>179.42</ele>
        <time>2013-11-24T09:14:41Z</time>
      </trkpt>
      <trkpt lat="48.58713" lon="-3.50547">
        <ele>182.31</ele>
        <time>2013-11-24T09:14:55Z</time>
      </trkpt>
      <trkpt lat="48.58765" lon="-3.5068">
        <ele>180.87</ele>
        <time>2013-11-24T09:15:10Z</time>
      </trkpt>
      <trkpt lat="48.5879" lon="-3.50809">
        <ele>178.94</ele>
        <time>2013-11-24T09:15:21Z</time>
      </trkpt>
      <trkpt lat="48.58822" lon="-3.5102">
        <ele>177.02</ele>
        <time>2013-11-24T09:15:37Z</time>
      </trkpt>
      <trkpt lat="48.5888" lon="-3.51123">
        <ele>175.1</ele>
        <time>2013-11-24T09:15:47Z</time>
      </trkpt>
      <trkpt lat="48.58954" lon="-3.51184">
        <ele>171.73</ele>
        <time>2013-11-24T09:15:56Z</time>
      </trkpt>
      <trkpt lat="48.58992" lon="-3.51213">
        <ele>170.29</ele>
        <time>2013-11-24T09:16:00Z</time>
      </trkpt>
      <trkpt lat="48.59065" lon="-3.51278">
        <ele>167.41</ele>
        <time>2013-11-24T09:16:08Z</time>
      </trkpt>
      <trkpt lat="48.59103" lon="-3.51333">
        <ele>164.04</ele>
        <time>2013-11-24T09:16:13Z</time>
      </trkpt>
      <trkpt lat="48.59195" lon="-3.51473">
        <ele>163.56</ele>
        <time>2013-11-24T09:16:26Z</time>
      </trkpt>
      <trkpt lat="48.59201" lon="-3.51482">
        <ele>163.56</ele>
        <time>2013-11-24T09:16:27Z</time>
      </trkpt>
      <trkpt lat="48.5929" lon="-3.51612">
        <ele>165.96</ele>
        <time>2013-11-24T09:16:43Z</time>
      </trkpt>
      <trkpt lat="48.59325" lon="-3.51656">
        <ele>166.93</ele>
        <time>2013-11-24T09:16:50Z</time>
      </trkpt>
      <trkpt lat="48.59332" lon="-3.51661">
        <ele>166.93</ele>
        <time>2013-11-24T09:16:51Z</time>
      </trkpt>
      <trkpt lat="48.59338" lon="-3.51665">
        <ele>166.93</ele>
        <time>2013-11-24T09:16:52Z</time>
      </trkpt>
      <trkpt lat="48.59389" lon="-3.51685">
        <ele>168.85</ele>
        <time>2013-11-24T09:17:00Z</time>
      </trkpt>
      <trkpt lat="48.59489" lon="-3.51692">
        <ele>170.29</ele>
        <time>2013-11-24T09:17:15Z</time>
      </trkpt>
      <trkpt lat="48.59578" lon="-3.51741">
        <ele>168.85</ele>
        <time>2013-11-24T09:17:28Z</time>
      </trkpt>
      <trkpt lat="48.59654" lon="-3.5181">
        <ele>169.33</ele>
        <time>2013-11-24T09:17:40Z</time>
      </trkpt>
      <trkpt lat="48.59741" lon="-3.5191">
        <ele>166.45</ele>
        <time>2013-11-24T09:17:54Z</time>
      </trkpt>
      <trkpt lat="48.59825" lon="-3.52009">
        <ele>166.45</ele>
        <time>2013-11-24T09:18:07Z</time>
      </trkpt>
      <trkpt lat="48.59907" lon="-3.52119">
        <ele>166.93</ele>
        <time>2013-11-24T09:18:20Z</time>
      </trkpt>
      <trkpt lat="48.59944" lon="-3.5224">
        <ele>167.41</ele>
        <time>2013-11-24T09:18:31Z</time>
      </trkpt>
      <trkpt lat="48.59971" lon="-3.52315">
        <ele>166.93</ele>
        <time>2013-11-24T09:18:38Z</time>
      </trkpt>
      <trkpt lat="48.60061" lon="-3.52436">
        <ele>165.96</ele>
        <time>2013-11-24T09:18:53Z</time>
      </trkpt>
      <trkpt lat="48.60163" lon="-3.52523">
        <ele>165.48</ele>
        <time>2013-11-24T09:19:08Z</time>
      </trkpt>
      <trkpt lat="48.60261" lon="-3.52582">
        <ele>162.6</ele>
        <time>2013-11-24T09:19:20Z</time>
      </trkpt>
      <trkpt lat="48.60298" lon="-3.52599">
        <ele>160.68</ele>
        <time>2013-11-24T09:19:24Z</time>
      </trkpt>
      <trkpt lat="48.60334" lon="-3.52611">
        <ele>158.75</ele>
        <time>2013-11-24T09:19:28Z</time>
      </trkpt>
      <trkpt lat="48.60429" lon="-3.52643">
        <ele>154.43</ele>
        <time>2013-11-24T09:19:39Z</time>
      </trkpt>
      <trkpt lat="48.60438" lon="-3.52646">
        <ele>154.43</ele>
        <time>2013-11-24T09:19:40Z</time>
      </trkpt>
      <trkpt lat="48.60466" lon="-3.52656">
        <ele>152.99</ele>
        <time>2013-11-24T09:19:43Z</time>
      </trkpt>
      <trkpt lat="48.60516" lon="-3.52674">
        <ele>150.1</ele>
        <time>2013-11-24T09:19:48Z</time>
      </trkpt>
      <trkpt lat="48.60548" lon="-3.52685">
        <ele>146.74</ele>
        <time>2013-11-24T09:19:51Z</time>
      </trkpt>
      <trkpt lat="48.60605" lon="-3.52706">
        <ele>142.89</ele>
        <time>2013-11-24T09:19:56Z</time>
      </trkpt>
      <trkpt lat="48.60638" lon="-3.52718">
        <ele>141.45</ele>
        <time>2013-11-24T09:19:59Z</time>
      </trkpt>
      <trkpt lat="48.60658" lon="-3.52727">
        <ele>141.45</ele>
        <time>2013-11-24T09:20:01Z</time>
      </trkpt>
      <trkpt lat="48.60734" lon="-3.52762">
        <ele>143.85</ele>
        <time>2013-11-24T09:20:11Z</time>
      </trkpt>
      <trkpt lat="48.60776" lon="-3.5278">
        <ele>146.74</ele>
        <time>2013-11-24T09:20:18Z</time>
      </trkpt>
      <trkpt lat="48.60833" lon="-3.52813">
        <ele>150.1</ele>
        <time>2013-11-24T09:20:28Z</time>
      </trkpt>
      <trkpt lat="48.60924" lon="-3.52889">
        <ele>150.1</ele>
        <time>2013-11-24T09:20:43Z</time>
      </trkpt>
      <trkpt lat="48.61019" lon="-3.52972">
        <ele>147.22</ele>
        <time>2013-11-24T09:20:56Z</time>
      </trkpt>
      <trkpt lat="48.61088" lon="-3.53049">
        <ele>144.34</ele>
        <time>2013-11-24T09:21:05Z</time>
      </trkpt>
      <trkpt lat="48.61095" lon="-3.53061">
        <ele>143.37</ele>
        <time>2013-11-24T09:21:06Z</time>
      </trkpt>
      <trkpt lat="48.61101" lon="-3.53074">
        <ele>143.37</ele>
        <time>2013-11-24T09:21:07Z</time>
      </trkpt>
      <trkpt lat="48.61166" lon="-3.5322">
        <ele>145.3</ele>
        <time>2013-11-24T09:21:20Z</time>
      </trkpt>
      <trkpt lat="48.61235" lon="-3.53309">
        <ele>146.74</ele>
        <time>2013-11-24T09:21:32Z</time>
      </trkpt>
      <trkpt lat="48.61338" lon="-3.5337">
        <ele>145.3</ele>
        <time>2013-11-24T09:21:46Z</time>
      </trkpt>
      <trkpt lat="48.61397" lon="-3.53437">
        <ele>142.41</ele>
        <time>2013-11-24T09:21:55Z</time>
      </trkpt>
      <trkpt lat="48.61434" lon="-3.53498">
        <ele>138.57</ele>
        <time>2013-11-24T09:22:01Z</time>
      </trkpt>
      <trkpt lat="48.6144" lon="-3.53508">
        <ele>138.09</ele>
        <time>2013-11-24T09:22:02Z</time>
      </trkpt>
      <trkpt lat="48.61457" lon="-3.53538">
        <ele>136.16</ele>
        <time>2013-11-24T09:22:05Z</time>
      </trkpt>
      <trkpt lat="48.61483" lon="-3.53597">
        <ele>134.72</ele>
        <time>2013-11-24T09:22:12Z</time>
      </trkpt>
      <trkpt lat="48.61486" lon="-3.53602">
        <ele>134.72</ele>
        <time>2013-11-24T09:22:13Z</time>
      </trkpt>
      <trkpt lat="48.61489" lon="-3.53606">
        <ele>135.2</ele>
        <time>2013-11-24T09:22:14Z</time>
      </trkpt>
      <trkpt lat="48.61494" lon="-3.53608">
        <ele>135.2</ele>
        <time>2013-11-24T09:22:15Z</time>
      </trkpt>
      <trkpt lat="48.61499" lon="-3.5361">
        <ele>134.72</ele>
        <time>2013-11-24T09:22:16Z</time>
      </trkpt>
      <trkpt lat="48.61505" lon="-3.53612">
        <ele>134.72</ele>
        <time>2013-11-24T09:22:17Z</time>
      </trkpt>
      <trkpt lat="48.61547" lon="-3.53622">
        <ele>131.84</ele>
        <time>2013-11-24T09:22:23Z</time>
      </trkpt>
      <trkpt lat="48.61605" lon="-3.53648">
        <ele>128.47</ele>
        <time>2013-11-24T09:22:30Z</time>
      </trkpt>
      <trkpt lat="48.61677" lon="-3.53687">
        <ele>125.11</ele>
        <time>2013-11-24T09:22:38Z</time>
      </trkpt>
      <trkpt lat="48.61696" lon="-3.53695">
        <ele>124.15</ele>
        <time>2013-11-24T09:22:40Z</time>
      </trkpt>
      <trkpt lat="48.61768" lon="-3.53757">
        <ele>121.26</ele>
        <time>2013-11-24T09:22:49Z</time>
      </trkpt>
      <trkpt lat="48.61811" lon="-3.53796">
        <ele>120.3</ele>
        <time>2013-11-24T09:22:55Z</time>
      </trkpt>
      <trkpt lat="48.61819" lon="-3.538">
        <ele>120.3</ele>
        <time>2013-11-24T09:22:56Z</time>
      </trkpt>
      <trkpt lat="48.61827" lon="-3.53803">
        <ele>119.82</ele>
        <time>2013-11-24T09:22:57Z</time>
      </trkpt>
      <trkpt lat="48.61916" lon="-3.53826">
        <ele>120.3</ele>
        <time>2013-11-24T09:23:09Z</time>
      </trkpt>
      <trkpt lat="48.61921" lon="-3.53826">
        <ele>120.3</ele>
        <time>2013-11-24T09:23:10Z</time>
      </trkpt>
      <trkpt lat="48.61927" lon="-3.53824">
        <ele>119.82</ele>
        <time>2013-11-24T09:23:11Z</time>
      </trkpt>
      <trkpt lat="48.61931" lon="-3.53819">
        <ele>119.82</ele>
        <time>2013-11-24T09:23:12Z</time>
      </trkpt>
      <trkpt lat="48.61935" lon="-3.53812">
        <ele>119.34</ele>
        <time>2013-11-24T09:23:13Z</time>
      </trkpt>
      <trkpt lat="48.61938" lon="-3.53805">
        <ele>118.86</ele>
        <time>2013-11-24T09:23:14Z</time>
      </trkpt>
      <trkpt lat="48.61942" lon="-3.53799">
        <ele>118.86</ele>
        <time>2013-11-24T09:23:15Z</time>
      </trkpt>
      <trkpt lat="48.61946" lon="-3.53794">
        <ele>118.86</ele>
        <time>2013-11-24T09:23:16Z</time>
      </trkpt>
      <trkpt lat="48.61952" lon="-3.53791">
        <ele>118.38</ele>
        <time>2013-11-24T09:23:17Z</time>
      </trkpt>
      <trkpt lat="48.61958" lon="-3.5379">
        <ele>118.38</ele>
        <time>2013-11-24T09:23:18Z</time>
      </trkpt>
      <trkpt lat="48.61965" lon="-3.5379">
        <ele>118.38</ele>
        <time>2013-11-24T09:23:19Z</time>
      </trkpt>
      <trkpt lat="48.61972" lon="-3.53792">
        <ele>117.9</ele>
        <time>2013-11-24T09:23:20Z</time>
      </trkpt>
      <trkpt lat="48.62014" lon="-3.53803">
        <ele>117.9</ele>
        <time>2013-11-24T09:23:26Z</time>
      </trkpt>
      <trkpt lat="48.6202" lon="-3.53807">
        <ele>117.9</ele>
        <time>2013-11-24T09:23:27Z</time>
      </trkpt>
      <trkpt lat="48.62025" lon="-3.53812">
        <ele>117.9</ele>
        <time>2013-11-24T09:23:28Z</time>
      </trkpt>
      <trkpt lat="48.62029" lon="-3.53818">
        <ele>117.42</ele>
        <time>2013-11-24T09:23:29Z</time>
      </trkpt>
      <trkpt lat="48.62031" lon="-3.53826">
        <ele>117.42</ele>
        <time>2013-11-24T09:23:30Z</time>
      </trkpt>
      <trkpt lat="48.62033" lon="-3.53834">
        <ele>117.42</ele>
        <time>2013-11-24T09:23:31Z</time>
      </trkpt>
      <trkpt lat="48.62034" lon="-3.53843">
        <ele>117.9</ele>
        <time>2013-11-24T09:23:32Z</time>
      </trkpt>
      <trkpt lat="48.62034" lon="-3.53851">
        <ele>117.9</ele>
        <time>2013-11-24T09:23:33Z</time>
      </trkpt>
      <trkpt lat="48.62034" lon="-3.53859">
        <ele>118.38</ele>
        <time>2013-11-24T09:23:34Z</time>
      </trkpt>
      <trkpt lat="48.62034" lon="-3.53867">
        <ele>118.38</ele>
        <time>2013-11-24T09:23:35Z</time>
      </trkpt>
      <trkpt lat="48.62035" lon="-3.53897">
        <ele>119.34</ele>
        <time>2013-11-24T09:23:39Z</time>
      </trkpt>
      <trkpt lat="48.62037" lon="-3.53915">
        <ele>120.3</ele>
        <time>2013-11-24T09:23:41Z</time>
      </trkpt>
      <trkpt lat="48.62037" lon="-3.53924">
        <ele>120.3</ele>
        <time>2013-11-24T09:23:42Z</time>
      </trkpt>
      <trkpt lat="48.62036" lon="-3.54029">
        <ele>122.22</ele>
        <time>2013-11-24T09:23:55Z</time>
      </trkpt>
      <trkpt lat="48.62034" lon="-3.54078">
        <ele>121.26</ele>
        <time>2013-11-24T09:24:01Z</time>
      </trkpt>
      <trkpt lat="48.62035" lon="-3.54088">
        <ele>120.78</ele>
        <time>2013-11-24T09:24:02Z</time>
      </trkpt>
      <trkpt lat="48.62038" lon="-3.54097">
        <ele>119.82</ele>
        <time>2013-11-24T09:24:03Z</time>
      </trkpt>
      <trkpt lat="48.62043" lon="-3.54104">
        <ele>119.82</ele>
        <time>2013-11-24T09:24:04Z</time>
      </trkpt>
      <trkpt lat="48.62049" lon="-3.54108">
        <ele>119.82</ele>
        <time>2013-11-24T09:24:05Z</time>
      </trkpt>
      <trkpt lat="48.62056" lon="-3.5411">
        <ele>119.34</ele>
        <time>2013-11-24T09:24:06Z</time>
      </trkpt>
      <trkpt lat="48.62064" lon="-3.54112">
        <ele>119.34</ele>
        <time>2013-11-24T09:24:07Z</time>
      </trkpt>
      <trkpt lat="48.62134" lon="-3.54131">
        <ele>115.98</ele>
        <time>2013-11-24T09:24:15Z</time>
      </trkpt>
      <trkpt lat="48.62222" lon="-3.54187">
        <ele>115.01</ele>
        <time>2013-11-24T09:24:26Z</time>
      </trkpt>
      <trkpt lat="48.62259" lon="-3.54208">
        <ele>113.09</ele>
        <time>2013-11-24T09:24:31Z</time>
      </trkpt>
      <trkpt lat="48.62342" lon="-3.54272">
        <ele>109.25</ele>
        <time>2013-11-24T09:24:42Z</time>
      </trkpt>
      <trkpt lat="48.6239" lon="-3.54348">
        <ele>106.84</ele>
        <time>2013-11-24T09:24:50Z</time>
      </trkpt>
      <trkpt lat="48.62428" lon="-3.54452">
        <ele>103.96</ele>
        <time>2013-11-24T09:24:59Z</time>
      </trkpt>
      <trkpt lat="48.62462" lon="-3.54491">
        <ele>103</ele>
        <time>2013-11-24T09:25:04Z</time>
      </trkpt>
      <trkpt lat="48.6247" lon="-3.54496">
        <ele>103</ele>
        <time>2013-11-24T09:25:05Z</time>
      </trkpt>
      <trkpt lat="48.62478" lon="-3.54499">
        <ele>103</ele>
        <time>2013-11-24T09:25:06Z</time>
      </trkpt>
      <trkpt lat="48.62486" lon="-3.54501">
        <ele>103</ele>
        <time>2013-11-24T09:25:07Z</time>
      </trkpt>
      <trkpt lat="48.62494" lon="-3.54502">
        <ele>103</ele>
        <time>2013-11-24T09:25:08Z</time>
      </trkpt>
      <trkpt lat="48.62618" lon="-3.54513">
        <ele>99.63</ele>
        <time>2013-11-24T09:25:23Z</time>
      </trkpt>
      <trkpt lat="48.62666" lon="-3.54532">
        <ele>97.23</ele>
        <time>2013-11-24T09:25:29Z</time>
      </trkpt>
      <trkpt lat="48.6277" lon="-3.54584">
        <ele>95.79</ele>
        <time>2013-11-24T09:25:42Z</time>
      </trkpt>
      <trkpt lat="48.62777" lon="-3.5459">
        <ele>95.31</ele>
        <time>2013-11-24T09:25:43Z</time>
      </trkpt>
      <trkpt lat="48.62783" lon="-3.54596">
        <ele>95.31</ele>
        <time>2013-11-24T09:25:44Z</time>
      </trkpt>
      <trkpt lat="48.62789" lon="-3.54604">
        <ele>95.31</ele>
        <time>2013-11-24T09:25:45Z</time>
      </trkpt>
      <trkpt lat="48.62795" lon="-3.54612">
        <ele>95.31</ele>
        <time>2013-11-24T09:25:46Z</time>
      </trkpt>
      <trkpt lat="48.62913" lon="-3.5477">
        <ele>93.39</ele>
        <time>2013-11-24T09:26:06Z</time>
      </trkpt>
      <trkpt lat="48.62991" lon="-3.54878">
        <ele>94.35</ele>
        <time>2013-11-24T09:26:19Z</time>
      </trkpt>
      <trkpt lat="48.63073" lon="-3.54962">
        <ele>96.75</ele>
        <time>2013-11-24T09:26:33Z</time>
      </trkpt>
      <trkpt lat="48.63181" lon="-3.55044">
        <ele>94.83</ele>
        <time>2013-11-24T09:26:49Z</time>
      </trkpt>
      <trkpt lat="48.63271" lon="-3.55116">
        <ele>91.94</ele>
        <time>2013-11-24T09:27:01Z</time>
      </trkpt>
      <trkpt lat="48.63407" lon="-3.55155">
        <ele>91.46</ele>
        <time>2013-11-24T09:27:17Z</time>
      </trkpt>
      <trkpt lat="48.6352" lon="-3.55177">
        <ele>93.39</ele>
        <time>2013-11-24T09:27:32Z</time>
      </trkpt>
      <trkpt lat="48.63608" lon="-3.55217">
        <ele>96.27</ele>
        <time>2013-11-24T09:27:45Z</time>
      </trkpt>
      <trkpt lat="48.63665" lon="-3.55241">
        <ele>99.15</ele>
        <time>2013-11-24T09:27:56Z</time>
      </trkpt>
      <trkpt lat="48.63717" lon="-3.55274">
        <ele>103</ele>
        <time>2013-11-24T09:28:08Z</time>
      </trkpt>
      <trkpt lat="48.63764" lon="-3.55354">
        <ele>105.88</ele>
        <time>2013-11-24T09:28:22Z</time>
      </trkpt>
      <trkpt lat="48.63822" lon="-3.5547">
        <ele>104.92</ele>
        <time>2013-11-24T09:28:36Z</time>
      </trkpt>
      <trkpt lat="48.63887" lon="-3.556">
        <ele>103.96</ele>
        <time>2013-11-24T09:28:49Z</time>
      </trkpt>
      <trkpt lat="48.63947" lon="-3.55645">
        <ele>104.44</ele>
        <time>2013-11-24T09:28:58Z</time>
      </trkpt>
      <trkpt lat="48.64069" lon="-3.55693">
        <ele>107.32</ele>
        <time>2013-11-24T09:29:16Z</time>
      </trkpt>
      <trkpt lat="48.64129" lon="-3.55733">
        <ele>110.69</ele>
        <time>2013-11-24T09:29:27Z</time>
      </trkpt>
      <trkpt lat="48.64214" lon="-3.55817">
        <ele>114.05</ele>
        <time>2013-11-24T09:29:43Z</time>
      </trkpt>
      <trkpt lat="48.64292" lon="-3.55867">
        <ele>114.05</ele>
        <time>2013-11-24T09:29:55Z</time>
      </trkpt>
      <trkpt lat="48.64408" lon="-3.55935">
        <ele>110.69</ele>
        <time>2013-11-24T09:30:09Z</time>
      </trkpt>
      <trkpt lat="48.64494" lon="-3.56003">
        <ele>107.81</ele>
        <time>2013-11-24T09:30:19Z</time>
      </trkpt>
      <trkpt lat="48.64537" lon="-3.5603">
        <ele>104.44</ele>
        <time>2013-11-24T09:30:24Z</time>
      </trkpt>
      <trkpt lat="48.64582" lon="-3.56054">
        <ele>103</ele>
        <time>2013-11-24T09:30:29Z</time>
      </trkpt>
      <trkpt lat="48.64634" lon="-3.56082">
        <ele>102.04</ele>
        <time>2013-11-24T09:30:35Z</time>
      </trkpt>
      <trkpt lat="48.64641" lon="-3.56089">
        <ele>102.52</ele>
        <time>2013-11-24T09:30:36Z</time>
      </trkpt>
      <trkpt lat="48.64669" lon="-3.56115">
        <ele>102.52</ele>
        <time>2013-11-24T09:30:40Z</time>
      </trkpt>
      <trkpt lat="48.64677" lon="-3.56119">
        <ele>102.52</ele>
        <time>2013-11-24T09:30:41Z</time>
      </trkpt>
      <trkpt lat="48.64684" lon="-3.56122">
        <ele>103</ele>
        <time>2013-11-24T09:30:42Z</time>
      </trkpt>
      <trkpt lat="48.64789" lon="-3.56138">
        <ele>103.48</ele>
        <time>2013-11-24T09:30:55Z</time>
      </trkpt>
      <trkpt lat="48.64828" lon="-3.56129">
        <ele>103</ele>
        <time>2013-11-24T09:31:00Z</time>
      </trkpt>
      <trkpt lat="48.64837" lon="-3.5613">
        <ele>103</ele>
        <time>2013-11-24T09:31:01Z</time>
      </trkpt>
      <trkpt lat="48.64844" lon="-3.56133">
        <ele>102.52</ele>
        <time>2013-11-24T09:31:02Z</time>
      </trkpt>
      <trkpt lat="48.64852" lon="-3.56137">
        <ele>103</ele>
        <time>2013-11-24T09:31:03Z</time>
      </trkpt>
      <trkpt lat="48.64858" lon="-3.56143">
        <ele>103</ele>
        <time>2013-11-24T09:31:04Z</time>
      </trkpt>
      <trkpt lat="48.64865" lon="-3.5615">
        <ele>102.52</ele>
        <time>2013-11-24T09:31:05Z</time>
      </trkpt>
      <trkpt lat="48.6487" lon="-3.56158">
        <ele>103</ele>
        <time>2013-11-24T09:31:06Z</time>
      </trkpt>
      <trkpt lat="48.64875" lon="-3.56166">
        <ele>103</ele>
        <time>2013-11-24T09:31:07Z</time>
      </trkpt>
      <trkpt lat="48.6488" lon="-3.56174">
        <ele>103</ele>
        <time>2013-11-24T09:31:08Z</time>
      </trkpt>
      <trkpt lat="48.64885" lon="-3.56183">
        <ele>103</ele>
        <time>2013-11-24T09:31:09Z</time>
      </trkpt>
      <trkpt lat="48.64962" lon="-3.56325">
        <ele>101.56</ele>
        <time>2013-11-24T09:31:23Z</time>
      </trkpt>
      <trkpt lat="48.65004" lon="-3.56401">
        <ele>98.19</ele>
        <time>2013-11-24T09:31:30Z</time>
      </trkpt>
      <trkpt lat="48.65018" lon="-3.56422">
        <ele>97.23</ele>
        <time>2013-11-24T09:31:32Z</time>
      </trkpt>
      <trkpt lat="48.65053" lon="-3.56459">
        <ele>94.83</ele>
        <time>2013-11-24T09:31:36Z</time>
      </trkpt>
      <trkpt lat="48.65063" lon="-3.56465">
        <ele>93.87</ele>
        <time>2013-11-24T09:31:37Z</time>
      </trkpt>
      <trkpt lat="48.65073" lon="-3.56469">
        <ele>92.9</ele>
        <time>2013-11-24T09:31:38Z</time>
      </trkpt>
      <trkpt lat="48.65083" lon="-3.56472">
        <ele>92.42</ele>
        <time>2013-11-24T09:31:39Z</time>
      </trkpt>
      <trkpt lat="48.65092" lon="-3.56473">
        <ele>92.42</ele>
        <time>2013-11-24T09:31:40Z</time>
      </trkpt>
      <trkpt lat="48.6511" lon="-3.56476">
        <ele>91.94</ele>
        <time>2013-11-24T09:31:42Z</time>
      </trkpt>
      <trkpt lat="48.65118" lon="-3.5648">
        <ele>91.46</ele>
        <time>2013-11-24T09:31:43Z</time>
      </trkpt>
      <trkpt lat="48.65125" lon="-3.56487">
        <ele>91.46</ele>
        <time>2013-11-24T09:31:44Z</time>
      </trkpt>
      <trkpt lat="48.65131" lon="-3.56497">
        <ele>90.98</ele>
        <time>2013-11-24T09:31:45Z</time>
      </trkpt>
      <trkpt lat="48.65136" lon="-3.56509">
        <ele>90.5</ele>
        <time>2013-11-24T09:31:46Z</time>
      </trkpt>
      <trkpt lat="48.65139" lon="-3.56522">
        <ele>90.98</ele>
        <time>2013-11-24T09:31:47Z</time>
      </trkpt>
      <trkpt lat="48.65141" lon="-3.56536">
        <ele>90.5</ele>
        <time>2013-11-24T09:31:48Z</time>
      </trkpt>
      <trkpt lat="48.65143" lon="-3.5655">
        <ele>90.5</ele>
        <time>2013-11-24T09:31:49Z</time>
      </trkpt>
      <trkpt lat="48.65147" lon="-3.56577">
        <ele>90.5</ele>
        <time>2013-11-24T09:31:51Z</time>
      </trkpt>
      <trkpt lat="48.65151" lon="-3.56589">
        <ele>90.98</ele>
        <time>2013-11-24T09:31:52Z</time>
      </trkpt>
      <trkpt lat="48.65154" lon="-3.56601">
        <ele>90.98</ele>
        <time>2013-11-24T09:31:53Z</time>
      </trkpt>
      <trkpt lat="48.6516" lon="-3.56611">
        <ele>90.98</ele>
        <time>2013-11-24T09:31:54Z</time>
      </trkpt>
      <trkpt lat="48.65167" lon="-3.56619">
        <ele>90.5</ele>
        <time>2013-11-24T09:31:55Z</time>
      </trkpt>
      <trkpt lat="48.65175" lon="-3.56626">
        <ele>90.98</ele>
        <time>2013-11-24T09:31:56Z</time>
      </trkpt>
      <trkpt lat="48.65184" lon="-3.56632">
        <ele>90.98</ele>
        <time>2013-11-24T09:31:57Z</time>
      </trkpt>
      <trkpt lat="48.65273" lon="-3.56701">
        <ele>91.94</ele>
        <time>2013-11-24T09:32:09Z</time>
      </trkpt>
      <trkpt lat="48.65325" lon="-3.5673">
        <ele>94.35</ele>
        <time>2013-11-24T09:32:17Z</time>
      </trkpt>
      <trkpt lat="48.65375" lon="-3.56734">
        <ele>95.79</ele>
        <time>2013-11-24T09:32:25Z</time>
      </trkpt>
      <trkpt lat="48.65381" lon="-3.56736">
        <ele>96.27</ele>
        <time>2013-11-24T09:32:26Z</time>
      </trkpt>
      <trkpt lat="48.65387" lon="-3.56739">
        <ele>96.75</ele>
        <time>2013-11-24T09:32:27Z</time>
      </trkpt>
      <trkpt lat="48.65398" lon="-3.56748">
        <ele>97.23</ele>
        <time>2013-11-24T09:32:29Z</time>
      </trkpt>
      <trkpt lat="48.65402" lon="-3.56753">
        <ele>97.71</ele>
        <time>2013-11-24T09:32:30Z</time>
      </trkpt>
      <trkpt lat="48.65442" lon="-3.56832">
        <ele>100.6</ele>
        <time>2013-11-24T09:32:42Z</time>
      </trkpt>
      <trkpt lat="48.65456" lon="-3.56859">
        <ele>102.04</ele>
        <time>2013-11-24T09:32:46Z</time>
      </trkpt>
      <trkpt lat="48.65513" lon="-3.5691">
        <ele>104.92</ele>
        <time>2013-11-24T09:32:58Z</time>
      </trkpt>
      <trkpt lat="48.65612" lon="-3.56973">
        <ele>106.36</ele>
        <time>2013-11-24T09:33:15Z</time>
      </trkpt>
      <trkpt lat="48.65721" lon="-3.5704">
        <ele>104.92</ele>
        <time>2013-11-24T09:33:31Z</time>
      </trkpt>
      <trkpt lat="48.65737" lon="-3.57045">
        <ele>104.44</ele>
        <time>2013-11-24T09:33:33Z</time>
      </trkpt>
      <trkpt lat="48.65746" lon="-3.57046">
        <ele>103.48</ele>
        <time>2013-11-24T09:33:34Z</time>
      </trkpt>
      <trkpt lat="48.65754" lon="-3.57045">
        <ele>103</ele>
        <time>2013-11-24T09:33:35Z</time>
      </trkpt>
      <trkpt lat="48.65799" lon="-3.57036">
        <ele>99.63</ele>
        <time>2013-11-24T09:33:40Z</time>
      </trkpt>
      <trkpt lat="48.65809" lon="-3.57034">
        <ele>99.63</ele>
        <time>2013-11-24T09:33:41Z</time>
      </trkpt>
      <trkpt lat="48.65875" lon="-3.57018">
        <ele>96.75</ele>
        <time>2013-11-24T09:33:48Z</time>
      </trkpt>
      <trkpt lat="48.65913" lon="-3.57008">
        <ele>93.39</ele>
        <time>2013-11-24T09:33:52Z</time>
      </trkpt>
      <trkpt lat="48.65968" lon="-3.56999">
        <ele>90.98</ele>
        <time>2013-11-24T09:33:58Z</time>
      </trkpt>
      <trkpt lat="48.65976" lon="-3.57002">
        <ele>90.02</ele>
        <time>2013-11-24T09:33:59Z</time>
      </trkpt>
      <trkpt lat="48.65983" lon="-3.57011">
        <ele>89.06</ele>
        <time>2013-11-24T09:34:00Z</time>
      </trkpt>
      <trkpt lat="48.65987" lon="-3.57022">
        <ele>88.1</ele>
        <time>2013-11-24T09:34:01Z</time>
      </trkpt>
      <trkpt lat="48.65988" lon="-3.57035">
        <ele>88.1</ele>
        <time>2013-11-24T09:34:02Z</time>
      </trkpt>
      <trkpt lat="48.65988" lon="-3.57048">
        <ele>88.1</ele>
        <time>2013-11-24T09:34:03Z</time>
      </trkpt>
      <trkpt lat="48.65987" lon="-3.57062">
        <ele>88.1</ele>
        <time>2013-11-24T09:34:04Z</time>
      </trkpt>
      <trkpt lat="48.65985" lon="-3.57075">
        <ele>87.62</ele>
        <time>2013-11-24T09:34:05Z</time>
      </trkpt>
      <trkpt lat="48.6598" lon="-3.57126">
        <ele>87.14</ele>
        <time>2013-11-24T09:34:09Z</time>
      </trkpt>
      <trkpt lat="48.65981" lon="-3.57138">
        <ele>86.66</ele>
        <time>2013-11-24T09:34:10Z</time>
      </trkpt>
      <trkpt lat="48.65983" lon="-3.5715">
        <ele>86.66</ele>
        <time>2013-11-24T09:34:11Z</time>
      </trkpt>
      <trkpt lat="48.65986" lon="-3.57161">
        <ele>86.18</ele>
        <time>2013-11-24T09:34:12Z</time>
      </trkpt>
      <trkpt lat="48.6599" lon="-3.57172">
        <ele>86.18</ele>
        <time>2013-11-24T09:34:13Z</time>
      </trkpt>
      <trkpt lat="48.65996" lon="-3.57181">
        <ele>86.18</ele>
        <time>2013-11-24T09:34:14Z</time>
      </trkpt>
      <trkpt lat="48.66004" lon="-3.57188">
        <ele>86.18</ele>
        <time>2013-11-24T09:34:15Z</time>
      </trkpt>
      <trkpt lat="48.66013" lon="-3.57193">
        <ele>85.69</ele>
        <time>2013-11-24T09:34:16Z</time>
      </trkpt>
      <trkpt lat="48.66023" lon="-3.57197">
        <ele>85.69</ele>
        <time>2013-11-24T09:34:17Z</time>
      </trkpt>
      <trkpt lat="48.66118" lon="-3.57234">
        <ele>82.81</ele>
        <time>2013-11-24T09:34:26Z</time>
      </trkpt>
      <trkpt lat="48.6616" lon="-3.57256">
        <ele>79.93</ele>
        <time>2013-11-24T09:34:30Z</time>
      </trkpt>
      <trkpt lat="48.66171" lon="-3.57259">
        <ele>78.48</ele>
        <time>2013-11-24T09:34:31Z</time>
      </trkpt>
      <trkpt lat="48.66193" lon="-3.57264">
        <ele>77.52</ele>
        <time>2013-11-24T09:34:33Z</time>
      </trkpt>
      <trkpt lat="48.66204" lon="-3.57264">
        <ele>78.48</ele>
        <time>2013-11-24T09:34:34Z</time>
      </trkpt>
      <trkpt lat="48.66239" lon="-3.57264">
        <ele>76.56</ele>
        <time>2013-11-24T09:34:37Z</time>
      </trkpt>
      <trkpt lat="48.66251" lon="-3.57267">
        <ele>75.6</ele>
        <time>2013-11-24T09:34:38Z</time>
      </trkpt>
      <trkpt lat="48.66273" lon="-3.57273">
        <ele>75.12</ele>
        <time>2013-11-24T09:34:40Z</time>
      </trkpt>
      <trkpt lat="48.66303" lon="-3.57291">
        <ele>70.79</ele>
        <time>2013-11-24T09:34:43Z</time>
      </trkpt>
      <trkpt lat="48.66312" lon="-3.57301">
        <ele>70.31</ele>
        <time>2013-11-24T09:34:44Z</time>
      </trkpt>
      <trkpt lat="48.66319" lon="-3.57311">
        <ele>69.83</ele>
        <time>2013-11-24T09:34:45Z</time>
      </trkpt>
      <trkpt lat="48.66325" lon="-3.57325">
        <ele>68.87</ele>
        <time>2013-11-24T09:34:46Z</time>
      </trkpt>
      <trkpt lat="48.66331" lon="-3.57338">
        <ele>68.39</ele>
        <time>2013-11-24T09:34:47Z</time>
      </trkpt>
      <trkpt lat="48.66338" lon="-3.5735">
        <ele>67.91</ele>
        <time>2013-11-24T09:34:48Z</time>
      </trkpt>
      <trkpt lat="48.66345" lon="-3.57362">
        <ele>67.91</ele>
        <time>2013-11-24T09:34:49Z</time>
      </trkpt>
      <trkpt lat="48.66353" lon="-3.57373">
        <ele>67.43</ele>
        <time>2013-11-24T09:34:50Z</time>
      </trkpt>
      <trkpt lat="48.66361" lon="-3.57381">
        <ele>66.47</ele>
        <time>2013-11-24T09:34:51Z</time>
      </trkpt>
      <trkpt lat="48.66371" lon="-3.57388">
        <ele>66.47</ele>
        <time>2013-11-24T09:34:52Z</time>
      </trkpt>
      <trkpt lat="48.66381" lon="-3.57394">
        <ele>65.99</ele>
        <time>2013-11-24T09:34:53Z</time>
      </trkpt>
      <trkpt lat="48.66391" lon="-3.57399">
        <ele>66.47</ele>
        <time>2013-11-24T09:34:54Z</time>
      </trkpt>
      <trkpt lat="48.664" lon="-3.57405">
        <ele>65.03</ele>
        <time>2013-11-24T09:34:55Z</time>
      </trkpt>
      <trkpt lat="48.66411" lon="-3.57411">
        <ele>64.55</ele>
        <time>2013-11-24T09:34:56Z</time>
      </trkpt>
      <trkpt lat="48.66452" lon="-3.5743">
        <ele>61.18</ele>
        <time>2013-11-24T09:35:00Z</time>
      </trkpt>
      <trkpt lat="48.66474" lon="-3.57437">
        <ele>59.74</ele>
        <time>2013-11-24T09:35:02Z</time>
      </trkpt>
      <trkpt lat="48.66533" lon="-3.57445">
        <ele>56.37</ele>
        <time>2013-11-24T09:35:07Z</time>
      </trkpt>
      <trkpt lat="48.66558" lon="-3.57448">
        <ele>55.89</ele>
        <time>2013-11-24T09:35:09Z</time>
      </trkpt>
      <trkpt lat="48.66597" lon="-3.57447">
        <ele>53.49</ele>
        <time>2013-11-24T09:35:12Z</time>
      </trkpt>
      <trkpt lat="48.66609" lon="-3.57444">
        <ele>53.01</ele>
        <time>2013-11-24T09:35:13Z</time>
      </trkpt>
      <trkpt lat="48.66621" lon="-3.57438">
        <ele>52.05</ele>
        <time>2013-11-24T09:35:14Z</time>
      </trkpt>
      <trkpt lat="48.66632" lon="-3.57431">
        <ele>50.61</ele>
        <time>2013-11-24T09:35:15Z</time>
      </trkpt>
      <trkpt lat="48.66644" lon="-3.57424">
        <ele>50.61</ele>
        <time>2013-11-24T09:35:16Z</time>
      </trkpt>
      <trkpt lat="48.66655" lon="-3.57418">
        <ele>50.13</ele>
        <time>2013-11-24T09:35:17Z</time>
      </trkpt>
      <trkpt lat="48.66666" lon="-3.57413">
        <ele>49.16</ele>
        <time>2013-11-24T09:35:18Z</time>
      </trkpt>
      <trkpt lat="48.66678" lon="-3.5741">
        <ele>48.68</ele>
        <time>2013-11-24T09:35:19Z</time>
      </trkpt>
      <trkpt lat="48.6669" lon="-3.57409">
        <ele>47.24</ele>
        <time>2013-11-24T09:35:20Z</time>
      </trkpt>
      <trkpt lat="48.66702" lon="-3.57411">
        <ele>46.28</ele>
        <time>2013-11-24T09:35:21Z</time>
      </trkpt>
      <trkpt lat="48.66714" lon="-3.57415">
        <ele>45.32</ele>
        <time>2013-11-24T09:35:22Z</time>
      </trkpt>
      <trkpt lat="48.66726" lon="-3.57421">
        <ele>44.84</ele>
        <time>2013-11-24T09:35:23Z</time>
      </trkpt>
      <trkpt lat="48.66749" lon="-3.57434">
        <ele>43.88</ele>
        <time>2013-11-24T09:35:25Z</time>
      </trkpt>
      <trkpt lat="48.66808" lon="-3.57474">
        <ele>40.03</ele>
        <time>2013-11-24T09:35:30Z</time>
      </trkpt>
      <trkpt lat="48.66851" lon="-3.57518">
        <ele>36.67</ele>
        <time>2013-11-24T09:35:34Z</time>
      </trkpt>
      <trkpt lat="48.6686" lon="-3.57532">
        <ele>36.19</ele>
        <time>2013-11-24T09:35:35Z</time>
      </trkpt>
      <trkpt lat="48.66868" lon="-3.57546">
        <ele>34.74</ele>
        <time>2013-11-24T09:35:36Z</time>
      </trkpt>
      <trkpt lat="48.66882" lon="-3.57575">
        <ele>34.74</ele>
        <time>2013-11-24T09:35:38Z</time>
      </trkpt>
      <trkpt lat="48.66891" lon="-3.57588">
        <ele>33.3</ele>
        <time>2013-11-24T09:35:39Z</time>
      </trkpt>
      <trkpt lat="48.66926" lon="-3.57637">
        <ele>29.94</ele>
        <time>2013-11-24T09:35:43Z</time>
      </trkpt>
      <trkpt lat="48.66934" lon="-3.5765">
        <ele>29.46</ele>
        <time>2013-11-24T09:35:44Z</time>
      </trkpt>
      <trkpt lat="48.66977" lon="-3.57712">
        <ele>26.57</ele>
        <time>2013-11-24T09:35:49Z</time>
      </trkpt>
      <trkpt lat="48.67017" lon="-3.57756">
        <ele>23.69</ele>
        <time>2013-11-24T09:35:53Z</time>
      </trkpt>
      <trkpt lat="48.6706" lon="-3.57793">
        <ele>20.81</ele>
        <time>2013-11-24T09:35:57Z</time>
      </trkpt>
      <trkpt lat="48.67089" lon="-3.57817">
        <ele>18.88</ele>
        <time>2013-11-24T09:36:00Z</time>
      </trkpt>
      <trkpt lat="48.67116" lon="-3.57837">
        <ele>16</ele>
        <time>2013-11-24T09:36:03Z</time>
      </trkpt>
      <trkpt lat="48.67131" lon="-3.57847">
        <ele>14.56</ele>
        <time>2013-11-24T09:36:05Z</time>
      </trkpt>
      <trkpt lat="48.67138" lon="-3.5785">
        <ele>14.08</ele>
        <time>2013-11-24T09:36:06Z</time>
      </trkpt>
      <trkpt lat="48.67144" lon="-3.57851">
        <ele>13.6</ele>
        <time>2013-11-24T09:36:07Z</time>
      </trkpt>
      <trkpt lat="48.6715" lon="-3.57851">
        <ele>13.6</ele>
        <time>2013-11-24T09:36:08Z</time>
      </trkpt>
      <trkpt lat="48.67155" lon="-3.5785">
        <ele>14.08</ele>
        <time>2013-11-24T09:36:09Z</time>
      </trkpt>
      <trkpt lat="48.6716" lon="-3.57848">
        <ele>14.08</ele>
        <time>2013-11-24T09:36:10Z</time>
      </trkpt>
      <trkpt lat="48.67165" lon="-3.57845">
        <ele>14.08</ele>
        <time>2013-11-24T09:36:11Z</time>
      </trkpt>
      <trkpt lat="48.6717" lon="-3.57839">
        <ele>14.08</ele>
        <time>2013-11-24T09:36:12Z</time>
      </trkpt>
      <trkpt lat="48.67175" lon="-3.57833">
        <ele>14.08</ele>
        <time>2013-11-24T09:36:13Z</time>
      </trkpt>
      <trkpt lat="48.67239" lon="-3.57742">
        <ele>13.6</ele>
        <time>2013-11-24T09:36:27Z</time>
      </trkpt>
      <trkpt lat="48.67304" lon="-3.57633">
        <ele>13.12</ele>
        <time>2013-11-24T09:36:42Z</time>
      </trkpt>
      <trkpt lat="48.67386" lon="-3.57496">
        <ele>13.6</ele>
        <time>2013-11-24T09:36:59Z</time>
      </trkpt>
      <trkpt lat="48.67481" lon="-3.57336">
        <ele>12.63</ele>
        <time>2013-11-24T09:37:18Z</time>
      </trkpt>
      <trkpt lat="48.67573" lon="-3.57211">
        <ele>14.08</ele>
        <time>2013-11-24T09:37:34Z</time>
      </trkpt>
      <trkpt lat="48.67677" lon="-3.57123">
        <ele>14.08</ele>
        <time>2013-11-24T09:37:49Z</time>
      </trkpt>
      <trkpt lat="48.67798" lon="-3.5702">
        <ele>13.6</ele>
        <time>2013-11-24T09:38:07Z</time>
      </trkpt>
      <trkpt lat="48.67904" lon="-3.56953">
        <ele>12.63</ele>
        <time>2013-11-24T09:38:23Z</time>
      </trkpt>
      <trkpt lat="48.6803" lon="-3.56881">
        <ele>12.15</ele>
        <time>2013-11-24T09:38:42Z</time>
      </trkpt>
      <trkpt lat="48.68147" lon="-3.56813">
        <ele>13.12</ele>
        <time>2013-11-24T09:39:00Z</time>
      </trkpt>
      <trkpt lat="48.68248" lon="-3.56758">
        <ele>14.08</ele>
        <time>2013-11-24T09:39:15Z</time>
      </trkpt>
      <trkpt lat="48.68347" lon="-3.56717">
        <ele>15.52</ele>
        <time>2013-11-24T09:39:30Z</time>
      </trkpt>
      <trkpt lat="48.68416" lon="-3.56703">
        <ele>18.4</ele>
        <time>2013-11-24T09:39:42Z</time>
      </trkpt>
      <trkpt lat="48.68421" lon="-3.567">
        <ele>17.92</ele>
        <time>2013-11-24T09:39:43Z</time>
      </trkpt>
      <trkpt lat="48.68425" lon="-3.56696">
        <ele>17.92</ele>
        <time>2013-11-24T09:39:44Z</time>
      </trkpt>
      <trkpt lat="48.68429" lon="-3.56689">
        <ele>18.4</ele>
        <time>2013-11-24T09:39:45Z</time>
      </trkpt>
      <trkpt lat="48.68431" lon="-3.56681">
        <ele>18.88</ele>
        <time>2013-11-24T09:39:46Z</time>
      </trkpt>
      <trkpt lat="48.68433" lon="-3.56673">
        <ele>18.88</ele>
        <time>2013-11-24T09:39:47Z</time>
      </trkpt>
      <trkpt lat="48.68434" lon="-3.56666">
        <ele>18.88</ele>
        <time>2013-11-24T09:39:48Z</time>
      </trkpt>
      <trkpt lat="48.68439" lon="-3.56639">
        <ele>19.84</ele>
        <time>2013-11-24T09:39:52Z</time>
      </trkpt>
      <trkpt lat="48.68451" lon="-3.56547">
        <ele>23.21</ele>
        <time>2013-11-24T09:40:05Z</time>
      </trkpt>
      <trkpt lat="48.68457" lon="-3.56452">
        <ele>26.09</ele>
        <time>2013-11-24T09:40:18Z</time>
      </trkpt>
      <trkpt lat="48.68461" lon="-3.56334">
        <ele>28.5</ele>
        <time>2013-11-24T09:40:33Z</time>
      </trkpt>
      <trkpt lat="48.68448" lon="-3.56224">
        <ele>30.9</ele>
        <time>2013-11-24T09:40:48Z</time>
      </trkpt>
      <trkpt lat="48.68447" lon="-3.56218">
        <ele>30.9</ele>
        <time>2013-11-24T09:40:49Z</time>
      </trkpt>
      <trkpt lat="48.68446" lon="-3.56211">
        <ele>31.38</ele>
        <time>2013-11-24T09:40:50Z</time>
      </trkpt>
      <trkpt lat="48.68446" lon="-3.56183">
        <ele>32.34</ele>
        <time>2013-11-24T09:40:54Z</time>
      </trkpt>
      <trkpt lat="48.6845" lon="-3.56162">
        <ele>32.82</ele>
        <time>2013-11-24T09:40:57Z</time>
      </trkpt>
      <trkpt lat="48.68452" lon="-3.56156">
        <ele>32.82</ele>
        <time>2013-11-24T09:40:58Z</time>
      </trkpt>
      <trkpt lat="48.68455" lon="-3.56151">
        <ele>32.82</ele>
        <time>2013-11-24T09:40:59Z</time>
      </trkpt>
      <trkpt lat="48.68504" lon="-3.56105">
        <ele>35.71</ele>
        <time>2013-11-24T09:41:13Z</time>
      </trkpt>
      <trkpt lat="48.68508" lon="-3.5609">
        <ele>37.15</ele>
        <time>2013-11-24T09:41:16Z</time>
      </trkpt>
      <trkpt lat="48.68508" lon="-3.56085">
        <ele>37.63</ele>
        <time>2013-11-24T09:41:17Z</time>
      </trkpt>
      <trkpt lat="48.68506" lon="-3.5608">
        <ele>38.11</ele>
        <time>2013-11-24T09:41:18Z</time>
      </trkpt>
      <trkpt lat="48.68503" lon="-3.56075">
        <ele>38.59</ele>
        <time>2013-11-24T09:41:19Z</time>
      </trkpt>
      <trkpt lat="48.685" lon="-3.5607">
        <ele>38.59</ele>
        <time>2013-11-24T09:41:20Z</time>
      </trkpt>
      <trkpt lat="48.68497" lon="-3.56066">
        <ele>38.59</ele>
        <time>2013-11-24T09:41:21Z</time>
      </trkpt>
      <trkpt lat="48.68465" lon="-3.5602">
        <ele>41.95</ele>
        <time>2013-11-24T09:41:31Z</time>
      </trkpt>
      <trkpt lat="48.68423" lon="-3.55947">
        <ele>45.32</ele>
        <time>2013-11-24T09:41:45Z</time>
      </trkpt>
      <trkpt lat="48.68401" lon="-3.55917">
        <ele>47.24</ele>
        <time>2013-11-24T09:41:52Z</time>
      </trkpt>
      <trkpt lat="48.68398" lon="-3.55911">
        <ele>47.24</ele>
        <time>2013-11-24T09:41:53Z</time>
      </trkpt>
      <trkpt lat="48.68396" lon="-3.55906">
        <ele>47.72</ele>
        <time>2013-11-24T09:41:54Z</time>
      </trkpt>
      <trkpt lat="48.68393" lon="-3.559">
        <ele>47.72</ele>
        <time>2013-11-24T09:41:55Z</time>
      </trkpt>
      <trkpt lat="48.68391" lon="-3.55894">
        <ele>47.72</ele>
        <time>2013-11-24T09:41:56Z</time>
      </trkpt>
      <trkpt lat="48.68386" lon="-3.55872">
        <ele>48.68</ele>
        <time>2013-11-24T09:42:00Z</time>
      </trkpt>
      <trkpt lat="48.68384" lon="-3.55866">
        <ele>49.16</ele>
        <time>2013-11-24T09:42:01Z</time>
      </trkpt>
      <trkpt lat="48.68382" lon="-3.55842">
        <ele>49.65</ele>
        <time>2013-11-24T09:42:05Z</time>
      </trkpt>
      <trkpt lat="48.68382" lon="-3.55835">
        <ele>50.13</ele>
        <time>2013-11-24T09:42:06Z</time>
      </trkpt>
      <trkpt lat="48.6838" lon="-3.55777">
        <ele>52.53</ele>
        <time>2013-11-24T09:42:15Z</time>
      </trkpt>
      <trkpt lat="48.68401" lon="-3.55698">
        <ele>55.89</ele>
        <time>2013-11-24T09:42:28Z</time>
      </trkpt>
      <trkpt lat="48.68416" lon="-3.55644">
        <ele>58.78</ele>
        <time>2013-11-24T09:42:38Z</time>
      </trkpt>
      <trkpt lat="48.6844" lon="-3.55553">
        <ele>62.14</ele>
        <time>2013-11-24T09:42:54Z</time>
      </trkpt>
      <trkpt lat="48.6845" lon="-3.55474">
        <ele>65.51</ele>
        <time>2013-11-24T09:43:07Z</time>
      </trkpt>
      <trkpt lat="48.68452" lon="-3.55444">
        <ele>66.47</ele>
        <time>2013-11-24T09:43:12Z</time>
      </trkpt>
      <trkpt lat="48.68452" lon="-3.55437">
        <ele>66.47</ele>
        <time>2013-11-24T09:43:13Z</time>
      </trkpt>
      <trkpt lat="48.68452" lon="-3.5543">
        <ele>66.95</ele>
        <time>2013-11-24T09:43:14Z</time>
      </trkpt>
      <trkpt lat="48.68438" lon="-3.55353">
        <ele>69.83</ele>
        <time>2013-11-24T09:43:27Z</time>
      </trkpt>
      <trkpt lat="48.68433" lon="-3.5528">
        <ele>72.24</ele>
        <time>2013-11-24T09:43:39Z</time>
      </trkpt>
      <trkpt lat="48.68442" lon="-3.55202">
        <ele>75.12</ele>
        <time>2013-11-24T09:43:53Z</time>
      </trkpt>
      <trkpt lat="48.68462" lon="-3.55132">
        <ele>78</ele>
        <time>2013-11-24T09:44:08Z</time>
      </trkpt>
      <trkpt lat="48.68479" lon="-3.55068">
        <ele>80.41</ele>
        <time>2013-11-24T09:44:21Z</time>
      </trkpt>
      <trkpt lat="48.68498" lon="-3.55027">
        <ele>82.33</ele>
        <time>2013-11-24T09:44:31Z</time>
      </trkpt>
      <trkpt lat="48.68523" lon="-3.5497">
        <ele>84.73</ele>
        <time>2013-11-24T09:44:45Z</time>
      </trkpt>
      <trkpt lat="48.68534" lon="-3.54915">
        <ele>87.62</ele>
        <time>2013-11-24T09:44:55Z</time>
      </trkpt>
      <trkpt lat="48.68533" lon="-3.54909">
        <ele>87.62</ele>
        <time>2013-11-24T09:44:56Z</time>
      </trkpt>
      <trkpt lat="48.68532" lon="-3.54903">
        <ele>88.1</ele>
        <time>2013-11-24T09:44:57Z</time>
      </trkpt>
      <trkpt lat="48.68531" lon="-3.54897">
        <ele>88.58</ele>
        <time>2013-11-24T09:44:58Z</time>
      </trkpt>
      <trkpt lat="48.68529" lon="-3.54891">
        <ele>88.58</ele>
        <time>2013-11-24T09:44:59Z</time>
      </trkpt>
      <trkpt lat="48.68528" lon="-3.54885">
        <ele>89.06</ele>
        <time>2013-11-24T09:45:00Z</time>
      </trkpt>
      <trkpt lat="48.68491" lon="-3.54803">
        <ele>91.94</ele>
        <time>2013-11-24T09:45:15Z</time>
      </trkpt>
      <trkpt lat="48.68447" lon="-3.54728">
        <ele>93.87</ele>
        <time>2013-11-24T09:45:30Z</time>
      </trkpt>
      <trkpt lat="48.68422" lon="-3.54689">
        <ele>94.35</ele>
        <time>2013-11-24T09:45:43Z</time>
      </trkpt>
      <trkpt lat="48.68395" lon="-3.54648">
        <ele>95.79</ele>
        <time>2013-11-24T09:46:00Z</time>
      </trkpt>
      <trkpt lat="48.68371" lon="-3.54612">
        <ele>96.27</ele>
        <time>2013-11-24T09:46:13Z</time>
      </trkpt>
      <trkpt lat="48.68326" lon="-3.5454">
        <ele>94.83</ele>
        <time>2013-11-24T09:46:26Z</time>
      </trkpt>
      <trkpt lat="48.68316" lon="-3.54528">
        <ele>94.83</ele>
        <time>2013-11-24T09:46:28Z</time>
      </trkpt>
      <trkpt lat="48.68311" lon="-3.54522">
        <ele>94.83</ele>
        <time>2013-11-24T09:46:29Z</time>
      </trkpt>
      <trkpt lat="48.68305" lon="-3.54516">
        <ele>94.83</ele>
        <time>2013-11-24T09:46:30Z</time>
      </trkpt>
      <trkpt lat="48.68233" lon="-3.54455">
        <ele>95.31</ele>
        <time>2013-11-24T09:46:42Z</time>
      </trkpt>
      <trkpt lat="48.68209" lon="-3.54428">
        <ele>96.27</ele>
        <time>2013-11-24T09:46:46Z</time>
      </trkpt>
      <trkpt lat="48.68204" lon="-3.5442">
        <ele>96.27</ele>
        <time>2013-11-24T09:46:47Z</time>
      </trkpt>
      <trkpt lat="48.68151" lon="-3.54319">
        <ele>96.27</ele>
        <time>2013-11-24T09:46:58Z</time>
      </trkpt>
      <trkpt lat="48.68144" lon="-3.5431">
        <ele>95.79</ele>
        <time>2013-11-24T09:46:59Z</time>
      </trkpt>
      <trkpt lat="48.68137" lon="-3.54301">
        <ele>95.79</ele>
        <time>2013-11-24T09:47:00Z</time>
      </trkpt>
      <trkpt lat="48.68128" lon="-3.54294">
        <ele>94.83</ele>
        <time>2013-11-24T09:47:01Z</time>
      </trkpt>
      <trkpt lat="48.68119" lon="-3.54288">
        <ele>94.35</ele>
        <time>2013-11-24T09:47:02Z</time>
      </trkpt>
      <trkpt lat="48.68109" lon="-3.54283">
        <ele>93.87</ele>
        <time>2013-11-24T09:47:03Z</time>
      </trkpt>
      <trkpt lat="48.68099" lon="-3.54279">
        <ele>93.39</ele>
        <time>2013-11-24T09:47:04Z</time>
      </trkpt>
      <trkpt lat="48.68089" lon="-3.54274">
        <ele>92.42</ele>
        <time>2013-11-24T09:47:05Z</time>
      </trkpt>
      <trkpt lat="48.68069" lon="-3.5426">
        <ele>91.94</ele>
        <time>2013-11-24T09:47:07Z</time>
      </trkpt>
      <trkpt lat="48.6806" lon="-3.5425">
        <ele>91.46</ele>
        <time>2013-11-24T09:47:08Z</time>
      </trkpt>
      <trkpt lat="48.68051" lon="-3.54239">
        <ele>90.5</ele>
        <time>2013-11-24T09:47:09Z</time>
      </trkpt>
      <trkpt lat="48.6799" lon="-3.54149">
        <ele>87.14</ele>
        <time>2013-11-24T09:47:16Z</time>
      </trkpt>
      <trkpt lat="48.67938" lon="-3.54088">
        <ele>90.02</ele>
        <time>2013-11-24T09:47:22Z</time>
      </trkpt>
      <trkpt lat="48.67902" lon="-3.54037">
        <ele>92.9</ele>
        <time>2013-11-24T09:47:28Z</time>
      </trkpt>
      <trkpt lat="48.67897" lon="-3.54029">
        <ele>92.9</ele>
        <time>2013-11-24T09:47:29Z</time>
      </trkpt>
      <trkpt lat="48.67894" lon="-3.5402">
        <ele>93.39</ele>
        <time>2013-11-24T09:47:30Z</time>
      </trkpt>
      <trkpt lat="48.67858" lon="-3.53916">
        <ele>96.75</ele>
        <time>2013-11-24T09:47:43Z</time>
      </trkpt>
      <trkpt lat="48.67856" lon="-3.53908">
        <ele>96.75</ele>
        <time>2013-11-24T09:47:44Z</time>
      </trkpt>
      <trkpt lat="48.6785" lon="-3.53797">
        <ele>94.83</ele>
        <time>2013-11-24T09:47:56Z</time>
      </trkpt>
      <trkpt lat="48.67851" lon="-3.53788">
        <ele>95.79</ele>
        <time>2013-11-24T09:47:57Z</time>
      </trkpt>
      <trkpt lat="48.67861" lon="-3.53734">
        <ele>95.79</ele>
        <time>2013-11-24T09:48:03Z</time>
      </trkpt>
      <trkpt lat="48.67876" lon="-3.53618">
        <ele>98.67</ele>
        <time>2013-11-24T09:48:17Z</time>
      </trkpt>
      <trkpt lat="48.67866" lon="-3.53484">
        <ele>97.23</ele>
        <time>2013-11-24T09:48:31Z</time>
      </trkpt>
      <trkpt lat="48.67854" lon="-3.53311">
        <ele>97.71</ele>
        <time>2013-11-24T09:48:46Z</time>
      </trkpt>
      <trkpt lat="48.67861" lon="-3.5324">
        <ele>101.08</ele>
        <time>2013-11-24T09:48:55Z</time>
      </trkpt>
      <trkpt lat="48.67871" lon="-3.532">
        <ele>102.04</ele>
        <time>2013-11-24T09:49:01Z</time>
      </trkpt>
      <trkpt lat="48.67873" lon="-3.53194">
        <ele>102.52</ele>
        <time>2013-11-24T09:49:02Z</time>
      </trkpt>
      <trkpt lat="48.67896" lon="-3.53134">
        <ele>105.4</ele>
        <time>2013-11-24T09:49:12Z</time>
      </trkpt>
      <trkpt lat="48.67897" lon="-3.53128">
        <ele>105.4</ele>
        <time>2013-11-24T09:49:13Z</time>
      </trkpt>
      <trkpt lat="48.67908" lon="-3.53036">
        <ele>108.29</ele>
        <time>2013-11-24T09:49:26Z</time>
      </trkpt>
      <trkpt lat="48.67921" lon="-3.52919">
        <ele>110.69</ele>
        <time>2013-11-24T09:49:43Z</time>
      </trkpt>
      <trkpt lat="48.67944" lon="-3.52778">
        <ele>113.09</ele>
        <time>2013-11-24T09:50:02Z</time>
      </trkpt>
      <trkpt lat="48.6795" lon="-3.52729">
        <ele>113.57</ele>
        <time>2013-11-24T09:50:08Z</time>
      </trkpt>
      <trkpt lat="48.67951" lon="-3.52595">
        <ele>116.46</ele>
        <time>2013-11-24T09:50:23Z</time>
      </trkpt>
      <trkpt lat="48.67954" lon="-3.52474">
        <ele>116.46</ele>
        <time>2013-11-24T09:50:37Z</time>
      </trkpt>
      <trkpt lat="48.67953" lon="-3.52465">
        <ele>116.46</ele>
        <time>2013-11-24T09:50:38Z</time>
      </trkpt>
      <trkpt lat="48.67951" lon="-3.52457">
        <ele>117.42</ele>
        <time>2013-11-24T09:50:39Z</time>
      </trkpt>
      <trkpt lat="48.67948" lon="-3.52449">
        <ele>116.46</ele>
        <time>2013-11-24T09:50:40Z</time>
      </trkpt>
      <trkpt lat="48.67944" lon="-3.52442">
        <ele>116.94</ele>
        <time>2013-11-24T09:50:41Z</time>
      </trkpt>
      <trkpt lat="48.67939" lon="-3.52435">
        <ele>116.94</ele>
        <time>2013-11-24T09:50:42Z</time>
      </trkpt>
      <trkpt lat="48.67935" lon="-3.52429">
        <ele>116.94</ele>
        <time>2013-11-24T09:50:43Z</time>
      </trkpt>
      <trkpt lat="48.6793" lon="-3.52424">
        <ele>116.94</ele>
        <time>2013-11-24T09:50:44Z</time>
      </trkpt>
      <trkpt lat="48.67887" lon="-3.52379">
        <ele>117.42</ele>
        <time>2013-11-24T09:50:53Z</time>
      </trkpt>
      <trkpt lat="48.67884" lon="-3.52372">
        <ele>117.42</ele>
        <time>2013-11-24T09:50:54Z</time>
      </trkpt>
      <trkpt lat="48.67884" lon="-3.52365">
        <ele>117.42</ele>
        <time>2013-11-24T09:50:55Z</time>
      </trkpt>
      <trkpt lat="48.67886" lon="-3.52356">
        <ele>117.42</ele>
        <time>2013-11-24T09:50:56Z</time>
      </trkpt>
      <trkpt lat="48.67888" lon="-3.52348">
        <ele>117.9</ele>
        <time>2013-11-24T09:50:57Z</time>
      </trkpt>
      <trkpt lat="48.67894" lon="-3.52324">
        <ele>117.9</ele>
        <time>2013-11-24T09:51:00Z</time>
      </trkpt>
      <trkpt lat="48.67895" lon="-3.52317">
        <ele>117.9</ele>
        <time>2013-11-24T09:51:01Z</time>
      </trkpt>
      <trkpt lat="48.67895" lon="-3.5231">
        <ele>117.9</ele>
        <time>2013-11-24T09:51:02Z</time>
      </trkpt>
      <trkpt lat="48.67895" lon="-3.52305">
        <ele>118.38</ele>
        <time>2013-11-24T09:51:03Z</time>
      </trkpt>
      <trkpt lat="48.67895" lon="-3.52301">
        <ele>117.9</ele>
        <time>2013-11-24T09:51:04Z</time>
      </trkpt>
      <trkpt lat="48.67895" lon="-3.52298">
        <ele>117.42</ele>
        <time>2013-11-24T09:51:05Z</time>
      </trkpt>
      <trkpt lat="48.6789" lon="-3.52233">
        <ele>118.38</ele>
        <time>2013-11-24T09:51:18Z</time>
      </trkpt>
      <trkpt lat="48.67886" lon="-3.52122">
        <ele>119.34</ele>
        <time>2013-11-24T09:51:33Z</time>
      </trkpt>
      <trkpt lat="48.67885" lon="-3.52023">
        <ele>120.78</ele>
        <time>2013-11-24T09:51:45Z</time>
      </trkpt>
      <trkpt lat="48.67889" lon="-3.51944">
        <ele>121.26</ele>
        <time>2013-11-24T09:51:54Z</time>
      </trkpt>
      <trkpt lat="48.67888" lon="-3.51935">
        <ele>121.74</ele>
        <time>2013-11-24T09:51:55Z</time>
      </trkpt>
      <trkpt lat="48.67888" lon="-3.51926">
        <ele>121.26</ele>
        <time>2013-11-24T09:51:56Z</time>
      </trkpt>
      <trkpt lat="48.67886" lon="-3.51917">
        <ele>121.74</ele>
        <time>2013-11-24T09:51:57Z</time>
      </trkpt>
      <trkpt lat="48.67885" lon="-3.51908">
        <ele>121.74</ele>
        <time>2013-11-24T09:51:58Z</time>
      </trkpt>
      <trkpt lat="48.67882" lon="-3.51899">
        <ele>121.26</ele>
        <time>2013-11-24T09:51:59Z</time>
      </trkpt>
      <trkpt lat="48.6788" lon="-3.5189">
        <ele>121.74</ele>
        <time>2013-11-24T09:52:00Z</time>
      </trkpt>
      <trkpt lat="48.67828" lon="-3.51735">
        <ele>120.3</ele>
        <time>2013-11-24T09:52:16Z</time>
      </trkpt>
      <trkpt lat="48.6777" lon="-3.51554">
        <ele>117.9</ele>
        <time>2013-11-24T09:52:32Z</time>
      </trkpt>
      <trkpt lat="48.67726" lon="-3.51359">
        <ele>116.46</ele>
        <time>2013-11-24T09:52:50Z</time>
      </trkpt>
      <trkpt lat="48.67677" lon="-3.51198">
        <ele>115.01</ele>
        <time>2013-11-24T09:53:05Z</time>
      </trkpt>
      <trkpt lat="48.67619" lon="-3.51041">
        <ele>113.57</ele>
        <time>2013-11-24T09:53:19Z</time>
      </trkpt>
      <trkpt lat="48.67545" lon="-3.50838">
        <ele>114.53</ele>
        <time>2013-11-24T09:53:37Z</time>
      </trkpt>
      <trkpt lat="48.67509" lon="-3.50741">
        <ele>114.53</ele>
        <time>2013-11-24T09:53:48Z</time>
      </trkpt>
      <trkpt lat="48.67504" lon="-3.50736">
        <ele>115.01</ele>
        <time>2013-11-24T09:53:49Z</time>
      </trkpt>
      <trkpt lat="48.67499" lon="-3.50732">
        <ele>114.53</ele>
        <time>2013-11-24T09:53:50Z</time>
      </trkpt>
      <trkpt lat="48.67494" lon="-3.50726">
        <ele>115.01</ele>
        <time>2013-11-24T09:53:51Z</time>
      </trkpt>
      <trkpt lat="48.67489" lon="-3.50719">
        <ele>115.01</ele>
        <time>2013-11-24T09:53:52Z</time>
      </trkpt>
      <trkpt lat="48.67486" lon="-3.5071">
        <ele>115.01</ele>
        <time>2013-11-24T09:53:53Z</time>
      </trkpt>
      <trkpt lat="48.67484" lon="-3.507">
        <ele>115.98</ele>
        <time>2013-11-24T09:53:54Z</time>
      </trkpt>
      <trkpt lat="48.67482" lon="-3.5069">
        <ele>116.46</ele>
        <time>2013-11-24T09:53:55Z</time>
      </trkpt>
      <trkpt lat="48.67479" lon="-3.50681">
        <ele>115.98</ele>
        <time>2013-11-24T09:53:56Z</time>
      </trkpt>
      <trkpt lat="48.67475" lon="-3.50673">
        <ele>115.98</ele>
        <time>2013-11-24T09:53:57Z</time>
      </trkpt>
      <trkpt lat="48.67469" lon="-3.50665">
        <ele>115.5</ele>
        <time>2013-11-24T09:53:58Z</time>
      </trkpt>
      <trkpt lat="48.67377" lon="-3.50565">
        <ele>115.98</ele>
        <time>2013-11-24T09:54:13Z</time>
      </trkpt>
      <trkpt lat="48.67284" lon="-3.50469">
        <ele>118.38</ele>
        <time>2013-11-24T09:54:29Z</time>
      </trkpt>
      <trkpt lat="48.67232" lon="-3.50377">
        <ele>119.34</ele>
        <time>2013-11-24T09:54:41Z</time>
      </trkpt>
      <trkpt lat="48.67191" lon="-3.50227">
        <ele>119.34</ele>
        <time>2013-11-24T09:54:57Z</time>
      </trkpt>
      <trkpt lat="48.67143" lon="-3.50034">
        <ele>119.34</ele>
        <time>2013-11-24T09:55:16Z</time>
      </trkpt>
      <trkpt lat="48.67117" lon="-3.49851">
        <ele>119.82</ele>
        <time>2013-11-24T09:55:33Z</time>
      </trkpt>
      <trkpt lat="48.67086" lon="-3.49665">
        <ele>120.78</ele>
        <time>2013-11-24T09:55:49Z</time>
      </trkpt>
      <trkpt lat="48.67036" lon="-3.49505">
        <ele>124.15</ele>
        <time>2013-11-24T09:56:05Z</time>
      </trkpt>
      <trkpt lat="48.66984" lon="-3.4936">
        <ele>126.55</ele>
        <time>2013-11-24T09:56:21Z</time>
      </trkpt>
      <trkpt lat="48.66907" lon="-3.49263">
        <ele>124.63</ele>
        <time>2013-11-24T09:56:34Z</time>
      </trkpt>
      <trkpt lat="48.66819" lon="-3.49154">
        <ele>123.67</ele>
        <time>2013-11-24T09:56:48Z</time>
      </trkpt>
      <trkpt lat="48.66739" lon="-3.49032">
        <ele>120.78</ele>
        <time>2013-11-24T09:57:02Z</time>
      </trkpt>
      <trkpt lat="48.66656" lon="-3.48883">
        <ele>119.34</ele>
        <time>2013-11-24T09:57:18Z</time>
      </trkpt>
      <trkpt lat="48.66588" lon="-3.48723">
        <ele>116.94</ele>
        <time>2013-11-24T09:57:33Z</time>
      </trkpt>
      <trkpt lat="48.66496" lon="-3.48543">
        <ele>113.57</ele>
        <time>2013-11-24T09:57:50Z</time>
      </trkpt>
      <trkpt lat="48.66487" lon="-3.4852">
        <ele>113.09</ele>
        <time>2013-11-24T09:57:52Z</time>
      </trkpt>
      <trkpt lat="48.66483" lon="-3.48508">
        <ele>112.61</ele>
        <time>2013-11-24T09:57:53Z</time>
      </trkpt>
      <trkpt lat="48.6648" lon="-3.48496">
        <ele>112.61</ele>
        <time>2013-11-24T09:57:54Z</time>
      </trkpt>
      <trkpt lat="48.66477" lon="-3.48483">
        <ele>112.61</ele>
        <time>2013-11-24T09:57:55Z</time>
      </trkpt>
      <trkpt lat="48.66475" lon="-3.4847">
        <ele>112.61</ele>
        <time>2013-11-24T09:57:56Z</time>
      </trkpt>
      <trkpt lat="48.66457" lon="-3.48281">
        <ele>110.69</ele>
        <time>2013-11-24T09:58:10Z</time>
      </trkpt>
      <trkpt lat="48.66425" lon="-3.48094">
        <ele>108.29</ele>
        <time>2013-11-24T09:58:24Z</time>
      </trkpt>
      <trkpt lat="48.66372" lon="-3.47956">
        <ele>105.4</ele>
        <time>2013-11-24T09:58:35Z</time>
      </trkpt>
      <trkpt lat="48.66303" lon="-3.47771">
        <ele>102.04</ele>
        <time>2013-11-24T09:58:49Z</time>
      </trkpt>
      <trkpt lat="48.66283" lon="-3.47669">
        <ele>99.15</ele>
        <time>2013-11-24T09:58:56Z</time>
      </trkpt>
      <trkpt lat="48.66265" lon="-3.47582">
        <ele>96.27</ele>
        <time>2013-11-24T09:59:02Z</time>
      </trkpt>
      <trkpt lat="48.6626" lon="-3.47569">
        <ele>95.79</ele>
        <time>2013-11-24T09:59:03Z</time>
      </trkpt>
      <trkpt lat="48.66199" lon="-3.4745">
        <ele>95.79</ele>
        <time>2013-11-24T09:59:14Z</time>
      </trkpt>
      <trkpt lat="48.6619" lon="-3.47434">
        <ele>96.27</ele>
        <time>2013-11-24T09:59:16Z</time>
      </trkpt>
      <trkpt lat="48.66159" lon="-3.47361">
        <ele>99.63</ele>
        <time>2013-11-24T09:59:25Z</time>
      </trkpt>
      <trkpt lat="48.66155" lon="-3.47263">
        <ele>102.52</ele>
        <time>2013-11-24T09:59:36Z</time>
      </trkpt>
      <trkpt lat="48.66159" lon="-3.47145">
        <ele>105.88</ele>
        <time>2013-11-24T09:59:49Z</time>
      </trkpt>
      <trkpt lat="48.66161" lon="-3.46994">
        <ele>107.81</ele>
        <time>2013-11-24T10:00:04Z</time>
      </trkpt>
      <trkpt lat="48.6616" lon="-3.4681">
        <ele>106.84</ele>
        <time>2013-11-24T10:00:19Z</time>
      </trkpt>
      <trkpt lat="48.66151" lon="-3.4661">
        <ele>103.96</ele>
        <time>2013-11-24T10:00:35Z</time>
      </trkpt>
      <trkpt lat="48.66144" lon="-3.46446">
        <ele>103</ele>
        <time>2013-11-24T10:00:49Z</time>
      </trkpt>
      <trkpt lat="48.66106" lon="-3.46312">
        <ele>101.08</ele>
        <time>2013-11-24T10:01:01Z</time>
      </trkpt>
      <trkpt lat="48.66037" lon="-3.46157">
        <ele>98.19</ele>
        <time>2013-11-24T10:01:15Z</time>
      </trkpt>
      <trkpt lat="48.6596" lon="-3.46051">
        <ele>97.23</ele>
        <time>2013-11-24T10:01:26Z</time>
      </trkpt>
      <trkpt lat="48.6592" lon="-3.45968">
        <ele>99.15</ele>
        <time>2013-11-24T10:01:35Z</time>
      </trkpt>
      <trkpt lat="48.65917" lon="-3.45957">
        <ele>99.63</ele>
        <time>2013-11-24T10:01:36Z</time>
      </trkpt>
      <trkpt lat="48.65915" lon="-3.45946">
        <ele>99.15</ele>
        <time>2013-11-24T10:01:37Z</time>
      </trkpt>
      <trkpt lat="48.65908" lon="-3.45804">
        <ele>101.08</ele>
        <time>2013-11-24T10:01:50Z</time>
      </trkpt>
      <trkpt lat="48.65912" lon="-3.4578">
        <ele>101.56</ele>
        <time>2013-11-24T10:01:52Z</time>
      </trkpt>
      <trkpt lat="48.65915" lon="-3.45768">
        <ele>102.04</ele>
        <time>2013-11-24T10:01:53Z</time>
      </trkpt>
      <trkpt lat="48.65918" lon="-3.45757">
        <ele>101.56</ele>
        <time>2013-11-24T10:01:54Z</time>
      </trkpt>
      <trkpt lat="48.65922" lon="-3.45746">
        <ele>101.08</ele>
        <time>2013-11-24T10:01:55Z</time>
      </trkpt>
      <trkpt lat="48.65927" lon="-3.45736">
        <ele>101.08</ele>
        <time>2013-11-24T10:01:56Z</time>
      </trkpt>
      <trkpt lat="48.66003" lon="-3.45565">
        <ele>101.08</ele>
        <time>2013-11-24T10:02:13Z</time>
      </trkpt>
      <trkpt lat="48.66008" lon="-3.45557">
        <ele>100.6</ele>
        <time>2013-11-24T10:02:14Z</time>
      </trkpt>
      <trkpt lat="48.66015" lon="-3.4555">
        <ele>101.08</ele>
        <time>2013-11-24T10:02:15Z</time>
      </trkpt>
      <trkpt lat="48.66021" lon="-3.45544">
        <ele>101.08</ele>
        <time>2013-11-24T10:02:16Z</time>
      </trkpt>
      <trkpt lat="48.66028" lon="-3.45537">
        <ele>101.08</ele>
        <time>2013-11-24T10:02:17Z</time>
      </trkpt>
      <trkpt lat="48.66068" lon="-3.45501">
        <ele>101.08</ele>
        <time>2013-11-24T10:02:23Z</time>
      </trkpt>
      <trkpt lat="48.66074" lon="-3.45493">
        <ele>101.56</ele>
        <time>2013-11-24T10:02:24Z</time>
      </trkpt>
      <trkpt lat="48.66079" lon="-3.45485">
        <ele>100.6</ele>
        <time>2013-11-24T10:02:25Z</time>
      </trkpt>
      <trkpt lat="48.66084" lon="-3.45476">
        <ele>100.6</ele>
        <time>2013-11-24T10:02:26Z</time>
      </trkpt>
      <trkpt lat="48.66088" lon="-3.45466">
        <ele>100.6</ele>
        <time>2013-11-24T10:02:27Z</time>
      </trkpt>
      <trkpt lat="48.66092" lon="-3.45455">
        <ele>100.11</ele>
        <time>2013-11-24T10:02:28Z</time>
      </trkpt>
      <trkpt lat="48.66095" lon="-3.45444">
        <ele>100.6</ele>
        <time>2013-11-24T10:02:29Z</time>
      </trkpt>
      <trkpt lat="48.66146" lon="-3.45288">
        <ele>97.71</ele>
        <time>2013-11-24T10:02:42Z</time>
      </trkpt>
      <trkpt lat="48.66148" lon="-3.45274">
        <ele>97.71</ele>
        <time>2013-11-24T10:02:43Z</time>
      </trkpt>
      <trkpt lat="48.66148" lon="-3.4526">
        <ele>97.23</ele>
        <time>2013-11-24T10:02:44Z</time>
      </trkpt>
      <trkpt lat="48.66145" lon="-3.45246">
        <ele>96.75</ele>
        <time>2013-11-24T10:02:45Z</time>
      </trkpt>
      <trkpt lat="48.6614" lon="-3.45234">
        <ele>96.27</ele>
        <time>2013-11-24T10:02:46Z</time>
      </trkpt>
      <trkpt lat="48.66134" lon="-3.45223">
        <ele>96.27</ele>
        <time>2013-11-24T10:02:47Z</time>
      </trkpt>
      <trkpt lat="48.66127" lon="-3.45212">
        <ele>95.79</ele>
        <time>2013-11-24T10:02:48Z</time>
      </trkpt>
      <trkpt lat="48.6612" lon="-3.45203">
        <ele>95.79</ele>
        <time>2013-11-24T10:02:49Z</time>
      </trkpt>
      <trkpt lat="48.66025" lon="-3.45121">
        <ele>95.31</ele>
        <time>2013-11-24T10:03:01Z</time>
      </trkpt>
      <trkpt lat="48.65947" lon="-3.45076">
        <ele>95.31</ele>
        <time>2013-11-24T10:03:11Z</time>
      </trkpt>
      <trkpt lat="48.65941" lon="-3.45068">
        <ele>94.83</ele>
        <time>2013-11-24T10:03:12Z</time>
      </trkpt>
      <trkpt lat="48.65936" lon="-3.45058">
        <ele>95.31</ele>
        <time>2013-11-24T10:03:13Z</time>
      </trkpt>
      <trkpt lat="48.65931" lon="-3.45047">
        <ele>94.35</ele>
        <time>2013-11-24T10:03:14Z</time>
      </trkpt>
      <trkpt lat="48.65927" lon="-3.45036">
        <ele>93.87</ele>
        <time>2013-11-24T10:03:15Z</time>
      </trkpt>
      <trkpt lat="48.65925" lon="-3.45024">
        <ele>93.87</ele>
        <time>2013-11-24T10:03:16Z</time>
      </trkpt>
      <trkpt lat="48.65924" lon="-3.45011">
        <ele>93.87</ele>
        <time>2013-11-24T10:03:17Z</time>
      </trkpt>
      <trkpt lat="48.65924" lon="-3.44997">
        <ele>93.87</ele>
        <time>2013-11-24T10:03:18Z</time>
      </trkpt>
      <trkpt lat="48.65924" lon="-3.44984">
        <ele>93.87</ele>
        <time>2013-11-24T10:03:19Z</time>
      </trkpt>
      <trkpt lat="48.65925" lon="-3.44971">
        <ele>93.39</ele>
        <time>2013-11-24T10:03:20Z</time>
      </trkpt>
      <trkpt lat="48.65935" lon="-3.44817">
        <ele>96.75</ele>
        <time>2013-11-24T10:03:33Z</time>
      </trkpt>
      <trkpt lat="48.65927" lon="-3.4464">
        <ele>99.15</ele>
        <time>2013-11-24T10:03:49Z</time>
      </trkpt>
      <trkpt lat="48.6593" lon="-3.44524">
        <ele>99.63</ele>
        <time>2013-11-24T10:04:00Z</time>
      </trkpt>
      <trkpt lat="48.65928" lon="-3.44515">
        <ele>99.15</ele>
        <time>2013-11-24T10:04:01Z</time>
      </trkpt>
      <trkpt lat="48.65925" lon="-3.44507">
        <ele>99.15</ele>
        <time>2013-11-24T10:04:02Z</time>
      </trkpt>
      <trkpt lat="48.65921" lon="-3.445">
        <ele>99.15</ele>
        <time>2013-11-24T10:04:03Z</time>
      </trkpt>
      <trkpt lat="48.65916" lon="-3.44496">
        <ele>99.15</ele>
        <time>2013-11-24T10:04:04Z</time>
      </trkpt>
      <trkpt lat="48.6591" lon="-3.44493">
        <ele>99.15</ele>
        <time>2013-11-24T10:04:05Z</time>
      </trkpt>
      <trkpt lat="48.65905" lon="-3.44492">
        <ele>99.15</ele>
        <time>2013-11-24T10:04:06Z</time>
      </trkpt>
      <trkpt lat="48.65897" lon="-3.44492">
        <ele>99.63</ele>
        <time>2013-11-24T10:04:07Z</time>
      </trkpt>
      <trkpt lat="48.65785" lon="-3.44489">
        <ele>100.6</ele>
        <time>2013-11-24T10:04:21Z</time>
      </trkpt>
      <trkpt lat="48.65664" lon="-3.44499">
        <ele>101.56</ele>
        <time>2013-11-24T10:04:37Z</time>
      </trkpt>
      <trkpt lat="48.65611" lon="-3.44508">
        <ele>102.52</ele>
        <time>2013-11-24T10:04:44Z</time>
      </trkpt>
      <trkpt lat="48.65596" lon="-3.44506">
        <ele>103</ele>
        <time>2013-11-24T10:04:46Z</time>
      </trkpt>
      <trkpt lat="48.65589" lon="-3.44502">
        <ele>103</ele>
        <time>2013-11-24T10:04:47Z</time>
      </trkpt>
      <trkpt lat="48.65584" lon="-3.44495">
        <ele>103.48</ele>
        <time>2013-11-24T10:04:48Z</time>
      </trkpt>
      <trkpt lat="48.65581" lon="-3.44488">
        <ele>103.48</ele>
        <time>2013-11-24T10:04:49Z</time>
      </trkpt>
      <trkpt lat="48.65578" lon="-3.44482">
        <ele>103</ele>
        <time>2013-11-24T10:04:50Z</time>
      </trkpt>
      <trkpt lat="48.65576" lon="-3.44476">
        <ele>103.48</ele>
        <time>2013-11-24T10:04:51Z</time>
      </trkpt>
      <trkpt lat="48.65573" lon="-3.4446">
        <ele>103.96</ele>
        <time>2013-11-24T10:04:55Z</time>
      </trkpt>
      <trkpt lat="48.65573" lon="-3.44458">
        <ele>103.48</ele>
        <time>2013-11-24T10:05:05Z</time>
      </trkpt>
      <trkpt lat="48.65574" lon="-3.44456">
        <ele>103.96</ele>
        <time>2013-11-24T10:05:06Z</time>
      </trkpt>
      <trkpt lat="48.65575" lon="-3.44452">
        <ele>103.96</ele>
        <time>2013-11-24T10:05:07Z</time>
      </trkpt>
      <trkpt lat="48.65577" lon="-3.44449">
        <ele>103.96</ele>
        <time>2013-11-24T10:05:08Z</time>
      </trkpt>
      <trkpt lat="48.65579" lon="-3.44447">
        <ele>103.96</ele>
        <time>2013-11-24T10:05:09Z</time>
      </trkpt>
      <trkpt lat="48.65582" lon="-3.44445">
        <ele>104.44</ele>
        <time>2013-11-24T10:05:10Z</time>
      </trkpt>
      <trkpt lat="48.65585" lon="-3.44442">
        <ele>104.44</ele>
        <time>2013-11-24T10:05:11Z</time>
      </trkpt>
      <trkpt lat="48.65648" lon="-3.44416">
        <ele>103.48</ele>
        <time>2013-11-24T10:05:22Z</time>
      </trkpt>
      <trkpt lat="48.65788" lon="-3.44363">
        <ele>101.08</ele>
        <time>2013-11-24T10:05:40Z</time>
      </trkpt>
      <trkpt lat="48.65926" lon="-3.44342">
        <ele>98.67</ele>
        <time>2013-11-24T10:05:55Z</time>
      </trkpt>
      <trkpt lat="48.6601" lon="-3.44354">
        <ele>95.31</ele>
        <time>2013-11-24T10:06:04Z</time>
      </trkpt>
      <trkpt lat="48.6614" lon="-3.44386">
        <ele>94.83</ele>
        <time>2013-11-24T10:06:18Z</time>
      </trkpt>
      <trkpt lat="48.66266" lon="-3.44418">
        <ele>98.19</ele>
        <time>2013-11-24T10:06:34Z</time>
      </trkpt>
      <trkpt lat="48.66399" lon="-3.44444">
        <ele>99.15</ele>
        <time>2013-11-24T10:06:52Z</time>
      </trkpt>
      <trkpt lat="48.6653" lon="-3.44438">
        <ele>100.6</ele>
        <time>2013-11-24T10:07:09Z</time>
      </trkpt>
      <trkpt lat="48.66645" lon="-3.44441">
        <ele>100.11</ele>
        <time>2013-11-24T10:07:24Z</time>
      </trkpt>
      <trkpt lat="48.66753" lon="-3.44453">
        <ele>98.67</ele>
        <time>2013-11-24T10:07:38Z</time>
      </trkpt>
      <trkpt lat="48.66895" lon="-3.44469">
        <ele>95.79</ele>
        <time>2013-11-24T10:07:56Z</time>
      </trkpt>
      <trkpt lat="48.67022" lon="-3.4446">
        <ele>94.35</ele>
        <time>2013-11-24T10:08:12Z</time>
      </trkpt>
      <trkpt lat="48.67134" lon="-3.44434">
        <ele>93.87</ele>
        <time>2013-11-24T10:08:27Z</time>
      </trkpt>
      <trkpt lat="48.67208" lon="-3.44437">
        <ele>94.35</ele>
        <time>2013-11-24T10:08:40Z</time>
      </trkpt>
      <trkpt lat="48.6722" lon="-3.44442">
        <ele>93.87</ele>
        <time>2013-11-24T10:08:44Z</time>
      </trkpt>
      <trkpt lat="48.6722" lon="-3.44444">
        <ele>93.87</ele>
        <time>2013-11-24T10:08:45Z</time>
      </trkpt>
      <trkpt lat="48.67219" lon="-3.44446">
        <ele>93.87</ele>
        <time>2013-11-24T10:08:46Z</time>
      </trkpt>
      <trkpt lat="48.67217" lon="-3.44445">
        <ele>93.87</ele>
        <time>2013-11-24T10:08:47Z</time>
      </trkpt>
      <trkpt lat="48.67181" lon="-3.44438">
        <ele>93.39</ele>
        <time>2013-11-24T10:09:00Z</time>
      </trkpt>
      <trkpt lat="48.67184" lon="-3.44434">
        <ele>92.9</ele>
        <time>2013-11-24T10:09:04Z</time>
      </trkpt>
      <trkpt lat="48.67227" lon="-3.44443">
        <ele>94.35</ele>
        <time>2013-11-24T10:09:16Z</time>
      </trkpt>
      <trkpt lat="48.67304" lon="-3.44461">
        <ele>94.83</ele>
        <time>2013-11-24T10:09:29Z</time>
      </trkpt>
      <trkpt lat="48.67392" lon="-3.44491">
        <ele>95.79</ele>
        <time>2013-11-24T10:09:42Z</time>
      </trkpt>
      <trkpt lat="48.67419" lon="-3.44495">
        <ele>94.83</ele>
        <time>2013-11-24T10:09:46Z</time>
      </trkpt>
      <trkpt lat="48.67535" lon="-3.44509">
        <ele>95.79</ele>
        <time>2013-11-24T10:10:03Z</time>
      </trkpt>
      <trkpt lat="48.6766" lon="-3.44483">
        <ele>95.79</ele>
        <time>2013-11-24T10:10:21Z</time>
      </trkpt>
      <trkpt lat="48.67757" lon="-3.44429">
        <ele>94.83</ele>
        <time>2013-11-24T10:10:36Z</time>
      </trkpt>
      <trkpt lat="48.67872" lon="-3.44371">
        <ele>94.83</ele>
        <time>2013-11-24T10:10:52Z</time>
      </trkpt>
      <trkpt lat="48.67907" lon="-3.44368">
        <ele>94.83</ele>
        <time>2013-11-24T10:10:57Z</time>
      </trkpt>
      <trkpt lat="48.67914" lon="-3.44369">
        <ele>94.83</ele>
        <time>2013-11-24T10:10:58Z</time>
      </trkpt>
      <trkpt lat="48.6803" lon="-3.44399">
        <ele>92.9</ele>
        <time>2013-11-24T10:11:12Z</time>
      </trkpt>
      <trkpt lat="48.68161" lon="-3.44434">
        <ele>91.46</ele>
        <time>2013-11-24T10:11:28Z</time>
      </trkpt>
      <trkpt lat="48.68305" lon="-3.44475">
        <ele>90.98</ele>
        <time>2013-11-24T10:11:48Z</time>
      </trkpt>
      <trkpt lat="48.68412" lon="-3.44504">
        <ele>90.98</ele>
        <time>2013-11-24T10:12:04Z</time>
      </trkpt>
      <trkpt lat="48.68551" lon="-3.44523">
        <ele>91.46</ele>
        <time>2013-11-24T10:12:23Z</time>
      </trkpt>
      <trkpt lat="48.68697" lon="-3.44565">
        <ele>90.5</ele>
        <time>2013-11-24T10:12:42Z</time>
      </trkpt>
      <trkpt lat="48.68833" lon="-3.44579">
        <ele>88.58</ele>
        <time>2013-11-24T10:13:00Z</time>
      </trkpt>
      <trkpt lat="48.6895" lon="-3.44552">
        <ele>89.54</ele>
        <time>2013-11-24T10:13:17Z</time>
      </trkpt>
      <trkpt lat="48.69052" lon="-3.44534">
        <ele>92.42</ele>
        <time>2013-11-24T10:13:33Z</time>
      </trkpt>
      <trkpt lat="48.69163" lon="-3.445">
        <ele>93.87</ele>
        <time>2013-11-24T10:13:49Z</time>
      </trkpt>
      <trkpt lat="48.69277" lon="-3.44466">
        <ele>94.35</ele>
        <time>2013-11-24T10:14:06Z</time>
      </trkpt>
      <trkpt lat="48.6936" lon="-3.44486">
        <ele>95.79</ele>
        <time>2013-11-24T10:14:17Z</time>
      </trkpt>
      <trkpt lat="48.69457" lon="-3.44531">
        <ele>94.83</ele>
        <time>2013-11-24T10:14:31Z</time>
      </trkpt>
      <trkpt lat="48.69546" lon="-3.44604">
        <ele>91.46</ele>
        <time>2013-11-24T10:14:42Z</time>
      </trkpt>
      <trkpt lat="48.69563" lon="-3.44618">
        <ele>90.5</ele>
        <time>2013-11-24T10:14:44Z</time>
      </trkpt>
      <trkpt lat="48.69661" lon="-3.4468">
        <ele>87.62</ele>
        <time>2013-11-24T10:14:55Z</time>
      </trkpt>
      <trkpt lat="48.69807" lon="-3.44745">
        <ele>84.73</ele>
        <time>2013-11-24T10:15:12Z</time>
      </trkpt>
      <trkpt lat="48.69942" lon="-3.4478">
        <ele>82.81</ele>
        <time>2013-11-24T10:15:28Z</time>
      </trkpt>
      <trkpt lat="48.7009" lon="-3.44798">
        <ele>79.93</ele>
        <time>2013-11-24T10:15:45Z</time>
      </trkpt>
      <trkpt lat="48.70203" lon="-3.44813">
        <ele>79.45</ele>
        <time>2013-11-24T10:15:59Z</time>
      </trkpt>
      <trkpt lat="48.70304" lon="-3.44821">
        <ele>79.93</ele>
        <time>2013-11-24T10:16:12Z</time>
      </trkpt>
      <trkpt lat="48.70389" lon="-3.44848">
        <ele>79.45</ele>
        <time>2013-11-24T10:16:24Z</time>
      </trkpt>
      <trkpt lat="48.70404" lon="-3.44848">
        <ele>79.45</ele>
        <time>2013-11-24T10:16:26Z</time>
      </trkpt>
      <trkpt lat="48.70411" lon="-3.44847">
        <ele>79.93</ele>
        <time>2013-11-24T10:16:27Z</time>
      </trkpt>
      <trkpt lat="48.70433" lon="-3.44841">
        <ele>79.93</ele>
        <time>2013-11-24T10:16:30Z</time>
      </trkpt>
      <trkpt lat="48.70494" lon="-3.44816">
        <ele>79.93</ele>
        <time>2013-11-24T10:16:39Z</time>
      </trkpt>
      <trkpt lat="48.70584" lon="-3.44814">
        <ele>79.93</ele>
        <time>2013-11-24T10:16:52Z</time>
      </trkpt>
      <trkpt lat="48.70667" lon="-3.448">
        <ele>77.52</ele>
        <time>2013-11-24T10:17:03Z</time>
      </trkpt>
      <trkpt lat="48.70676" lon="-3.44801">
        <ele>77.52</ele>
        <time>2013-11-24T10:17:04Z</time>
      </trkpt>
      <trkpt lat="48.70714" lon="-3.4481">
        <ele>75.12</ele>
        <time>2013-11-24T10:17:08Z</time>
      </trkpt>
      <trkpt lat="48.70745" lon="-3.4482">
        <ele>72.24</ele>
        <time>2013-11-24T10:17:11Z</time>
      </trkpt>
      <trkpt lat="48.70777" lon="-3.44837">
        <ele>70.31</ele>
        <time>2013-11-24T10:17:14Z</time>
      </trkpt>
      <trkpt lat="48.70858" lon="-3.44882">
        <ele>66.95</ele>
        <time>2013-11-24T10:17:22Z</time>
      </trkpt>
      <trkpt lat="48.7096" lon="-3.44957">
        <ele>65.51</ele>
        <time>2013-11-24T10:17:35Z</time>
      </trkpt>
      <trkpt lat="48.70968" lon="-3.44959">
        <ele>64.55</ele>
        <time>2013-11-24T10:17:36Z</time>
      </trkpt>
      <trkpt lat="48.70982" lon="-3.44962">
        <ele>64.55</ele>
        <time>2013-11-24T10:17:38Z</time>
      </trkpt>
      <trkpt lat="48.70989" lon="-3.44967">
        <ele>64.55</ele>
        <time>2013-11-24T10:17:39Z</time>
      </trkpt>
      <trkpt lat="48.70995" lon="-3.44973">
        <ele>64.07</ele>
        <time>2013-11-24T10:17:40Z</time>
      </trkpt>
      <trkpt lat="48.71001" lon="-3.4498">
        <ele>64.07</ele>
        <time>2013-11-24T10:17:41Z</time>
      </trkpt>
      <trkpt lat="48.71009" lon="-3.44986">
        <ele>64.07</ele>
        <time>2013-11-24T10:17:42Z</time>
      </trkpt>
      <trkpt lat="48.71016" lon="-3.44989">
        <ele>64.07</ele>
        <time>2013-11-24T10:17:43Z</time>
      </trkpt>
      <trkpt lat="48.71025" lon="-3.4499">
        <ele>63.58</ele>
        <time>2013-11-24T10:17:44Z</time>
      </trkpt>
      <trkpt lat="48.71033" lon="-3.4499">
        <ele>63.58</ele>
        <time>2013-11-24T10:17:45Z</time>
      </trkpt>
      <trkpt lat="48.71137" lon="-3.44993">
        <ele>63.1</ele>
        <time>2013-11-24T10:17:58Z</time>
      </trkpt>
      <trkpt lat="48.71234" lon="-3.45033">
        <ele>62.14</ele>
        <time>2013-11-24T10:18:11Z</time>
      </trkpt>
      <trkpt lat="48.71358" lon="-3.45106">
        <ele>61.66</ele>
        <time>2013-11-24T10:18:27Z</time>
      </trkpt>
      <trkpt lat="48.71472" lon="-3.45183">
        <ele>61.66</ele>
        <time>2013-11-24T10:18:43Z</time>
      </trkpt>
      <trkpt lat="48.71557" lon="-3.45245">
        <ele>61.18</ele>
        <time>2013-11-24T10:18:57Z</time>
      </trkpt>
      <trkpt lat="48.71562" lon="-3.45252">
        <ele>61.18</ele>
        <time>2013-11-24T10:18:58Z</time>
      </trkpt>
      <trkpt lat="48.71568" lon="-3.45259">
        <ele>60.7</ele>
        <time>2013-11-24T10:18:59Z</time>
      </trkpt>
      <trkpt lat="48.71573" lon="-3.45268">
        <ele>60.7</ele>
        <time>2013-11-24T10:19:00Z</time>
      </trkpt>
      <trkpt lat="48.71578" lon="-3.45277">
        <ele>60.7</ele>
        <time>2013-11-24T10:19:01Z</time>
      </trkpt>
      <trkpt lat="48.71582" lon="-3.45288">
        <ele>60.22</ele>
        <time>2013-11-24T10:19:02Z</time>
      </trkpt>
      <trkpt lat="48.71646" lon="-3.4545">
        <ele>57.34</ele>
        <time>2013-11-24T10:19:17Z</time>
      </trkpt>
      <trkpt lat="48.71694" lon="-3.45573">
        <ele>53.97</ele>
        <time>2013-11-24T10:19:28Z</time>
      </trkpt>
      <trkpt lat="48.71704" lon="-3.45595">
        <ele>53.49</ele>
        <time>2013-11-24T10:19:30Z</time>
      </trkpt>
      <trkpt lat="48.71711" lon="-3.45605">
        <ele>53.49</ele>
        <time>2013-11-24T10:19:31Z</time>
      </trkpt>
      <trkpt lat="48.71718" lon="-3.45615">
        <ele>52.53</ele>
        <time>2013-11-24T10:19:32Z</time>
      </trkpt>
      <trkpt lat="48.71726" lon="-3.45624">
        <ele>52.05</ele>
        <time>2013-11-24T10:19:33Z</time>
      </trkpt>
      <trkpt lat="48.71734" lon="-3.45632">
        <ele>52.05</ele>
        <time>2013-11-24T10:19:34Z</time>
      </trkpt>
      <trkpt lat="48.71767" lon="-3.45666">
        <ele>50.61</ele>
        <time>2013-11-24T10:19:38Z</time>
      </trkpt>
      <trkpt lat="48.71817" lon="-3.45717">
        <ele>48.2</ele>
        <time>2013-11-24T10:19:44Z</time>
      </trkpt>
      <trkpt lat="48.71885" lon="-3.45787">
        <ele>45.32</ele>
        <time>2013-11-24T10:19:52Z</time>
      </trkpt>
      <trkpt lat="48.71911" lon="-3.45814">
        <ele>44.36</ele>
        <time>2013-11-24T10:19:55Z</time>
      </trkpt>
      <trkpt lat="48.71918" lon="-3.45825">
        <ele>44.84</ele>
        <time>2013-11-24T10:19:56Z</time>
      </trkpt>
      <trkpt lat="48.71924" lon="-3.45837">
        <ele>43.88</ele>
        <time>2013-11-24T10:19:57Z</time>
      </trkpt>
      <trkpt lat="48.71928" lon="-3.45851">
        <ele>42.92</ele>
        <time>2013-11-24T10:19:58Z</time>
      </trkpt>
      <trkpt lat="48.71932" lon="-3.45865">
        <ele>43.4</ele>
        <time>2013-11-24T10:19:59Z</time>
      </trkpt>
      <trkpt lat="48.71936" lon="-3.45879">
        <ele>42.92</ele>
        <time>2013-11-24T10:20:00Z</time>
      </trkpt>
      <trkpt lat="48.7194" lon="-3.45894">
        <ele>42.44</ele>
        <time>2013-11-24T10:20:01Z</time>
      </trkpt>
      <trkpt lat="48.71955" lon="-3.4595">
        <ele>40.03</ele>
        <time>2013-11-24T10:20:05Z</time>
      </trkpt>
      <trkpt lat="48.71961" lon="-3.45963">
        <ele>39.55</ele>
        <time>2013-11-24T10:20:06Z</time>
      </trkpt>
      <trkpt lat="48.71967" lon="-3.45976">
        <ele>39.55</ele>
        <time>2013-11-24T10:20:07Z</time>
      </trkpt>
      <trkpt lat="48.71975" lon="-3.45987">
        <ele>39.07</ele>
        <time>2013-11-24T10:20:08Z</time>
      </trkpt>
      <trkpt lat="48.71983" lon="-3.45996">
        <ele>38.59</ele>
        <time>2013-11-24T10:20:09Z</time>
      </trkpt>
      <trkpt lat="48.71992" lon="-3.46004">
        <ele>39.07</ele>
        <time>2013-11-24T10:20:10Z</time>
      </trkpt>
      <trkpt lat="48.72002" lon="-3.4601">
        <ele>38.59</ele>
        <time>2013-11-24T10:20:11Z</time>
      </trkpt>
      <trkpt lat="48.72011" lon="-3.46015">
        <ele>37.63</ele>
        <time>2013-11-24T10:20:12Z</time>
      </trkpt>
      <trkpt lat="48.72021" lon="-3.46017">
        <ele>37.15</ele>
        <time>2013-11-24T10:20:13Z</time>
      </trkpt>
      <trkpt lat="48.72031" lon="-3.46018">
        <ele>38.11</ele>
        <time>2013-11-24T10:20:14Z</time>
      </trkpt>
      <trkpt lat="48.72041" lon="-3.46017">
        <ele>37.15</ele>
        <time>2013-11-24T10:20:15Z</time>
      </trkpt>
      <trkpt lat="48.72051" lon="-3.46015">
        <ele>36.67</ele>
        <time>2013-11-24T10:20:16Z</time>
      </trkpt>
      <trkpt lat="48.7206" lon="-3.46011">
        <ele>36.19</ele>
        <time>2013-11-24T10:20:17Z</time>
      </trkpt>
      <trkpt lat="48.72069" lon="-3.46006">
        <ele>35.23</ele>
        <time>2013-11-24T10:20:18Z</time>
      </trkpt>
      <trkpt lat="48.72078" lon="-3.46">
        <ele>35.23</ele>
        <time>2013-11-24T10:20:19Z</time>
      </trkpt>
      <trkpt lat="48.72087" lon="-3.45993">
        <ele>34.74</ele>
        <time>2013-11-24T10:20:20Z</time>
      </trkpt>
      <trkpt lat="48.72143" lon="-3.45957">
        <ele>32.34</ele>
        <time>2013-11-24T10:20:26Z</time>
      </trkpt>
      <trkpt lat="48.72153" lon="-3.45955">
        <ele>33.3</ele>
        <time>2013-11-24T10:20:27Z</time>
      </trkpt>
      <trkpt lat="48.72163" lon="-3.45955">
        <ele>32.82</ele>
        <time>2013-11-24T10:20:28Z</time>
      </trkpt>
      <trkpt lat="48.72174" lon="-3.45958">
        <ele>32.34</ele>
        <time>2013-11-24T10:20:29Z</time>
      </trkpt>
      <trkpt lat="48.72184" lon="-3.45961">
        <ele>31.38</ele>
        <time>2013-11-24T10:20:30Z</time>
      </trkpt>
      <trkpt lat="48.72194" lon="-3.45966">
        <ele>31.38</ele>
        <time>2013-11-24T10:20:31Z</time>
      </trkpt>
      <trkpt lat="48.72265" lon="-3.45999">
        <ele>28.02</ele>
        <time>2013-11-24T10:20:38Z</time>
      </trkpt>
      <trkpt lat="48.72295" lon="-3.4601">
        <ele>27.05</ele>
        <time>2013-11-24T10:20:41Z</time>
      </trkpt>
      <trkpt lat="48.72306" lon="-3.46011">
        <ele>26.57</ele>
        <time>2013-11-24T10:20:42Z</time>
      </trkpt>
      <trkpt lat="48.72316" lon="-3.46011">
        <ele>26.09</ele>
        <time>2013-11-24T10:20:43Z</time>
      </trkpt>
      <trkpt lat="48.72326" lon="-3.46009">
        <ele>25.61</ele>
        <time>2013-11-24T10:20:44Z</time>
      </trkpt>
      <trkpt lat="48.72337" lon="-3.46007">
        <ele>25.61</ele>
        <time>2013-11-24T10:20:45Z</time>
      </trkpt>
      <trkpt lat="48.72387" lon="-3.45994">
        <ele>22.73</ele>
        <time>2013-11-24T10:20:50Z</time>
      </trkpt>
      <trkpt lat="48.72398" lon="-3.45993">
        <ele>22.25</ele>
        <time>2013-11-24T10:20:51Z</time>
      </trkpt>
      <trkpt lat="48.72408" lon="-3.45994">
        <ele>21.77</ele>
        <time>2013-11-24T10:20:52Z</time>
      </trkpt>
      <trkpt lat="48.72418" lon="-3.45997">
        <ele>21.77</ele>
        <time>2013-11-24T10:20:53Z</time>
      </trkpt>
      <trkpt lat="48.72428" lon="-3.46001">
        <ele>20.81</ele>
        <time>2013-11-24T10:20:54Z</time>
      </trkpt>
      <trkpt lat="48.72438" lon="-3.46006">
        <ele>20.32</ele>
        <time>2013-11-24T10:20:55Z</time>
      </trkpt>
      <trkpt lat="48.72535" lon="-3.46036">
        <ele>16.96</ele>
        <time>2013-11-24T10:21:05Z</time>
      </trkpt>
      <trkpt lat="48.72554" lon="-3.46035">
        <ele>16</ele>
        <time>2013-11-24T10:21:07Z</time>
      </trkpt>
      <trkpt lat="48.72564" lon="-3.46032">
        <ele>15.52</ele>
        <time>2013-11-24T10:21:08Z</time>
      </trkpt>
      <trkpt lat="48.72629" lon="-3.46016">
        <ele>12.63</ele>
        <time>2013-11-24T10:21:15Z</time>
      </trkpt>
      <trkpt lat="48.72686" lon="-3.46002">
        <ele>9.27</ele>
        <time>2013-11-24T10:21:21Z</time>
      </trkpt>
      <trkpt lat="48.72705" lon="-3.45998">
        <ele>8.31</ele>
        <time>2013-11-24T10:21:23Z</time>
      </trkpt>
      <trkpt lat="48.72745" lon="-3.45988">
        <ele>5.91</ele>
        <time>2013-11-24T10:21:28Z</time>
      </trkpt>
      <trkpt lat="48.72762" lon="-3.45978">
        <ele>3.98</ele>
        <time>2013-11-24T10:21:33Z</time>
      </trkpt>
      <trkpt lat="48.72764" lon="-3.45974">
        <ele>3.98</ele>
        <time>2013-11-24T10:21:34Z</time>
      </trkpt>
      <trkpt lat="48.72765" lon="-3.45968">
        <ele>4.46</ele>
        <time>2013-11-24T10:21:35Z</time>
      </trkpt>
      <trkpt lat="48.72766" lon="-3.45961">
        <ele>3.98</ele>
        <time>2013-11-24T10:21:36Z</time>
      </trkpt>
      <trkpt lat="48.72766" lon="-3.45952">
        <ele>4.46</ele>
        <time>2013-11-24T10:21:37Z</time>
      </trkpt>
      <trkpt lat="48.72765" lon="-3.45944">
        <ele>4.94</ele>
        <time>2013-11-24T10:21:38Z</time>
      </trkpt>
      <trkpt lat="48.72764" lon="-3.45935">
        <ele>4.46</ele>
        <time>2013-11-24T10:21:39Z</time>
      </trkpt>
      <trkpt lat="48.72762" lon="-3.45901">
        <ele>5.42</ele>
        <time>2013-11-24T10:21:43Z</time>
      </trkpt>
      <trkpt lat="48.72763" lon="-3.45893">
        <ele>4.94</ele>
        <time>2013-11-24T10:21:44Z</time>
      </trkpt>
      <trkpt lat="48.72764" lon="-3.45884">
        <ele>4.94</ele>
        <time>2013-11-24T10:21:45Z</time>
      </trkpt>
      <trkpt lat="48.72766" lon="-3.45875">
        <ele>4.94</ele>
        <time>2013-11-24T10:21:46Z</time>
      </trkpt>
      <trkpt lat="48.72768" lon="-3.45866">
        <ele>4.94</ele>
        <time>2013-11-24T10:21:47Z</time>
      </trkpt>
      <trkpt lat="48.72787" lon="-3.45804">
        <ele>5.42</ele>
        <time>2013-11-24T10:21:55Z</time>
      </trkpt>
      <trkpt lat="48.72789" lon="-3.45796">
        <ele>5.42</ele>
        <time>2013-11-24T10:21:56Z</time>
      </trkpt>
      <trkpt lat="48.72788" lon="-3.45788">
        <ele>5.42</ele>
        <time>2013-11-24T10:21:57Z</time>
      </trkpt>
      <trkpt lat="48.72786" lon="-3.4578">
        <ele>5.42</ele>
        <time>2013-11-24T10:21:58Z</time>
      </trkpt>
      <trkpt lat="48.72783" lon="-3.45773">
        <ele>5.42</ele>
        <time>2013-11-24T10:21:59Z</time>
      </trkpt>
      <trkpt lat="48.72779" lon="-3.45766">
        <ele>4.94</ele>
        <time>2013-11-24T10:22:00Z</time>
      </trkpt>
      <trkpt lat="48.72773" lon="-3.45761">
        <ele>4.94</ele>
        <time>2013-11-24T10:22:01Z</time>
      </trkpt>
      <trkpt lat="48.72768" lon="-3.45756">
        <ele>5.42</ele>
        <time>2013-11-24T10:22:02Z</time>
      </trkpt>
      <trkpt lat="48.72692" lon="-3.45674">
        <ele>4.94</ele>
        <time>2013-11-24T10:22:15Z</time>
      </trkpt>
      <trkpt lat="48.72628" lon="-3.45531">
        <ele>6.39</ele>
        <time>2013-11-24T10:22:30Z</time>
      </trkpt>
      <trkpt lat="48.72602" lon="-3.45404">
        <ele>9.75</ele>
        <time>2013-11-24T10:22:42Z</time>
      </trkpt>
      <trkpt lat="48.72597" lon="-3.45314">
        <ele>9.75</ele>
        <time>2013-11-24T10:22:51Z</time>
      </trkpt>
      <trkpt lat="48.72603" lon="-3.45197">
        <ele>12.15</ele>
        <time>2013-11-24T10:23:04Z</time>
      </trkpt>
      <trkpt lat="48.72605" lon="-3.45189">
        <ele>12.15</ele>
        <time>2013-11-24T10:23:05Z</time>
      </trkpt>
      <trkpt lat="48.72608" lon="-3.45185">
        <ele>12.63</ele>
        <time>2013-11-24T10:23:06Z</time>
      </trkpt>
      <trkpt lat="48.72613" lon="-3.45184">
        <ele>13.12</ele>
        <time>2013-11-24T10:23:07Z</time>
      </trkpt>
      <trkpt lat="48.72619" lon="-3.45185">
        <ele>13.12</ele>
        <time>2013-11-24T10:23:08Z</time>
      </trkpt>
      <trkpt lat="48.72624" lon="-3.45188">
        <ele>13.6</ele>
        <time>2013-11-24T10:23:09Z</time>
      </trkpt>
      <trkpt lat="48.7263" lon="-3.45189">
        <ele>13.6</ele>
        <time>2013-11-24T10:23:10Z</time>
      </trkpt>
      <trkpt lat="48.72636" lon="-3.4519">
        <ele>13.6</ele>
        <time>2013-11-24T10:23:11Z</time>
      </trkpt>
      <trkpt lat="48.72642" lon="-3.45191">
        <ele>14.08</ele>
        <time>2013-11-24T10:23:12Z</time>
      </trkpt>
      <trkpt lat="48.72664" lon="-3.45197">
        <ele>14.56</ele>
        <time>2013-11-24T10:23:16Z</time>
      </trkpt>
      <trkpt lat="48.72669" lon="-3.45201">
        <ele>14.56</ele>
        <time>2013-11-24T10:23:17Z</time>
      </trkpt>
      <trkpt lat="48.72701" lon="-3.45221">
        <ele>16.48</ele>
        <time>2013-11-24T10:23:24Z</time>
      </trkpt>
      <trkpt lat="48.72706" lon="-3.45222">
        <ele>16.96</ele>
        <time>2013-11-24T10:23:25Z</time>
      </trkpt>
      <trkpt lat="48.72711" lon="-3.45221">
        <ele>17.44</ele>
        <time>2013-11-24T10:23:26Z</time>
      </trkpt>
      <trkpt lat="48.72714" lon="-3.45217">
        <ele>17.92</ele>
        <time>2013-11-24T10:23:27Z</time>
      </trkpt>
      <trkpt lat="48.72717" lon="-3.45213">
        <ele>18.4</ele>
        <time>2013-11-24T10:23:28Z</time>
      </trkpt>
      <trkpt lat="48.72719" lon="-3.45207">
        <ele>18.88</ele>
        <time>2013-11-24T10:23:29Z</time>
      </trkpt>
      <trkpt lat="48.72723" lon="-3.45196">
        <ele>19.84</ele>
        <time>2013-11-24T10:23:31Z</time>
      </trkpt>
      <trkpt lat="48.72725" lon="-3.45191">
        <ele>19.84</ele>
        <time>2013-11-24T10:23:32Z</time>
      </trkpt>
      <trkpt lat="48.72727" lon="-3.45186">
        <ele>20.32</ele>
        <time>2013-11-24T10:23:33Z</time>
      </trkpt>
      <trkpt lat="48.72738" lon="-3.45166">
        <ele>20.81</ele>
        <time>2013-11-24T10:23:37Z</time>
      </trkpt>
      <trkpt lat="48.72741" lon="-3.4516">
        <ele>20.81</ele>
        <time>2013-11-24T10:23:38Z</time>
      </trkpt>
      <trkpt lat="48.72755" lon="-3.45132">
        <ele>22.25</ele>
        <time>2013-11-24T10:23:43Z</time>
      </trkpt>
      <trkpt lat="48.72802" lon="-3.45037">
        <ele>25.13</ele>
        <time>2013-11-24T10:24:00Z</time>
      </trkpt>
      <trkpt lat="48.72818" lon="-3.45006">
        <ele>27.05</ele>
        <time>2013-11-24T10:24:06Z</time>
      </trkpt>
      <trkpt lat="48.72832" lon="-3.44978">
        <ele>28.02</ele>
        <time>2013-11-24T10:24:11Z</time>
      </trkpt>
      <trkpt lat="48.72835" lon="-3.44974">
        <ele>28.02</ele>
        <time>2013-11-24T10:24:12Z</time>
      </trkpt>
      <trkpt lat="48.72843" lon="-3.44968">
        <ele>28.5</ele>
        <time>2013-11-24T10:24:15Z</time>
      </trkpt>
      <trkpt lat="48.72846" lon="-3.44971">
        <ele>28.98</ele>
        <time>2013-11-24T10:24:16Z</time>
      </trkpt>
      <trkpt lat="48.72849" lon="-3.44975">
        <ele>28.98</ele>
        <time>2013-11-24T10:24:17Z</time>
      </trkpt>
      <trkpt lat="48.72851" lon="-3.4498">
        <ele>29.46</ele>
        <time>2013-11-24T10:24:18Z</time>
      </trkpt>
      <trkpt lat="48.72853" lon="-3.44985">
        <ele>29.46</ele>
        <time>2013-11-24T10:24:19Z</time>
      </trkpt>
      <trkpt lat="48.72856" lon="-3.44991">
        <ele>29.46</ele>
        <time>2013-11-24T10:24:20Z</time>
      </trkpt>
      <trkpt lat="48.7289" lon="-3.45068">
        <ele>32.34</ele>
        <time>2013-11-24T10:24:33Z</time>
      </trkpt>
      <trkpt lat="48.72933" lon="-3.45159">
        <ele>34.74</ele>
        <time>2013-11-24T10:24:49Z</time>
      </trkpt>
      <trkpt lat="48.7294" lon="-3.45171">
        <ele>34.26</ele>
        <time>2013-11-24T10:24:52Z</time>
      </trkpt>
      <trkpt lat="48.72943" lon="-3.45171">
        <ele>34.74</ele>
        <time>2013-11-24T10:24:53Z</time>
      </trkpt>
      <trkpt lat="48.72946" lon="-3.45167">
        <ele>34.74</ele>
        <time>2013-11-24T10:24:54Z</time>
      </trkpt>
      <trkpt lat="48.72947" lon="-3.45163">
        <ele>35.23</ele>
        <time>2013-11-24T10:24:55Z</time>
      </trkpt>
      <trkpt lat="48.72948" lon="-3.45157">
        <ele>35.23</ele>
        <time>2013-11-24T10:24:56Z</time>
      </trkpt>
      <trkpt lat="48.72949" lon="-3.45153">
        <ele>35.23</ele>
        <time>2013-11-24T10:24:57Z</time>
      </trkpt>
      <trkpt lat="48.72952" lon="-3.45076">
        <ele>36.19</ele>
        <time>2013-11-24T10:25:11Z</time>
      </trkpt>
      <trkpt lat="48.72956" lon="-3.45037">
        <ele>36.67</ele>
        <time>2013-11-24T10:25:17Z</time>
      </trkpt>
      <trkpt lat="48.72959" lon="-3.45011">
        <ele>37.15</ele>
        <time>2013-11-24T10:25:21Z</time>
      </trkpt>
      <trkpt lat="48.72959" lon="-3.45005">
        <ele>37.15</ele>
        <time>2013-11-24T10:25:22Z</time>
      </trkpt>
      <trkpt lat="48.7296" lon="-3.44999">
        <ele>37.15</ele>
        <time>2013-11-24T10:25:23Z</time>
      </trkpt>
      <trkpt lat="48.72966" lon="-3.44926">
        <ele>38.11</ele>
        <time>2013-11-24T10:25:36Z</time>
      </trkpt>
      <trkpt lat="48.72972" lon="-3.4487">
        <ele>40.03</ele>
        <time>2013-11-24T10:25:47Z</time>
      </trkpt>
      <trkpt lat="48.72982" lon="-3.44775">
        <ele>40.51</ele>
        <time>2013-11-24T10:26:02Z</time>
      </trkpt>
      <trkpt lat="48.72991" lon="-3.44664">
        <ele>40.99</ele>
        <time>2013-11-24T10:26:19Z</time>
      </trkpt>
      <trkpt lat="48.72993" lon="-3.44639">
        <ele>41.47</ele>
        <time>2013-11-24T10:26:23Z</time>
      </trkpt>
      <trkpt lat="48.72993" lon="-3.44633">
        <ele>41.47</ele>
        <time>2013-11-24T10:26:24Z</time>
      </trkpt>
      <trkpt lat="48.72992" lon="-3.44626">
        <ele>41.95</ele>
        <time>2013-11-24T10:26:25Z</time>
      </trkpt>
      <trkpt lat="48.72992" lon="-3.4462">
        <ele>41.95</ele>
        <time>2013-11-24T10:26:26Z</time>
      </trkpt>
      <trkpt lat="48.72994" lon="-3.44614">
        <ele>42.44</ele>
        <time>2013-11-24T10:26:27Z</time>
      </trkpt>
      <trkpt lat="48.72997" lon="-3.44611">
        <ele>41.95</ele>
        <time>2013-11-24T10:26:28Z</time>
      </trkpt>
      <trkpt lat="48.73001" lon="-3.4461">
        <ele>42.44</ele>
        <time>2013-11-24T10:26:29Z</time>
      </trkpt>
      <trkpt lat="48.73004" lon="-3.44612">
        <ele>42.44</ele>
        <time>2013-11-24T10:26:30Z</time>
      </trkpt>
      <trkpt lat="48.73008" lon="-3.44614">
        <ele>42.44</ele>
        <time>2013-11-24T10:26:31Z</time>
      </trkpt>
      <trkpt lat="48.73012" lon="-3.44616">
        <ele>41.95</ele>
        <time>2013-11-24T10:26:32Z</time>
      </trkpt>
      <trkpt lat="48.73017" lon="-3.44617">
        <ele>42.44</ele>
        <time>2013-11-24T10:26:33Z</time>
      </trkpt>
      <trkpt lat="48.73093" lon="-3.44653">
        <ele>43.4</ele>
        <time>2013-11-24T10:26:51Z</time>
      </trkpt>
      <trkpt lat="48.73105" lon="-3.44655">
        <ele>44.36</ele>
        <time>2013-11-24T10:26:54Z</time>
      </trkpt>
      <trkpt lat="48.73109" lon="-3.44652">
        <ele>43.88</ele>
        <time>2013-11-24T10:26:55Z</time>
      </trkpt>
      <trkpt lat="48.73112" lon="-3.44648">
        <ele>43.88</ele>
        <time>2013-11-24T10:26:56Z</time>
      </trkpt>
      <trkpt lat="48.73138" lon="-3.44556">
        <ele>44.36</ele>
        <time>2013-11-24T10:27:09Z</time>
      </trkpt>
      <trkpt lat="48.7317" lon="-3.44413">
        <ele>44.84</ele>
        <time>2013-11-24T10:27:27Z</time>
      </trkpt>
      <trkpt lat="48.73189" lon="-3.4433">
        <ele>44.84</ele>
        <time>2013-11-24T10:27:37Z</time>
      </trkpt>
      <trkpt lat="48.73199" lon="-3.44191">
        <ele>46.28</ele>
        <time>2013-11-24T10:27:53Z</time>
      </trkpt>
      <trkpt lat="48.73199" lon="-3.44174">
        <ele>46.28</ele>
        <time>2013-11-24T10:27:55Z</time>
      </trkpt>
      <trkpt lat="48.73198" lon="-3.44166">
        <ele>46.28</ele>
        <time>2013-11-24T10:27:56Z</time>
      </trkpt>
      <trkpt lat="48.73195" lon="-3.44151">
        <ele>46.28</ele>
        <time>2013-11-24T10:27:58Z</time>
      </trkpt>
      <trkpt lat="48.73195" lon="-3.44143">
        <ele>46.28</ele>
        <time>2013-11-24T10:27:59Z</time>
      </trkpt>
      <trkpt lat="48.73197" lon="-3.44136">
        <ele>46.76</ele>
        <time>2013-11-24T10:28:00Z</time>
      </trkpt>
      <trkpt lat="48.73201" lon="-3.4413">
        <ele>46.28</ele>
        <time>2013-11-24T10:28:01Z</time>
      </trkpt>
      <trkpt lat="48.73207" lon="-3.44127">
        <ele>46.28</ele>
        <time>2013-11-24T10:28:02Z</time>
      </trkpt>
      <trkpt lat="48.73213" lon="-3.44127">
        <ele>45.8</ele>
        <time>2013-11-24T10:28:03Z</time>
      </trkpt>
      <trkpt lat="48.73219" lon="-3.44125">
        <ele>45.8</ele>
        <time>2013-11-24T10:28:04Z</time>
      </trkpt>
      <trkpt lat="48.73225" lon="-3.44122">
        <ele>45.8</ele>
        <time>2013-11-24T10:28:05Z</time>
      </trkpt>
      <trkpt lat="48.73231" lon="-3.44117">
        <ele>45.32</ele>
        <time>2013-11-24T10:28:06Z</time>
      </trkpt>
      <trkpt lat="48.73284" lon="-3.44065">
        <ele>42.44</ele>
        <time>2013-11-24T10:28:15Z</time>
      </trkpt>
      <trkpt lat="48.73288" lon="-3.44057">
        <ele>41.47</ele>
        <time>2013-11-24T10:28:16Z</time>
      </trkpt>
      <trkpt lat="48.73292" lon="-3.44049">
        <ele>41.47</ele>
        <time>2013-11-24T10:28:17Z</time>
      </trkpt>
      <trkpt lat="48.73325" lon="-3.43943">
        <ele>41.95</ele>
        <time>2013-11-24T10:28:31Z</time>
      </trkpt>
      <trkpt lat="48.73326" lon="-3.43935">
        <ele>41.95</ele>
        <time>2013-11-24T10:28:32Z</time>
      </trkpt>
      <trkpt lat="48.73328" lon="-3.43928">
        <ele>41.47</ele>
        <time>2013-11-24T10:28:33Z</time>
      </trkpt>
      <trkpt lat="48.7333" lon="-3.43922">
        <ele>41.95</ele>
        <time>2013-11-24T10:28:34Z</time>
      </trkpt>
      <trkpt lat="48.73333" lon="-3.43916">
        <ele>42.92</ele>
        <time>2013-11-24T10:28:35Z</time>
      </trkpt>
      <trkpt lat="48.73337" lon="-3.43912">
        <ele>42.92</ele>
        <time>2013-11-24T10:28:36Z</time>
      </trkpt>
      <trkpt lat="48.73341" lon="-3.4391">
        <ele>42.92</ele>
        <time>2013-11-24T10:28:37Z</time>
      </trkpt>
      <trkpt lat="48.73346" lon="-3.43909">
        <ele>42.92</ele>
        <time>2013-11-24T10:28:38Z</time>
      </trkpt>
      <trkpt lat="48.73351" lon="-3.43908">
        <ele>43.4</ele>
        <time>2013-11-24T10:28:39Z</time>
      </trkpt>
      <trkpt lat="48.73356" lon="-3.43909">
        <ele>43.4</ele>
        <time>2013-11-24T10:28:40Z</time>
      </trkpt>
      <trkpt lat="48.7336" lon="-3.43911">
        <ele>43.88</ele>
        <time>2013-11-24T10:28:41Z</time>
      </trkpt>
      <trkpt lat="48.73365" lon="-3.43915">
        <ele>43.4</ele>
        <time>2013-11-24T10:28:42Z</time>
      </trkpt>
      <trkpt lat="48.73369" lon="-3.43921">
        <ele>43.88</ele>
        <time>2013-11-24T10:28:43Z</time>
      </trkpt>
      <trkpt lat="48.73373" lon="-3.43927">
        <ele>43.4</ele>
        <time>2013-11-24T10:28:44Z</time>
      </trkpt>
      <trkpt lat="48.73377" lon="-3.43933">
        <ele>43.4</ele>
        <time>2013-11-24T10:28:45Z</time>
      </trkpt>
      <trkpt lat="48.73388" lon="-3.43949">
        <ele>43.4</ele>
        <time>2013-11-24T10:28:48Z</time>
      </trkpt>
      <trkpt lat="48.73392" lon="-3.43952">
        <ele>43.4</ele>
        <time>2013-11-24T10:28:49Z</time>
      </trkpt>
      <trkpt lat="48.73398" lon="-3.43952">
        <ele>43.4</ele>
        <time>2013-11-24T10:28:50Z</time>
      </trkpt>
      <trkpt lat="48.73402" lon="-3.43948">
        <ele>43.4</ele>
        <time>2013-11-24T10:28:51Z</time>
      </trkpt>
      <trkpt lat="48.73404" lon="-3.43941">
        <ele>43.88</ele>
        <time>2013-11-24T10:28:52Z</time>
      </trkpt>
      <trkpt lat="48.73404" lon="-3.43933">
        <ele>43.4</ele>
        <time>2013-11-24T10:28:53Z</time>
      </trkpt>
      <trkpt lat="48.73405" lon="-3.43925">
        <ele>43.4</ele>
        <time>2013-11-24T10:28:54Z</time>
      </trkpt>
      <trkpt lat="48.73405" lon="-3.43916">
        <ele>43.4</ele>
        <time>2013-11-24T10:28:55Z</time>
      </trkpt>
      <trkpt lat="48.73406" lon="-3.43909">
        <ele>43.4</ele>
        <time>2013-11-24T10:28:56Z</time>
      </trkpt>
      <trkpt lat="48.73409" lon="-3.43901">
        <ele>43.4</ele>
        <time>2013-11-24T10:28:57Z</time>
      </trkpt>
      <trkpt lat="48.73412" lon="-3.43895">
        <ele>42.92</ele>
        <time>2013-11-24T10:28:58Z</time>
      </trkpt>
      <trkpt lat="48.73416" lon="-3.43889">
        <ele>43.4</ele>
        <time>2013-11-24T10:28:59Z</time>
      </trkpt>
      <trkpt lat="48.7342" lon="-3.43884">
        <ele>43.88</ele>
        <time>2013-11-24T10:29:00Z</time>
      </trkpt>
      <trkpt lat="48.73451" lon="-3.43847">
        <ele>45.32</ele>
        <time>2013-11-24T10:29:08Z</time>
      </trkpt>
      <trkpt lat="48.73454" lon="-3.43841">
        <ele>45.32</ele>
        <time>2013-11-24T10:29:09Z</time>
      </trkpt>
      <trkpt lat="48.73497" lon="-3.43744">
        <ele>47.72</ele>
        <time>2013-11-24T10:29:24Z</time>
      </trkpt>
      <trkpt lat="48.73499" lon="-3.43738">
        <ele>47.72</ele>
        <time>2013-11-24T10:29:25Z</time>
      </trkpt>
      <trkpt lat="48.73499" lon="-3.4373">
        <ele>47.72</ele>
        <time>2013-11-24T10:29:26Z</time>
      </trkpt>
      <trkpt lat="48.73499" lon="-3.43722">
        <ele>48.2</ele>
        <time>2013-11-24T10:29:27Z</time>
      </trkpt>
      <trkpt lat="48.73498" lon="-3.43715">
        <ele>48.2</ele>
        <time>2013-11-24T10:29:28Z</time>
      </trkpt>
      <trkpt lat="48.73497" lon="-3.43699">
        <ele>48.68</ele>
        <time>2013-11-24T10:29:30Z</time>
      </trkpt>
      <trkpt lat="48.73497" lon="-3.43691">
        <ele>48.68</ele>
        <time>2013-11-24T10:29:31Z</time>
      </trkpt>
      <trkpt lat="48.73498" lon="-3.43684">
        <ele>48.68</ele>
        <time>2013-11-24T10:29:32Z</time>
      </trkpt>
      <trkpt lat="48.735" lon="-3.43676">
        <ele>49.16</ele>
        <time>2013-11-24T10:29:33Z</time>
      </trkpt>
      <trkpt lat="48.73502" lon="-3.43669">
        <ele>49.16</ele>
        <time>2013-11-24T10:29:34Z</time>
      </trkpt>
      <trkpt lat="48.73506" lon="-3.43654">
        <ele>49.65</ele>
        <time>2013-11-24T10:29:36Z</time>
      </trkpt>
      <trkpt lat="48.73505" lon="-3.43646">
        <ele>49.16</ele>
        <time>2013-11-24T10:29:37Z</time>
      </trkpt>
      <trkpt lat="48.73503" lon="-3.43639">
        <ele>48.68</ele>
        <time>2013-11-24T10:29:38Z</time>
      </trkpt>
      <trkpt lat="48.735" lon="-3.43634">
        <ele>49.16</ele>
        <time>2013-11-24T10:29:39Z</time>
      </trkpt>
      <trkpt lat="48.73495" lon="-3.43629">
        <ele>48.68</ele>
        <time>2013-11-24T10:29:40Z</time>
      </trkpt>
      <trkpt lat="48.7349" lon="-3.43627">
        <ele>49.16</ele>
        <time>2013-11-24T10:29:41Z</time>
      </trkpt>
      <trkpt lat="48.73485" lon="-3.43625">
        <ele>49.16</ele>
        <time>2013-11-24T10:29:42Z</time>
      </trkpt>
      <trkpt lat="48.73479" lon="-3.43624">
        <ele>49.16</ele>
        <time>2013-11-24T10:29:43Z</time>
      </trkpt>
      <trkpt lat="48.73474" lon="-3.43622">
        <ele>49.65</ele>
        <time>2013-11-24T10:29:44Z</time>
      </trkpt>
      <trkpt lat="48.73469" lon="-3.43618">
        <ele>49.65</ele>
        <time>2013-11-24T10:29:45Z</time>
      </trkpt>
      <trkpt lat="48.73464" lon="-3.43614">
        <ele>50.13</ele>
        <time>2013-11-24T10:29:46Z</time>
      </trkpt>
      <trkpt lat="48.7346" lon="-3.4361">
        <ele>50.61</ele>
        <time>2013-11-24T10:29:47Z</time>
      </trkpt>
      <trkpt lat="48.73444" lon="-3.43588">
        <ele>51.09</ele>
        <time>2013-11-24T10:29:51Z</time>
      </trkpt>
      <trkpt lat="48.73421" lon="-3.43535">
        <ele>52.53</ele>
        <time>2013-11-24T10:29:59Z</time>
      </trkpt>
      <trkpt lat="48.73419" lon="-3.43527">
        <ele>52.53</ele>
        <time>2013-11-24T10:30:00Z</time>
      </trkpt>
      <trkpt lat="48.73406" lon="-3.43399">
        <ele>54.93</ele>
        <time>2013-11-24T10:30:16Z</time>
      </trkpt>
      <trkpt lat="48.73397" lon="-3.43333">
        <ele>56.86</ele>
        <time>2013-11-24T10:30:25Z</time>
      </trkpt>
      <trkpt lat="48.73396" lon="-3.43327">
        <ele>56.86</ele>
        <time>2013-11-24T10:30:26Z</time>
      </trkpt>
      <trkpt lat="48.73394" lon="-3.43321">
        <ele>57.34</ele>
        <time>2013-11-24T10:30:27Z</time>
      </trkpt>
      <trkpt lat="48.73392" lon="-3.43314">
        <ele>57.82</ele>
        <time>2013-11-24T10:30:28Z</time>
      </trkpt>
      <trkpt lat="48.73391" lon="-3.43307">
        <ele>57.82</ele>
        <time>2013-11-24T10:30:29Z</time>
      </trkpt>
      <trkpt lat="48.73391" lon="-3.43301">
        <ele>58.3</ele>
        <time>2013-11-24T10:30:30Z</time>
      </trkpt>
      <trkpt lat="48.73391" lon="-3.43294">
        <ele>58.3</ele>
        <time>2013-11-24T10:30:31Z</time>
      </trkpt>
      <trkpt lat="48.73391" lon="-3.4328">
        <ele>58.78</ele>
        <time>2013-11-24T10:30:33Z</time>
      </trkpt>
      <trkpt lat="48.73391" lon="-3.43272">
        <ele>58.78</ele>
        <time>2013-11-24T10:30:34Z</time>
      </trkpt>
      <trkpt lat="48.73387" lon="-3.4321">
        <ele>62.14</ele>
        <time>2013-11-24T10:30:43Z</time>
      </trkpt>
      <trkpt lat="48.7339" lon="-3.43125">
        <ele>63.1</ele>
        <time>2013-11-24T10:30:57Z</time>
      </trkpt>
      <trkpt lat="48.7339" lon="-3.4309">
        <ele>64.07</ele>
        <time>2013-11-24T10:31:02Z</time>
      </trkpt>
      <trkpt lat="48.73391" lon="-3.43041">
        <ele>65.03</ele>
        <time>2013-11-24T10:31:08Z</time>
      </trkpt>
      <trkpt lat="48.73391" lon="-3.43033">
        <ele>65.03</ele>
        <time>2013-11-24T10:31:09Z</time>
      </trkpt>
      <trkpt lat="48.7339" lon="-3.43025">
        <ele>65.51</ele>
        <time>2013-11-24T10:31:10Z</time>
      </trkpt>
      <trkpt lat="48.73376" lon="-3.42908">
        <ele>65.03</ele>
        <time>2013-11-24T10:31:24Z</time>
      </trkpt>
      <trkpt lat="48.73369" lon="-3.4279">
        <ele>63.58</ele>
        <time>2013-11-24T10:31:36Z</time>
      </trkpt>
      <trkpt lat="48.73359" lon="-3.42636">
        <ele>62.62</ele>
        <time>2013-11-24T10:31:50Z</time>
      </trkpt>
      <trkpt lat="48.73353" lon="-3.42564">
        <ele>63.58</ele>
        <time>2013-11-24T10:31:57Z</time>
      </trkpt>
      <trkpt lat="48.73355" lon="-3.42421">
        <ele>65.51</ele>
        <time>2013-11-24T10:32:12Z</time>
      </trkpt>
      <trkpt lat="48.7335" lon="-3.4229">
        <ele>65.03</ele>
        <time>2013-11-24T10:32:25Z</time>
      </trkpt>
      <trkpt lat="48.73345" lon="-3.42204">
        <ele>64.55</ele>
        <time>2013-11-24T10:32:32Z</time>
      </trkpt>
      <trkpt lat="48.73361" lon="-3.42056">
        <ele>62.62</ele>
        <time>2013-11-24T10:32:44Z</time>
      </trkpt>
      <trkpt lat="48.7336" lon="-3.42043">
        <ele>61.66</ele>
        <time>2013-11-24T10:32:45Z</time>
      </trkpt>
      <trkpt lat="48.73357" lon="-3.4203">
        <ele>61.18</ele>
        <time>2013-11-24T10:32:46Z</time>
      </trkpt>
      <trkpt lat="48.73354" lon="-3.42018">
        <ele>60.7</ele>
        <time>2013-11-24T10:32:47Z</time>
      </trkpt>
      <trkpt lat="48.73349" lon="-3.42007">
        <ele>60.7</ele>
        <time>2013-11-24T10:32:48Z</time>
      </trkpt>
      <trkpt lat="48.73344" lon="-3.41997">
        <ele>61.18</ele>
        <time>2013-11-24T10:32:49Z</time>
      </trkpt>
      <trkpt lat="48.73338" lon="-3.41989">
        <ele>61.18</ele>
        <time>2013-11-24T10:32:50Z</time>
      </trkpt>
      <trkpt lat="48.73332" lon="-3.41982">
        <ele>61.66</ele>
        <time>2013-11-24T10:32:51Z</time>
      </trkpt>
      <trkpt lat="48.73326" lon="-3.41975">
        <ele>62.14</ele>
        <time>2013-11-24T10:32:52Z</time>
      </trkpt>
      <trkpt lat="48.73311" lon="-3.41958">
        <ele>63.58</ele>
        <time>2013-11-24T10:32:55Z</time>
      </trkpt>
      <trkpt lat="48.7328" lon="-3.4191">
        <ele>66.95</ele>
        <time>2013-11-24T10:33:03Z</time>
      </trkpt>
      <trkpt lat="48.73244" lon="-3.41807">
        <ele>69.83</ele>
        <time>2013-11-24T10:33:17Z</time>
      </trkpt>
      <trkpt lat="48.73216" lon="-3.41654">
        <ele>72.24</ele>
        <time>2013-11-24T10:33:34Z</time>
      </trkpt>
      <trkpt lat="48.73209" lon="-3.41556">
        <ele>74.16</ele>
        <time>2013-11-24T10:33:45Z</time>
      </trkpt>
      <trkpt lat="48.73212" lon="-3.41456">
        <ele>77.52</ele>
        <time>2013-11-24T10:33:57Z</time>
      </trkpt>
      <trkpt lat="48.73212" lon="-3.41304">
        <ele>77.04</ele>
        <time>2013-11-24T10:34:13Z</time>
      </trkpt>
      <trkpt lat="48.73196" lon="-3.41126">
        <ele>78.48</ele>
        <time>2013-11-24T10:34:32Z</time>
      </trkpt>
      <trkpt lat="48.73196" lon="-3.41116">
        <ele>78.48</ele>
        <time>2013-11-24T10:34:33Z</time>
      </trkpt>
      <trkpt lat="48.73172" lon="-3.40976">
        <ele>78.97</ele>
        <time>2013-11-24T10:34:48Z</time>
      </trkpt>
      <trkpt lat="48.73132" lon="-3.40793">
        <ele>78.48</ele>
        <time>2013-11-24T10:35:06Z</time>
      </trkpt>
      <trkpt lat="48.73102" lon="-3.40686">
        <ele>80.41</ele>
        <time>2013-11-24T10:35:17Z</time>
      </trkpt>
      <trkpt lat="48.73065" lon="-3.40608">
        <ele>81.85</ele>
        <time>2013-11-24T10:35:27Z</time>
      </trkpt>
      <trkpt lat="48.73057" lon="-3.4058">
        <ele>82.33</ele>
        <time>2013-11-24T10:35:30Z</time>
      </trkpt>
      <trkpt lat="48.73055" lon="-3.40571">
        <ele>82.81</ele>
        <time>2013-11-24T10:35:31Z</time>
      </trkpt>
      <trkpt lat="48.73054" lon="-3.40561">
        <ele>82.33</ele>
        <time>2013-11-24T10:35:32Z</time>
      </trkpt>
      <trkpt lat="48.73044" lon="-3.40428">
        <ele>83.77</ele>
        <time>2013-11-24T10:35:45Z</time>
      </trkpt>
      <trkpt lat="48.73016" lon="-3.4029">
        <ele>82.33</ele>
        <time>2013-11-24T10:35:58Z</time>
      </trkpt>
      <trkpt lat="48.7299" lon="-3.40165">
        <ele>82.81</ele>
        <time>2013-11-24T10:36:10Z</time>
      </trkpt>
      <trkpt lat="48.72972" lon="-3.40042">
        <ele>84.25</ele>
        <time>2013-11-24T10:36:23Z</time>
      </trkpt>
      <trkpt lat="48.72933" lon="-3.39901">
        <ele>85.69</ele>
        <time>2013-11-24T10:36:39Z</time>
      </trkpt>
      <trkpt lat="48.72875" lon="-3.39775">
        <ele>86.18</ele>
        <time>2013-11-24T10:36:55Z</time>
      </trkpt>
      <trkpt lat="48.72832" lon="-3.39655">
        <ele>86.66</ele>
        <time>2013-11-24T10:37:09Z</time>
      </trkpt>
      <trkpt lat="48.72828" lon="-3.39489">
        <ele>86.18</ele>
        <time>2013-11-24T10:37:25Z</time>
      </trkpt>
      <trkpt lat="48.72837" lon="-3.39311">
        <ele>85.69</ele>
        <time>2013-11-24T10:37:41Z</time>
      </trkpt>
      <trkpt lat="48.72844" lon="-3.39123">
        <ele>85.21</ele>
        <time>2013-11-24T10:37:59Z</time>
      </trkpt>
      <trkpt lat="48.72864" lon="-3.38953">
        <ele>83.29</ele>
        <time>2013-11-24T10:38:14Z</time>
      </trkpt>
      <trkpt lat="48.7288" lon="-3.38833">
        <ele>81.85</ele>
        <time>2013-11-24T10:38:24Z</time>
      </trkpt>
      <trkpt lat="48.72922" lon="-3.38698">
        <ele>80.41</ele>
        <time>2013-11-24T10:38:37Z</time>
      </trkpt>
      <trkpt lat="48.72923" lon="-3.38688">
        <ele>80.41</ele>
        <time>2013-11-24T10:38:38Z</time>
      </trkpt>
      <trkpt lat="48.72924" lon="-3.38678">
        <ele>80.41</ele>
        <time>2013-11-24T10:38:39Z</time>
      </trkpt>
      <trkpt lat="48.72919" lon="-3.38597">
        <ele>81.85</ele>
        <time>2013-11-24T10:38:49Z</time>
      </trkpt>
      <trkpt lat="48.72919" lon="-3.3859">
        <ele>81.85</ele>
        <time>2013-11-24T10:38:50Z</time>
      </trkpt>
      <trkpt lat="48.72918" lon="-3.38584">
        <ele>81.85</ele>
        <time>2013-11-24T10:38:51Z</time>
      </trkpt>
      <trkpt lat="48.72916" lon="-3.38578">
        <ele>81.85</ele>
        <time>2013-11-24T10:38:52Z</time>
      </trkpt>
      <trkpt lat="48.72913" lon="-3.38573">
        <ele>81.85</ele>
        <time>2013-11-24T10:38:53Z</time>
      </trkpt>
      <trkpt lat="48.72911" lon="-3.38568">
        <ele>81.85</ele>
        <time>2013-11-24T10:38:54Z</time>
      </trkpt>
      <trkpt lat="48.72909" lon="-3.38564">
        <ele>81.85</ele>
        <time>2013-11-24T10:38:55Z</time>
      </trkpt>
      <trkpt lat="48.72907" lon="-3.3856">
        <ele>81.85</ele>
        <time>2013-11-24T10:38:56Z</time>
      </trkpt>
      <trkpt lat="48.72906" lon="-3.38556">
        <ele>81.85</ele>
        <time>2013-11-24T10:38:57Z</time>
      </trkpt>
      <trkpt lat="48.72907" lon="-3.38553">
        <ele>82.33</ele>
        <time>2013-11-24T10:38:58Z</time>
      </trkpt>
      <trkpt lat="48.7291" lon="-3.38553">
        <ele>82.33</ele>
        <time>2013-11-24T10:38:59Z</time>
      </trkpt>
      <trkpt lat="48.72912" lon="-3.38556">
        <ele>82.33</ele>
        <time>2013-11-24T10:39:00Z</time>
      </trkpt>
      <trkpt lat="48.72912" lon="-3.3856">
        <ele>81.85</ele>
        <time>2013-11-24T10:39:01Z</time>
      </trkpt>
      <trkpt lat="48.72913" lon="-3.38564">
        <ele>82.33</ele>
        <time>2013-11-24T10:39:02Z</time>
      </trkpt>
      <trkpt lat="48.72913" lon="-3.38568">
        <ele>82.81</ele>
        <time>2013-11-24T10:39:03Z</time>
      </trkpt>
      <trkpt lat="48.72915" lon="-3.38573">
        <ele>82.81</ele>
        <time>2013-11-24T10:39:04Z</time>
      </trkpt>
      <trkpt lat="48.72917" lon="-3.38579">
        <ele>82.81</ele>
        <time>2013-11-24T10:39:05Z</time>
      </trkpt>
      <trkpt lat="48.72919" lon="-3.38587">
        <ele>82.33</ele>
        <time>2013-11-24T10:39:06Z</time>
      </trkpt>
      <trkpt lat="48.72921" lon="-3.38595">
        <ele>81.85</ele>
        <time>2013-11-24T10:39:07Z</time>
      </trkpt>
      <trkpt lat="48.72921" lon="-3.38603">
        <ele>81.85</ele>
        <time>2013-11-24T10:39:08Z</time>
      </trkpt>
      <trkpt lat="48.72921" lon="-3.38612">
        <ele>81.85</ele>
        <time>2013-11-24T10:39:09Z</time>
      </trkpt>
      <trkpt lat="48.7292" lon="-3.38621">
        <ele>81.85</ele>
        <time>2013-11-24T10:39:10Z</time>
      </trkpt>
      <trkpt lat="48.72921" lon="-3.3863">
        <ele>81.37</ele>
        <time>2013-11-24T10:39:11Z</time>
      </trkpt>
      <trkpt lat="48.72922" lon="-3.3864">
        <ele>81.37</ele>
        <time>2013-11-24T10:39:12Z</time>
      </trkpt>
      <trkpt lat="48.72925" lon="-3.38682">
        <ele>81.37</ele>
        <time>2013-11-24T10:39:16Z</time>
      </trkpt>
      <trkpt lat="48.72924" lon="-3.38693">
        <ele>81.37</ele>
        <time>2013-11-24T10:39:17Z</time>
      </trkpt>
      <trkpt lat="48.72923" lon="-3.38704">
        <ele>80.89</ele>
        <time>2013-11-24T10:39:18Z</time>
      </trkpt>
      <trkpt lat="48.72922" lon="-3.38714">
        <ele>81.37</ele>
        <time>2013-11-24T10:39:19Z</time>
      </trkpt>
      <trkpt lat="48.72919" lon="-3.38724">
        <ele>80.89</ele>
        <time>2013-11-24T10:39:20Z</time>
      </trkpt>
      <trkpt lat="48.72916" lon="-3.38734">
        <ele>80.89</ele>
        <time>2013-11-24T10:39:21Z</time>
      </trkpt>
      <trkpt lat="48.72878" lon="-3.38855">
        <ele>80.89</ele>
        <time>2013-11-24T10:39:34Z</time>
      </trkpt>
      <trkpt lat="48.72859" lon="-3.39015">
        <ele>83.29</ele>
        <time>2013-11-24T10:39:51Z</time>
      </trkpt>
      <trkpt lat="48.72842" lon="-3.39162">
        <ele>84.73</ele>
        <time>2013-11-24T10:40:07Z</time>
      </trkpt>
      <trkpt lat="48.72839" lon="-3.39361">
        <ele>85.21</ele>
        <time>2013-11-24T10:40:28Z</time>
      </trkpt>
      <trkpt lat="48.72829" lon="-3.39524">
        <ele>86.66</ele>
        <time>2013-11-24T10:40:45Z</time>
      </trkpt>
      <trkpt lat="48.72843" lon="-3.39685">
        <ele>86.66</ele>
        <time>2013-11-24T10:41:02Z</time>
      </trkpt>
      <trkpt lat="48.72899" lon="-3.39808">
        <ele>86.66</ele>
        <time>2013-11-24T10:41:17Z</time>
      </trkpt>
      <trkpt lat="48.72949" lon="-3.39938">
        <ele>85.69</ele>
        <time>2013-11-24T10:41:32Z</time>
      </trkpt>
      <trkpt lat="48.7298" lon="-3.40076">
        <ele>84.25</ele>
        <time>2013-11-24T10:41:46Z</time>
      </trkpt>
      <trkpt lat="48.73012" lon="-3.40227">
        <ele>81.85</ele>
        <time>2013-11-24T10:42:00Z</time>
      </trkpt>
      <trkpt lat="48.73024" lon="-3.40347">
        <ele>82.33</ele>
        <time>2013-11-24T10:42:11Z</time>
      </trkpt>
      <trkpt lat="48.7303" lon="-3.40375">
        <ele>82.33</ele>
        <time>2013-11-24T10:42:14Z</time>
      </trkpt>
      <trkpt lat="48.73054" lon="-3.40465">
        <ele>82.81</ele>
        <time>2013-11-24T10:42:24Z</time>
      </trkpt>
      <trkpt lat="48.73064" lon="-3.40595">
        <ele>81.85</ele>
        <time>2013-11-24T10:42:37Z</time>
      </trkpt>
      <trkpt lat="48.73071" lon="-3.40614">
        <ele>82.33</ele>
        <time>2013-11-24T10:42:39Z</time>
      </trkpt>
      <trkpt lat="48.73124" lon="-3.40749">
        <ele>79.93</ele>
        <time>2013-11-24T10:42:53Z</time>
      </trkpt>
      <trkpt lat="48.73168" lon="-3.40939">
        <ele>78.48</ele>
        <time>2013-11-24T10:43:11Z</time>
      </trkpt>
      <trkpt lat="48.73194" lon="-3.41086">
        <ele>78.97</ele>
        <time>2013-11-24T10:43:26Z</time>
      </trkpt>
      <trkpt lat="48.73215" lon="-3.41293">
        <ele>76.56</ele>
        <time>2013-11-24T10:43:44Z</time>
      </trkpt>
      <trkpt lat="48.73217" lon="-3.41316">
        <ele>76.56</ele>
        <time>2013-11-24T10:43:46Z</time>
      </trkpt>
      <trkpt lat="48.73213" lon="-3.41504">
        <ele>76.56</ele>
        <time>2013-11-24T10:44:03Z</time>
      </trkpt>
      <trkpt lat="48.73209" lon="-3.41594">
        <ele>73.68</ele>
        <time>2013-11-24T10:44:10Z</time>
      </trkpt>
      <trkpt lat="48.73232" lon="-3.41735">
        <ele>71.76</ele>
        <time>2013-11-24T10:44:21Z</time>
      </trkpt>
      <trkpt lat="48.73249" lon="-3.41829">
        <ele>70.31</ele>
        <time>2013-11-24T10:44:29Z</time>
      </trkpt>
      <trkpt lat="48.73291" lon="-3.41921">
        <ele>67.43</ele>
        <time>2013-11-24T10:44:38Z</time>
      </trkpt>
      <trkpt lat="48.73297" lon="-3.4193">
        <ele>66.95</ele>
        <time>2013-11-24T10:44:39Z</time>
      </trkpt>
      <trkpt lat="48.73334" lon="-3.4197">
        <ele>64.07</ele>
        <time>2013-11-24T10:44:44Z</time>
      </trkpt>
      <trkpt lat="48.73349" lon="-3.41989">
        <ele>62.62</ele>
        <time>2013-11-24T10:44:46Z</time>
      </trkpt>
      <trkpt lat="48.73354" lon="-3.42">
        <ele>62.62</ele>
        <time>2013-11-24T10:44:47Z</time>
      </trkpt>
      <trkpt lat="48.73358" lon="-3.42013">
        <ele>62.14</ele>
        <time>2013-11-24T10:44:48Z</time>
      </trkpt>
      <trkpt lat="48.73361" lon="-3.42026">
        <ele>61.66</ele>
        <time>2013-11-24T10:44:49Z</time>
      </trkpt>
      <trkpt lat="48.73364" lon="-3.42039">
        <ele>61.66</ele>
        <time>2013-11-24T10:44:50Z</time>
      </trkpt>
      <trkpt lat="48.73364" lon="-3.42053">
        <ele>61.66</ele>
        <time>2013-11-24T10:44:51Z</time>
      </trkpt>
      <trkpt lat="48.73363" lon="-3.42066">
        <ele>61.66</ele>
        <time>2013-11-24T10:44:52Z</time>
      </trkpt>
      <trkpt lat="48.73362" lon="-3.42079">
        <ele>62.14</ele>
        <time>2013-11-24T10:44:53Z</time>
      </trkpt>
      <trkpt lat="48.73361" lon="-3.42091">
        <ele>62.62</ele>
        <time>2013-11-24T10:44:54Z</time>
      </trkpt>
      <trkpt lat="48.7334" lon="-3.42212">
        <ele>64.07</ele>
        <time>2013-11-24T10:45:06Z</time>
      </trkpt>
      <trkpt lat="48.73343" lon="-3.42365">
        <ele>65.99</ele>
        <time>2013-11-24T10:45:22Z</time>
      </trkpt>
      <trkpt lat="48.73343" lon="-3.42513">
        <ele>65.03</ele>
        <time>2013-11-24T10:45:36Z</time>
      </trkpt>
      <trkpt lat="48.73362" lon="-3.42683">
        <ele>63.58</ele>
        <time>2013-11-24T10:45:51Z</time>
      </trkpt>
      <trkpt lat="48.73369" lon="-3.42813">
        <ele>64.55</ele>
        <time>2013-11-24T10:46:04Z</time>
      </trkpt>
      <trkpt lat="48.7337" lon="-3.42831">
        <ele>65.03</ele>
        <time>2013-11-24T10:46:06Z</time>
      </trkpt>
      <trkpt lat="48.7337" lon="-3.4284">
        <ele>65.03</ele>
        <time>2013-11-24T10:46:07Z</time>
      </trkpt>
      <trkpt lat="48.73371" lon="-3.42848">
        <ele>65.51</ele>
        <time>2013-11-24T10:46:08Z</time>
      </trkpt>
      <trkpt lat="48.73376" lon="-3.42884">
        <ele>65.99</ele>
        <time>2013-11-24T10:46:12Z</time>
      </trkpt>
      <trkpt lat="48.73395" lon="-3.43018">
        <ele>65.51</ele>
        <time>2013-11-24T10:46:27Z</time>
      </trkpt>
      <trkpt lat="48.73387" lon="-3.43168">
        <ele>63.58</ele>
        <time>2013-11-24T10:46:41Z</time>
      </trkpt>
      <trkpt lat="48.73389" lon="-3.43266">
        <ele>61.18</ele>
        <time>2013-11-24T10:46:49Z</time>
      </trkpt>
      <trkpt lat="48.73391" lon="-3.43279">
        <ele>60.7</ele>
        <time>2013-11-24T10:46:50Z</time>
      </trkpt>
      <trkpt lat="48.73396" lon="-3.43306">
        <ele>59.74</ele>
        <time>2013-11-24T10:46:52Z</time>
      </trkpt>
      <trkpt lat="48.73396" lon="-3.4332">
        <ele>59.26</ele>
        <time>2013-11-24T10:46:53Z</time>
      </trkpt>
      <trkpt lat="48.73397" lon="-3.43334">
        <ele>58.78</ele>
        <time>2013-11-24T10:46:54Z</time>
      </trkpt>
      <trkpt lat="48.73399" lon="-3.43348">
        <ele>57.82</ele>
        <time>2013-11-24T10:46:55Z</time>
      </trkpt>
      <trkpt lat="48.73401" lon="-3.43362">
        <ele>57.34</ele>
        <time>2013-11-24T10:46:56Z</time>
      </trkpt>
      <trkpt lat="48.73403" lon="-3.43377">
        <ele>57.34</ele>
        <time>2013-11-24T10:46:57Z</time>
      </trkpt>
      <trkpt lat="48.73426" lon="-3.43541">
        <ele>54.45</ele>
        <time>2013-11-24T10:47:09Z</time>
      </trkpt>
      <trkpt lat="48.7343" lon="-3.43552">
        <ele>53.97</ele>
        <time>2013-11-24T10:47:10Z</time>
      </trkpt>
      <trkpt lat="48.73434" lon="-3.43563">
        <ele>53.49</ele>
        <time>2013-11-24T10:47:11Z</time>
      </trkpt>
      <trkpt lat="48.73445" lon="-3.43584">
        <ele>53.01</ele>
        <time>2013-11-24T10:47:13Z</time>
      </trkpt>
      <trkpt lat="48.73451" lon="-3.43593">
        <ele>53.49</ele>
        <time>2013-11-24T10:47:14Z</time>
      </trkpt>
      <trkpt lat="48.73465" lon="-3.43608">
        <ele>52.53</ele>
        <time>2013-11-24T10:47:16Z</time>
      </trkpt>
      <trkpt lat="48.73472" lon="-3.43614">
        <ele>52.53</ele>
        <time>2013-11-24T10:47:17Z</time>
      </trkpt>
      <trkpt lat="48.7348" lon="-3.43617">
        <ele>52.53</ele>
        <time>2013-11-24T10:47:18Z</time>
      </trkpt>
      <trkpt lat="48.73488" lon="-3.43618">
        <ele>53.49</ele>
        <time>2013-11-24T10:47:19Z</time>
      </trkpt>
      <trkpt lat="48.73495" lon="-3.4362">
        <ele>52.05</ele>
        <time>2013-11-24T10:47:20Z</time>
      </trkpt>
      <trkpt lat="48.73501" lon="-3.43625">
        <ele>51.09</ele>
        <time>2013-11-24T10:47:21Z</time>
      </trkpt>
      <trkpt lat="48.73506" lon="-3.43633">
        <ele>51.09</ele>
        <time>2013-11-24T10:47:22Z</time>
      </trkpt>
      <trkpt lat="48.73511" lon="-3.4364">
        <ele>50.61</ele>
        <time>2013-11-24T10:47:23Z</time>
      </trkpt>
      <trkpt lat="48.73519" lon="-3.43647">
        <ele>48.68</ele>
        <time>2013-11-24T10:47:26Z</time>
      </trkpt>
      <trkpt lat="48.73527" lon="-3.43651">
        <ele>49.16</ele>
        <time>2013-11-24T10:47:28Z</time>
      </trkpt>
      <trkpt lat="48.7354" lon="-3.43668">
        <ele>48.68</ele>
        <time>2013-11-24T10:47:31Z</time>
      </trkpt>
      <trkpt lat="48.73544" lon="-3.43676">
        <ele>48.2</ele>
        <time>2013-11-24T10:47:32Z</time>
      </trkpt>
      <trkpt lat="48.73546" lon="-3.43685">
        <ele>48.2</ele>
        <time>2013-11-24T10:47:33Z</time>
      </trkpt>
      <trkpt lat="48.73547" lon="-3.43695">
        <ele>47.72</ele>
        <time>2013-11-24T10:47:34Z</time>
      </trkpt>
      <trkpt lat="48.73546" lon="-3.43705">
        <ele>47.72</ele>
        <time>2013-11-24T10:47:35Z</time>
      </trkpt>
      <trkpt lat="48.73543" lon="-3.43715">
        <ele>47.72</ele>
        <time>2013-11-24T10:47:36Z</time>
      </trkpt>
      <trkpt lat="48.7354" lon="-3.43723">
        <ele>47.72</ele>
        <time>2013-11-24T10:47:37Z</time>
      </trkpt>
      <trkpt lat="48.73535" lon="-3.4373">
        <ele>47.72</ele>
        <time>2013-11-24T10:47:38Z</time>
      </trkpt>
      <trkpt lat="48.73529" lon="-3.43734">
        <ele>47.24</ele>
        <time>2013-11-24T10:47:39Z</time>
      </trkpt>
      <trkpt lat="48.73523" lon="-3.43737">
        <ele>47.72</ele>
        <time>2013-11-24T10:47:40Z</time>
      </trkpt>
      <trkpt lat="48.73516" lon="-3.4374">
        <ele>47.72</ele>
        <time>2013-11-24T10:47:41Z</time>
      </trkpt>
      <trkpt lat="48.7351" lon="-3.43743">
        <ele>47.72</ele>
        <time>2013-11-24T10:47:42Z</time>
      </trkpt>
      <trkpt lat="48.73505" lon="-3.43748">
        <ele>48.2</ele>
        <time>2013-11-24T10:47:43Z</time>
      </trkpt>
      <trkpt lat="48.735" lon="-3.43754">
        <ele>48.2</ele>
        <time>2013-11-24T10:47:44Z</time>
      </trkpt>
      <trkpt lat="48.73496" lon="-3.43761">
        <ele>48.2</ele>
        <time>2013-11-24T10:47:45Z</time>
      </trkpt>
      <trkpt lat="48.73492" lon="-3.4377">
        <ele>48.68</ele>
        <time>2013-11-24T10:47:46Z</time>
      </trkpt>
      <trkpt lat="48.73489" lon="-3.43778">
        <ele>48.68</ele>
        <time>2013-11-24T10:47:47Z</time>
      </trkpt>
      <trkpt lat="48.73442" lon="-3.43901">
        <ele>45.32</ele>
        <time>2013-11-24T10:47:59Z</time>
      </trkpt>
      <trkpt lat="48.7344" lon="-3.43914">
        <ele>45.32</ele>
        <time>2013-11-24T10:48:00Z</time>
      </trkpt>
      <trkpt lat="48.73432" lon="-3.43968">
        <ele>43.88</ele>
        <time>2013-11-24T10:48:04Z</time>
      </trkpt>
      <trkpt lat="48.73428" lon="-3.44023">
        <ele>41.95</ele>
        <time>2013-11-24T10:48:08Z</time>
      </trkpt>
      <trkpt lat="48.73425" lon="-3.44037">
        <ele>41.47</ele>
        <time>2013-11-24T10:48:09Z</time>
      </trkpt>
      <trkpt lat="48.73422" lon="-3.44049">
        <ele>40.99</ele>
        <time>2013-11-24T10:48:10Z</time>
      </trkpt>
      <trkpt lat="48.73394" lon="-3.44167">
        <ele>37.63</ele>
        <time>2013-11-24T10:48:19Z</time>
      </trkpt>
      <trkpt lat="48.73391" lon="-3.44206">
        <ele>37.15</ele>
        <time>2013-11-24T10:48:22Z</time>
      </trkpt>
      <trkpt lat="48.73391" lon="-3.44219">
        <ele>37.15</ele>
        <time>2013-11-24T10:48:23Z</time>
      </trkpt>
      <trkpt lat="48.73408" lon="-3.44392">
        <ele>36.19</ele>
        <time>2013-11-24T10:48:38Z</time>
      </trkpt>
      <trkpt lat="48.73412" lon="-3.44401">
        <ele>36.19</ele>
        <time>2013-11-24T10:48:39Z</time>
      </trkpt>
      <trkpt lat="48.73416" lon="-3.44409">
        <ele>36.19</ele>
        <time>2013-11-24T10:48:40Z</time>
      </trkpt>
      <trkpt lat="48.73423" lon="-3.44415">
        <ele>36.19</ele>
        <time>2013-11-24T10:48:41Z</time>
      </trkpt>
      <trkpt lat="48.7343" lon="-3.44417">
        <ele>36.67</ele>
        <time>2013-11-24T10:48:42Z</time>
      </trkpt>
      <trkpt lat="48.73437" lon="-3.44419">
        <ele>36.67</ele>
        <time>2013-11-24T10:48:43Z</time>
      </trkpt>
      <trkpt lat="48.73444" lon="-3.44422">
        <ele>36.67</ele>
        <time>2013-11-24T10:48:44Z</time>
      </trkpt>
      <trkpt lat="48.73458" lon="-3.44426">
        <ele>36.67</ele>
        <time>2013-11-24T10:48:46Z</time>
      </trkpt>
      <trkpt lat="48.73465" lon="-3.44425">
        <ele>36.67</ele>
        <time>2013-11-24T10:48:47Z</time>
      </trkpt>
      <trkpt lat="48.73472" lon="-3.44423">
        <ele>36.19</ele>
        <time>2013-11-24T10:48:48Z</time>
      </trkpt>
      <trkpt lat="48.73478" lon="-3.44419">
        <ele>35.71</ele>
        <time>2013-11-24T10:48:49Z</time>
      </trkpt>
      <trkpt lat="48.73485" lon="-3.44414">
        <ele>34.74</ele>
        <time>2013-11-24T10:48:50Z</time>
      </trkpt>
      <trkpt lat="48.73492" lon="-3.4441">
        <ele>34.26</ele>
        <time>2013-11-24T10:48:51Z</time>
      </trkpt>
      <trkpt lat="48.73499" lon="-3.44407">
        <ele>34.26</ele>
        <time>2013-11-24T10:48:52Z</time>
      </trkpt>
      <trkpt lat="48.73507" lon="-3.44404">
        <ele>33.78</ele>
        <time>2013-11-24T10:48:53Z</time>
      </trkpt>
      <trkpt lat="48.73515" lon="-3.44402">
        <ele>33.3</ele>
        <time>2013-11-24T10:48:54Z</time>
      </trkpt>
      <trkpt lat="48.73553" lon="-3.44394">
        <ele>32.82</ele>
        <time>2013-11-24T10:48:59Z</time>
      </trkpt>
      <trkpt lat="48.73599" lon="-3.44398">
        <ele>29.94</ele>
        <time>2013-11-24T10:49:05Z</time>
      </trkpt>
      <trkpt lat="48.73615" lon="-3.44404">
        <ele>28.5</ele>
        <time>2013-11-24T10:49:07Z</time>
      </trkpt>
      <trkpt lat="48.73659" lon="-3.44428">
        <ele>25.13</ele>
        <time>2013-11-24T10:49:12Z</time>
      </trkpt>
      <trkpt lat="48.73721" lon="-3.44478">
        <ele>22.73</ele>
        <time>2013-11-24T10:49:20Z</time>
      </trkpt>
      <trkpt lat="48.73728" lon="-3.44482">
        <ele>22.73</ele>
        <time>2013-11-24T10:49:21Z</time>
      </trkpt>
      <trkpt lat="48.73735" lon="-3.44484">
        <ele>22.73</ele>
        <time>2013-11-24T10:49:22Z</time>
      </trkpt>
      <trkpt lat="48.73742" lon="-3.44485">
        <ele>22.73</ele>
        <time>2013-11-24T10:49:23Z</time>
      </trkpt>
      <trkpt lat="48.73749" lon="-3.44485">
        <ele>23.21</ele>
        <time>2013-11-24T10:49:24Z</time>
      </trkpt>
      <trkpt lat="48.73756" lon="-3.44484">
        <ele>23.69</ele>
        <time>2013-11-24T10:49:25Z</time>
      </trkpt>
      <trkpt lat="48.73761" lon="-3.44481">
        <ele>23.69</ele>
        <time>2013-11-24T10:49:26Z</time>
      </trkpt>
      <trkpt lat="48.73767" lon="-3.44478">
        <ele>24.17</ele>
        <time>2013-11-24T10:49:27Z</time>
      </trkpt>
      <trkpt lat="48.73772" lon="-3.44475">
        <ele>24.65</ele>
        <time>2013-11-24T10:49:28Z</time>
      </trkpt>
      <trkpt lat="48.7378" lon="-3.44468">
        <ele>25.13</ele>
        <time>2013-11-24T10:49:30Z</time>
      </trkpt>
      <trkpt lat="48.73796" lon="-3.44454">
        <ele>27.05</ele>
        <time>2013-11-24T10:49:34Z</time>
      </trkpt>
      <trkpt lat="48.73847" lon="-3.4444">
        <ele>28.98</ele>
        <time>2013-11-24T10:49:46Z</time>
      </trkpt>
      <trkpt lat="48.73889" lon="-3.44453">
        <ele>32.34</ele>
        <time>2013-11-24T10:49:58Z</time>
      </trkpt>
      <trkpt lat="48.73895" lon="-3.44454">
        <ele>32.82</ele>
        <time>2013-11-24T10:50:00Z</time>
      </trkpt>
      <trkpt lat="48.73949" lon="-3.44461">
        <ele>35.23</ele>
        <time>2013-11-24T10:50:15Z</time>
      </trkpt>
      <trkpt lat="48.73974" lon="-3.44458">
        <ele>36.19</ele>
        <time>2013-11-24T10:50:22Z</time>
      </trkpt>
      <trkpt lat="48.73977" lon="-3.44462">
        <ele>35.71</ele>
        <time>2013-11-24T10:50:23Z</time>
      </trkpt>
      <trkpt lat="48.73981" lon="-3.44467">
        <ele>35.71</ele>
        <time>2013-11-24T10:50:24Z</time>
      </trkpt>
      <trkpt lat="48.73993" lon="-3.44479">
        <ele>35.71</ele>
        <time>2013-11-24T10:50:27Z</time>
      </trkpt>
      <trkpt lat="48.73997" lon="-3.44482">
        <ele>35.71</ele>
        <time>2013-11-24T10:50:28Z</time>
      </trkpt>
      <trkpt lat="48.74002" lon="-3.44485">
        <ele>35.71</ele>
        <time>2013-11-24T10:50:29Z</time>
      </trkpt>
      <trkpt lat="48.74074" lon="-3.44509">
        <ele>37.63</ele>
        <time>2013-11-24T10:50:45Z</time>
      </trkpt>
      <trkpt lat="48.7414" lon="-3.44543">
        <ele>39.55</ele>
        <time>2013-11-24T10:51:02Z</time>
      </trkpt>
      <trkpt lat="48.74213" lon="-3.44576">
        <ele>42.44</ele>
        <time>2013-11-24T10:51:20Z</time>
      </trkpt>
      <trkpt lat="48.74263" lon="-3.44607">
        <ele>43.4</ele>
        <time>2013-11-24T10:51:34Z</time>
      </trkpt>
      <trkpt lat="48.74264" lon="-3.44613">
        <ele>43.4</ele>
        <time>2013-11-24T10:51:35Z</time>
      </trkpt>
      <trkpt lat="48.74265" lon="-3.44619">
        <ele>43.4</ele>
        <time>2013-11-24T10:51:36Z</time>
      </trkpt>
      <trkpt lat="48.74265" lon="-3.44626">
        <ele>43.88</ele>
        <time>2013-11-24T10:51:37Z</time>
      </trkpt>
      <trkpt lat="48.74265" lon="-3.44632">
        <ele>43.88</ele>
        <time>2013-11-24T10:51:38Z</time>
      </trkpt>
      <trkpt lat="48.74265" lon="-3.44638">
        <ele>43.88</ele>
        <time>2013-11-24T10:51:39Z</time>
      </trkpt>
      <trkpt lat="48.74266" lon="-3.44644">
        <ele>44.36</ele>
        <time>2013-11-24T10:51:40Z</time>
      </trkpt>
      <trkpt lat="48.74267" lon="-3.4465">
        <ele>44.84</ele>
        <time>2013-11-24T10:51:41Z</time>
      </trkpt>
      <trkpt lat="48.74276" lon="-3.44734">
        <ele>47.24</ele>
        <time>2013-11-24T10:51:55Z</time>
      </trkpt>
      <trkpt lat="48.74276" lon="-3.4476">
        <ele>48.2</ele>
        <time>2013-11-24T10:51:59Z</time>
      </trkpt>
      <trkpt lat="48.74276" lon="-3.44829">
        <ele>50.61</ele>
        <time>2013-11-24T10:52:11Z</time>
      </trkpt>
      <trkpt lat="48.74274" lon="-3.44931">
        <ele>53.97</ele>
        <time>2013-11-24T10:52:29Z</time>
      </trkpt>
      <trkpt lat="48.74274" lon="-3.45027">
        <ele>58.3</ele>
        <time>2013-11-24T10:52:46Z</time>
      </trkpt>
      <trkpt lat="48.74276" lon="-3.4507">
        <ele>59.26</ele>
        <time>2013-11-24T10:52:54Z</time>
      </trkpt>
      <trkpt lat="48.74294" lon="-3.45145">
        <ele>62.62</ele>
        <time>2013-11-24T10:53:09Z</time>
      </trkpt>
      <trkpt lat="48.7433" lon="-3.45194">
        <ele>65.51</ele>
        <time>2013-11-24T10:53:24Z</time>
      </trkpt>
      <trkpt lat="48.7438" lon="-3.45221">
        <ele>67.91</ele>
        <time>2013-11-24T10:53:40Z</time>
      </trkpt>
      <trkpt lat="48.7441" lon="-3.45242">
        <ele>67.91</ele>
        <time>2013-11-24T10:53:51Z</time>
      </trkpt>
      <trkpt lat="48.74466" lon="-3.45316">
        <ele>65.03</ele>
        <time>2013-11-24T10:54:04Z</time>
      </trkpt>
      <trkpt lat="48.74514" lon="-3.45379">
        <ele>61.66</ele>
        <time>2013-11-24T10:54:11Z</time>
      </trkpt>
      <trkpt lat="48.74542" lon="-3.45424">
        <ele>58.3</ele>
        <time>2013-11-24T10:54:15Z</time>
      </trkpt>
      <trkpt lat="48.74575" lon="-3.45484">
        <ele>59.26</ele>
        <time>2013-11-24T10:54:23Z</time>
      </trkpt>
      <trkpt lat="48.74583" lon="-3.45495">
        <ele>60.7</ele>
        <time>2013-11-24T10:54:26Z</time>
      </trkpt>
      <trkpt lat="48.74595" lon="-3.45507">
        <ele>61.66</ele>
        <time>2013-11-24T10:54:30Z</time>
      </trkpt>
      <trkpt lat="48.74599" lon="-3.45506">
        <ele>62.14</ele>
        <time>2013-11-24T10:54:31Z</time>
      </trkpt>
      <trkpt lat="48.74602" lon="-3.45502">
        <ele>62.14</ele>
        <time>2013-11-24T10:54:32Z</time>
      </trkpt>
      <trkpt lat="48.74604" lon="-3.45498">
        <ele>62.62</ele>
        <time>2013-11-24T10:54:33Z</time>
      </trkpt>
      <trkpt lat="48.74606" lon="-3.45493">
        <ele>63.1</ele>
        <time>2013-11-24T10:54:34Z</time>
      </trkpt>
      <trkpt lat="48.74607" lon="-3.45489">
        <ele>63.1</ele>
        <time>2013-11-24T10:54:35Z</time>
      </trkpt>
      <trkpt lat="48.74622" lon="-3.45467">
        <ele>66.47</ele>
        <time>2013-11-24T10:54:41Z</time>
      </trkpt>
      <trkpt lat="48.74625" lon="-3.45466">
        <ele>66.95</ele>
        <time>2013-11-24T10:54:42Z</time>
      </trkpt>
      <trkpt lat="48.74628" lon="-3.45468">
        <ele>67.43</ele>
        <time>2013-11-24T10:54:43Z</time>
      </trkpt>
      <trkpt lat="48.7463" lon="-3.45471">
        <ele>67.43</ele>
        <time>2013-11-24T10:54:44Z</time>
      </trkpt>
      <trkpt lat="48.74633" lon="-3.45475">
        <ele>67.91</ele>
        <time>2013-11-24T10:54:45Z</time>
      </trkpt>
      <trkpt lat="48.74655" lon="-3.45499">
        <ele>68.87</ele>
        <time>2013-11-24T10:54:56Z</time>
      </trkpt>
      <trkpt lat="48.74662" lon="-3.45504">
        <ele>69.83</ele>
        <time>2013-11-24T10:55:01Z</time>
      </trkpt>
      <trkpt lat="48.74665" lon="-3.45506">
        <ele>69.83</ele>
        <time>2013-11-24T10:55:03Z</time>
      </trkpt>
      <trkpt lat="48.74667" lon="-3.45508">
        <ele>69.83</ele>
        <time>2013-11-24T10:55:04Z</time>
      </trkpt>
      <trkpt lat="48.74669" lon="-3.4551">
        <ele>69.83</ele>
        <time>2013-11-24T10:55:05Z</time>
      </trkpt>
      <trkpt lat="48.74691" lon="-3.45508">
        <ele>71.27</ele>
        <time>2013-11-24T10:55:16Z</time>
      </trkpt>
      <trkpt lat="48.74693" lon="-3.45501">
        <ele>71.27</ele>
        <time>2013-11-24T10:55:26Z</time>
      </trkpt>
      <trkpt lat="48.74694" lon="-3.45501">
        <ele>71.27</ele>
        <time>2013-11-24T10:55:43Z</time>
      </trkpt>
      <trkpt lat="48.74695" lon="-3.45497">
        <ele>71.27</ele>
        <time>2013-11-24T10:55:58Z</time>
      </trkpt>
      <trkpt lat="48.74696" lon="-3.45493">
        <ele>71.27</ele>
        <time>2013-11-24T10:56:15Z</time>
      </trkpt>
      <trkpt lat="48.74696" lon="-3.45503">
        <ele>71.27</ele>
        <time>2013-11-24T10:56:30Z</time>
      </trkpt>
      <trkpt lat="48.74695" lon="-3.45494">
        <ele>72.24</ele>
        <time>2013-11-24T10:56:45Z</time>
      </trkpt>
      <trkpt lat="48.74695" lon="-3.45493">
        <ele>73.2</ele>
        <time>2013-11-24T10:56:48Z</time>
      </trkpt>
      <trkpt lat="48.74691" lon="-3.45498">
        <ele>62.14</ele>
        <time>2013-11-24T10:57:03Z</time>
      </trkpt>
      <trkpt lat="48.74691" lon="-3.45498">
        <ele>82.81</ele>
        <time>2013-11-24T10:57:04Z</time>
      </trkpt>
      <trkpt lat="48.74691" lon="-3.45498">
        <ele>74.64</ele>
        <time>2013-11-24T10:57:05Z</time>
      </trkpt>
      <trkpt lat="48.74691" lon="-3.45498">
        <ele>67.91</ele>
        <time>2013-11-24T10:57:06Z</time>
      </trkpt>
      <trkpt lat="48.74691" lon="-3.45498">
        <ele>79.45</ele>
        <time>2013-11-24T10:57:07Z</time>
      </trkpt>
      <trkpt lat="48.74691" lon="-3.45498">
        <ele>73.2</ele>
        <time>2013-11-24T10:57:08Z</time>
      </trkpt>
      <trkpt lat="48.74692" lon="-3.45498">
        <ele>73.2</ele>
        <time>2013-11-24T10:57:35Z</time>
      </trkpt>
      <trkpt lat="48.74693" lon="-3.45495">
        <ele>73.68</ele>
        <time>2013-11-24T10:57:55Z</time>
      </trkpt>
    </trkseg>
  </trk>
</gpx>